[[{"header":{"parameterUnit":"m.s-1","parameterCategory":1,"la1":31.0,"la2":29.5877,"lo1":-88.7671,"lo2":-86.6584,"dy":0.0162,"dx":0.0185,"nx":115,"ny":88,"refTime":"2024-02-13T06:00:00:Z","depth":0,"parameterNumber":2,"parameterNumberName":"U-component_of_WINDS"},"data":[0.0,0.0,0.0,0.0,0.0,0.0,0.0,0.0,0.0,0.0,0.0,0.0,0.0,0.0,0.0,0.0,0.0,0.0,0.0,0.0,0.0,0.0,0.0,0.0,0.0,0.0,0.0,0.0,0.0,0.0,0.0,0.0,0.0,0.0,0.0,0.0,0.0,0.0,0.0,0.0,0.0,0.0,0.0,0.0,0.0,0.0,0.0,0.0,0.0,0.0,0.0,0.0,0.0,0.0,0.0,0.0,0.0,0.0,0.0,0.0,0.0,0.0,0.0,0.0,0.0,0.0,0.0,0.0,0.0,0.0,0.0,0.0,0.0,0.0,0.0,0.0,0.0,0.0,0.0,0.0,0.0,0.0,0.0,0.0,0.0,0.0,0.0,0.0,0.0,0.0,0.0,0.0,0.0,0.0,0.0,0.0,0.0,0.0,0.0,0.0,0.0,0.0,0.0,0.0,0.0,0.0,0.0,0.0,0.0,0.0,0.0,0.0,0.0,0.0,0.0,0.0,0.0,0.0,0.0,0.0,0.0,0.0,0.0,0.0,0.0,0.0,0.0,0.0,0.0,0.0,0.0,0.0,0.0,0.0,0.0,0.0,0.0,0.0,0.0,0.0,0.0,0.0,0.0,0.0,0.0,0.0,0.0,0.0,0.0,0.0,0.0,0.0,0.0,0.0,0.0,0.0,0.0,0.0,0.0,0.0,0.0,0.0,0.0,0.0,0.0,0.0,0.0,0.0,0.0,0.0,0.0,0.0,0.0,0.0,0.0,0.0,0.0,0.0,0.0,0.0,0.0,0.0,0.0,0.0,0.0,0.0,0.0,0.0,0.0,0.0,0.0,0.0,0.0,0.0,0.0,0.0,0.0,0.0,0.0,0.0,0.0,0.0,0.0,0.0,0.0,0.0,0.0,0.0,0.0,0.0,0.0,0.0,0.0,0.0,0.0,0.0,0.0,0.0,0.0,0.0,0.0,0.0,0.0,0.0,0.0,0.0,0.0,0.0,0.0,0.0,0.0,0.0,0.0,0.0,0.0,0.0,0.0,0.0,0.0,0.0,0.0,0.0,0.0,0.0,0.0,0.0,0.0,0.0,0.0,0.0,0.0,0.0,0.0,0.0,0.0,0.0,0.0,0.0,0.0,0.0,0.0,0.0,0.0,0.0,0.0,0.0,0.0,0.0,0.0,0.0,0.0,0.0,0.0,0.0,0.0,0.0,0.0,0.0,0.0,0.0,0.0,0.0,0.0,0.0,0.0,0.0,0.0,0.0,0.0,0.0,0.0,0.0,0.0,0.0,0.0,0.0,0.0,0.0,0.0,0.0,0.0,0.0,0.0,0.0,0.0,0.0,0.0,0.0,0.0,0.0,0.0,0.0,0.0,0.0,0.0,0.0,0.0,0.0,0.0,0.0,0.0,0.0,0.0,0.0,0.0,0.0,0.0,0.0,0.0,0.0,0.0,0.0,0.0,0.0,0.0,0.0,0.0,0.0,0.0,0.0,0.0,0.0,0.0,0.0,0.0,0.0,0.0,0.0,0.0,0.0,0.0,0.0,0.0,0.0,0.0,0.0,0.0,0.0,0.0,0.0,0.0,0.0,0.0,0.0,0.0,0.0,0.0,0.0,0.0,0.0,0.0,0.0,0.0,0.0,0.0,0.0,0.0,0.0,0.0,0.0,0.0,0.0,0.0,0.0,0.0,0.0,0.0,0.0,0.0,0.0,0.0,0.0,0.0,0.0,0.0,0.0,0.0,0.0,0.0,0.0,0.0,0.0,0.0,0.0,0.0,0.0,0.0,0.0,0.0,0.0,0.0,0.0,0.0,0.0,0.0,0.0,0.0,0.0,0.0,0.0,0.0,0.0,0.0,0.0,0.0,0.0,0.0,0.0,0.0,0.0,0.0,0.0,0.0,0.0,0.0,0.0,0.0,0.0,0.0,0.0,0.0,0.0,0.0,0.0,0.0,0.0,0.0,0.0,0.0,0.0,0.0,0.0,0.0,0.0,0.0,0.0,0.0,0.0,0.0,0.0,0.0,0.0,0.0,0.0,0.0,0.0,0.0,0.0,0.0,0.0,0.0,0.0,0.0,0.0,0.0,0.0,0.0,0.0,0.0,0.0,0.0,0.0,0.0,0.0,0.0,0.0,0.0,0.0,0.0,0.0,0.0,0.0,0.0,0.0,0.0,0.0,0.0,0.0,0.0,0.0,0.0,0.0,0.0,0.0,0.0,0.0,0.0,0.0,0.0,0.0,0.0,0.0,0.0,0.0,0.0,0.0,0.0,0.0,0.0,0.0,0.0,0.0,0.0,0.0,0.0,0.0,0.0,0.0,0.0,0.0,0.0,0.0,0.0,0.0,0.0,0.0,0.0,0.0,0.0,0.0,0.0,0.0,0.0,0.0,0.0,0.0,0.0,0.0,0.0,0.0,0.0,0.0,0.0,0.0,0.0,0.0,0.0,0.0,0.0,0.0,0.0,0.0,0.0,0.0,0.0,0.0,0.0,0.0,0.0,0.0,0.0,0.0,0.0,0.0,0.0,0.0,0.0,0.0,0.0,0.0,0.0,0.0,0.0,0.0,0.0,0.0,0.0,0.0,0.0,0.0,0.0,0.0,0.0,0.0,0.0,0.0,0.0,0.0,0.0,0.0,0.0,0.0,0.0,0.0,0.0,0.0,0.0,0.0,0.0,0.0,0.0,0.0,0.0,0.0,0.0,0.0,0.0,0.0,0.0,0.0,0.0,0.0,0.0,0.0,0.0,0.0,0.0,0.0,0.0,0.0,0.0,0.0,0.0,0.0,0.0,0.0,0.0,0.0,0.0,0.0,0.0,0.0,0.0,0.0,0.0,0.0,0.0,0.0,0.0,0.0,0.0,0.0,0.0,0.0,0.0,0.0,0.0,0.0,0.0,0.0,0.0,0.0,0.0,0.0,0.0,0.0,0.0,0.0,0.0,0.0,0.0,0.0,0.0,0.0,0.0,0.0,0.0,0.0,0.0,0.0,0.0,0.0,0.0,0.0,0.0,0.0,0.0,0.0,0.0,0.0,0.0,0.0,0.0,0.0,0.0,0.0,0.0,0.0,0.0,0.0,0.0,0.0,0.0,0.0,0.0,0.0,0.0,0.0,0.0,0.0,0.0,0.0,0.0,0.0,0.0,0.0,0.0,0.0,0.0,0.0,0.0,0.0,0.0,0.0,0.0,0.0,0.0,0.0,0.0,0.0,0.0,0.0,0.0,0.0,0.0,0.0,0.0,0.0,0.0,0.0,0.0,0.0,0.0,0.0,0.0,0.0,0.0,0.0,0.0,0.0,0.0,0.0,0.0,0.0,0.0,0.0,0.0,0.0,0.0,0.0,0.0,0.0,0.0,0.0,0.0,0.0,0.0,0.0,0.0,0.0,0.0,0.0,0.0,0.0,0.0,0.0,0.0,0.0,0.0,0.0,0.0,0.0,0.0,0.0,0.0,0.0,0.0,0.0,0.0,0.0,0.0,0.0,0.0,0.0,0.0,0.0,0.0,0.0,0.0,0.0,0.0,0.0,0.0,0.0,0.0,0.0,0.0,0.0,0.0,0.0,0.0,0.0,0.0,0.0,0.0,0.0,0.0,0.0,0.0,0.0,0.0,0.0,0.0,0.0,0.0,0.0,0.0,0.0,0.0,0.0,0.0,0.0,0.0,0.0,0.0,0.0,0.0,0.0,0.0,0.0,0.0,0.0,0.0,0.0,0.0,0.0,0.0,0.0,0.0,0.0,0.0,0.0,0.0,0.0,0.0,0.0,0.0,0.0,0.0,0.0,0.0,0.0,0.0,0.0,0.0,0.0,0.0,0.0,0.0,0.0,0.0,0.0,0.0,0.0,0.0,0.0,0.0,0.0,0.0,0.0,0.0,0.0,0.0,0.0,0.0,0.0,0.0,0.0,0.0,0.0,0.0,0.0,0.0,0.0,0.0,0.0,0.0,0.0,0.0,0.0,0.0,0.0,0.0,0.0,0.0,0.0,0.0,0.0,0.0,0.0,0.0,0.0,0.0,0.0,0.0,0.0,0.0,0.0,0.0,0.0,0.0,0.0,0.0,0.0,0.0,0.0,0.0,0.0,0.0,0.0,0.0,0.0,0.0,0.0,0.0,0.0,0.0,0.0,0.0,0.0,0.0,0.0,0.0,0.0,0.0,0.0,0.0,0.0,0.0,0.0,0.0,0.0,0.0,0.0,0.0,0.0,0.0,0.0,0.0,0.0,0.0,0.0,0.0,0.0,0.0,0.0,0.8596,0.0,0.0,0.0,0.0,0.0,0.0,0.0,0.0,0.0,0.0,0.0,0.0,0.0,0.0,0.0,0.0,0.0,0.0,0.0,0.0,0.0,0.0,0.0,0.0,0.0,0.0,0.0,0.0,0.0,0.0,0.0,0.0,0.0,0.0,0.0,0.0,0.0,0.0,0.0,0.0,0.0,0.0,0.0,0.0,0.0,0.0,0.0,0.0,0.0,0.0,0.0,0.0,0.0,0.0,0.0,0.0,0.0,0.0,0.0,0.0,0.0,0.0,0.0,0.0,0.0,0.0,0.0,0.0,0.0,0.0,0.0,0.0,0.0,0.0,0.0,0.0,0.0,0.0,0.0,0.0,0.0,0.0,0.0,0.0,0.0,0.0,0.0,0.0,0.0,0.0,0.0,0.0,0.0,0.0,0.0,0.0,0.0,0.0,0.0,0.0,0.0,0.0,0.0,0.0,0.0,0.0,0.0,0.0,0.0,0.0,0.9279,0.9306,0.9031,0.8802,0.8607,0.0,0.0,0.0,0.0,0.0,0.0,0.0,0.0,0.0,0.0,0.0,0.0,0.0,0.0,0.0,0.0,0.0,0.0,0.0,0.0,0.0,0.0,0.0,0.0,0.0,0.0,0.0,0.0,0.0,0.0,0.0,0.0,0.0,0.0,0.0,0.0,0.0,0.0,0.0,0.0,0.0,0.0,0.0,0.0,0.0,0.0,0.0,0.0,0.0,0.0,0.0,0.0,0.0,0.0,0.0,0.0,0.0,0.0,0.0,0.0,0.0,0.0,0.0,0.0,0.0,0.0,0.0,0.0,0.0,0.0,0.0,0.0,0.0,0.0,0.0,0.0,0.0,0.0,0.0,0.0,0.0,0.0,0.0,0.0,0.0,0.0,0.0,0.0,0.0,0.0,0.0,0.0,0.0,0.0,0.0,0.0,0.0,0.0,0.0,0.0,0.0,0.0,0.0,0.0,0.0,0.0,0.0,0.0,0.0,0.0,0.0,0.0,0.9111,0.8954,0.8781,0.0,0.0,0.0,0.0,0.0,0.0,0.0,0.0,0.0,0.0,0.0,0.0,0.0,0.0,0.0,0.0,0.0,0.0,0.0,0.0,0.0,0.0,0.0,0.0,0.0,0.0,0.0,0.0,0.0,0.0,0.0,0.0,0.0,0.0,0.0,0.0,0.0,0.0,0.0,0.0,0.0,0.0,0.0,0.0,0.0,0.0,0.0,0.0,0.0,0.0,0.0,0.0,0.0,0.0,0.0,0.0,0.0,0.0,0.0,0.0,0.0,0.0,0.0,0.0,0.0,0.0,0.0,0.0,0.0,0.0,0.0,0.0,0.0,0.0,0.0,0.0,0.0,0.0,0.0,0.0,0.0,0.0,0.0,0.0,0.0,0.0,0.0,0.0,0.0,0.0,0.0,0.0,0.0,0.0,0.0,0.0,0.0,0.0,0.0,0.0,0.0,0.0,0.0,0.0,0.0,0.0,0.0,0.0,0.0,0.0,0.9279,0.9217,0.9305,0.0,0.9316,0.0,0.0,0.0,0.0,0.0,0.0,0.0,0.0,0.0,0.0,0.0,0.0,0.0,0.0,0.0,0.0,0.0,0.0,0.0,0.0,0.0,0.0,0.0,0.0,0.0,0.0,0.0,0.0,0.0,0.0,0.0,0.0,0.0,0.0,0.0,0.0,0.0,0.0,0.0,0.0,0.0,0.0,0.0,0.0,0.0,0.0,0.0,0.0,0.0,0.0,0.0,0.0,0.0,0.0,0.0,0.0,0.0,0.0,0.0,0.0,0.0,0.0,0.0,0.0,0.0,0.0,0.0,0.0,0.0,0.0,0.0,0.0,0.0,0.0,0.0,0.0,0.0,0.0,0.0,0.0,0.0,0.0,0.0,0.0,0.0,0.0,0.0,0.0,0.0,0.0,0.0,0.0,0.0,0.0,0.0,0.0,0.0,0.0,0.0,0.0,0.0,0.0,0.0,0.0,0.0,0.0,0.0,0.0,0.0,0.0,0.9674,0.9614,0.9666,0.9606,0.0,0.0,0.0,0.0,0.0,0.0,0.0,0.0,0.0,0.0,0.0,0.0,0.0,0.0,0.0,0.0,0.0,0.0,0.0,0.0,0.0,0.0,0.0,0.0,0.0,0.0,0.0,0.0,0.0,0.0,0.0,0.0,0.0,0.0,0.0,0.0,0.0,0.0,0.0,0.0,0.0,0.0,0.0,0.0,0.0,0.0,0.0,0.0,0.0,0.0,0.0,0.0,0.0,0.0,0.0,0.0,0.0,0.0,0.0,0.0,0.0,0.0,0.0,0.0,0.0,0.0,0.0,0.0,0.0,0.0,0.0,0.0,0.0,0.0,0.0,0.0,0.0,0.0,0.0,0.0,0.0,0.0,0.0,0.0,0.0,0.0,0.0,0.0,0.0,0.0,0.0,0.0,0.0,0.0,0.0,0.0,0.0,0.0,0.0,0.0,0.0,0.0,0.0,0.0,0.0,0.0,0.0,0.0,0.0,0.0,1.0017,1.0193,1.0128,1.0089,0.9942,0.9689,0.0,0.0,0.0,0.0,0.0,0.0,0.0,0.0,0.0,0.0,0.0,0.0,0.0,0.0,0.0,0.0,0.0,0.0,0.0,0.0,0.0,0.0,0.0,0.0,0.0,0.0,0.0,0.0,0.0,0.0,0.0,0.0,0.0,0.0,0.0,0.0,0.0,0.0,0.0,0.0,0.0,0.0,0.0,0.0,0.0,0.0,0.0,0.0,0.0,0.0,0.0,0.0,0.0,0.0,0.0,0.0,0.0,0.0,0.0,0.0,0.0,0.0,0.0,0.0,0.0,0.0,0.0,0.0,0.0,0.0,0.0,0.0,0.0,0.0,0.0,0.0,0.0,0.0,0.0,0.0,0.0,0.0,0.0,0.0,0.0,0.0,0.0,0.0,0.0,0.0,0.0,0.0,0.0,0.0,0.0,0.0,0.0,0.0,0.0,0.0,0.0,0.0,0.0,0.0,0.0,0.0,0.0,0.0,1.0245,1.0597,1.0728,1.0681,1.0546,1.0437,0.0,0.0,0.0,0.0,0.0,0.0,0.0,0.0,0.0,0.0,0.0,0.0,0.0,0.0,0.0,0.0,0.0,0.0,0.0,0.0,0.0,0.0,0.0,0.0,0.0,0.0,0.0,0.0,0.0,0.0,0.0,0.0,0.0,0.0,0.0,0.0,0.0,0.0,0.0,0.0,0.0,0.0,0.0,0.0,0.0,0.0,0.0,0.0,0.0,0.0,0.0,0.0,0.0,0.0,0.0,0.0,0.0,0.0,0.0,0.0,0.0,0.0,0.0,0.0,0.0,0.0,0.0,0.0,0.0,0.0,0.0,0.0,0.0,0.0,0.0,0.0,0.0,0.0,0.0,0.0,0.0,0.0,0.0,0.0,0.0,0.0,0.0,0.0,0.0,0.0,0.0,0.0,0.0,0.0,0.0,0.0,0.0,0.0,0.0,0.0,0.0,0.0,0.0,0.0,0.0,0.0,0.0,0.0,0.0,1.0677,1.0924,1.1078,1.1147,1.0975,1.0732,0.0,0.0,0.0,0.0,0.0,0.0,0.0,0.0,0.0,0.0,0.0,0.0,0.0,0.0,0.0,0.0,0.0,0.0,0.0,0.0,0.0,0.0,0.0,0.0,0.0,0.0,0.0,0.0,0.0,0.0,0.0,0.0,0.0,0.0,0.0,0.0,0.0,0.0,0.0,0.0,0.0,0.0,0.0,0.0,0.0,0.0,0.0,0.0,0.0,0.0,0.0,0.0,0.0,0.0,0.0,0.0,0.0,0.0,0.0,0.0,0.0,0.0,0.0,0.0,0.0,0.0,0.0,0.0,0.0,0.0,0.0,0.0,0.0,0.0,0.0,0.0,0.0,0.0,0.0,0.0,0.0,0.0,0.0,0.0,0.0,0.0,0.0,0.0,0.0,0.0,0.0,0.0,0.0,0.0,0.0,0.0,0.0,0.0,0.0,0.0,0.0,0.0,0.0,0.0,0.0,0.0,0.0,0.0,0.0,1.1299,0.0,1.1371,1.1333,1.1096,1.0764,0.0,0.0,0.0,0.0,0.0,0.0,0.0,0.0,0.0,0.0,0.0,0.0,0.0,0.0,0.0,0.0,0.0,0.0,0.0,0.0,0.0,0.0,0.0,0.0,0.0,0.0,0.0,0.0,0.0,0.0,0.0,0.0,0.0,0.0,0.0,0.0,0.0,0.0,0.0,0.0,0.0,0.0,0.0,0.0,0.0,0.0,0.0,0.0,0.0,0.0,0.0,0.0,0.0,0.0,0.0,0.0,0.0,0.0,0.0,0.0,0.0,0.0,0.0,0.0,0.0,0.0,0.0,0.0,0.0,0.0,0.0,0.0,0.0,0.0,0.0,0.0,0.0,0.0,0.0,0.0,0.0,0.0,0.0,0.0,0.0,0.0,0.0,0.0,0.0,0.0,0.0,0.0,0.0,0.0,0.0,0.0,0.0,0.0,0.0,0.0,0.0,0.0,0.0,0.0,0.0,0.0,0.0,0.0,1.1788,1.2148,1.1909,1.161,1.1219,1.0899,1.0544,0.0,0.0,0.0,0.0,0.0,0.0,0.0,0.0,0.0,0.0,0.0,0.0,0.0,0.0,0.0,0.0,0.0,0.0,0.0,0.0,0.0,0.0,0.0,0.0,0.0,0.0,0.0,0.0,0.0,0.0,0.0,0.0,0.0,0.0,0.0,0.0,0.0,0.0,0.0,0.0,0.0,0.0,0.0,0.0,0.0,0.0,0.0,0.0,0.0,0.0,0.0,0.0,0.0,0.0,0.0,0.0,0.0,0.0,0.0,0.0,0.0,0.0,0.0,0.0,0.0,0.0,0.0,0.0,0.0,0.0,0.0,0.0,0.0,0.0,0.0,0.0,0.0,0.0,0.0,0.0,0.0,0.0,0.0,0.0,0.0,0.0,0.0,0.0,0.0,0.0,0.0,0.0,0.0,0.0,0.0,0.0,0.0,0.0,0.0,0.0,0.0,0.0,0.0,0.0,0.0,0.0,0.0,0.0,0.0,1.2393,1.2193,1.1834,1.1353,1.1185,1.0775,0.0,0.0,0.0,0.0,0.0,0.0,0.0,0.0,0.0,0.0,0.0,0.0,0.0,0.0,0.0,0.0,0.0,0.0,0.0,0.0,0.0,0.0,0.0,0.0,0.0,0.0,0.0,0.0,0.0,0.0,0.0,0.0,0.0,0.0,0.0,0.0,0.0,0.0,0.0,0.0,0.0,0.0,0.0,0.0,0.0,0.0,0.0,0.0,0.0,0.0,0.0,0.0,0.0,0.0,0.0,0.0,0.0,0.0,0.0,0.0,0.0,0.0,0.0,0.0,0.0,0.0,0.0,0.0,0.0,0.0,0.0,0.0,0.0,0.0,0.0,0.0,0.0,0.0,0.0,0.0,0.0,0.0,0.0,0.0,0.0,0.0,0.0,0.0,0.0,0.0,0.0,0.0,0.0,0.0,0.0,0.0,0.0,0.0,0.0,0.0,0.0,0.0,0.0,0.0,0.0,0.0,0.0,0.0,0.0,1.2724,1.2468,1.2076,1.1519,1.1351,1.0904,1.0116,0.0,0.0,0.0,0.0,0.0,0.0,0.0,0.0,0.0,0.0,0.0,0.0,0.0,0.0,0.0,0.0,0.0,0.0,0.0,0.0,0.0,0.0,0.0,0.0,0.0,0.0,0.0,0.0,0.0,0.0,0.0,0.0,0.0,0.0,0.0,0.0,0.0,0.0,0.0,0.0,0.0,0.0,0.0,0.0,0.0,0.0,0.0,0.0,0.0,0.0,0.0,0.0,0.0,0.0,0.0,0.0,0.0,0.0,0.0,0.0,0.0,0.0,0.0,0.0,0.0,0.0,0.0,0.0,0.0,0.0,0.0,0.0,0.0,0.0,0.0,0.0,0.0,0.0,0.0,0.0,0.0,0.0,0.0,0.0,0.0,0.0,0.0,0.0,0.0,0.0,0.0,0.0,0.0,0.0,0.0,0.0,0.0,0.0,0.0,0.0,0.0,0.0,0.0,0.0,0.0,0.0,0.0,0.0,1.3177,1.2847,1.2369,1.1731,1.1401,1.0905,0.0,0.0,0.0,0.0,0.0,0.0,0.0,0.0,0.0,0.0,0.0,0.0,0.0,0.0,0.0,0.0,0.0,0.0,0.0,0.0,0.0,0.0,0.0,0.0,0.0,0.0,0.0,0.0,0.0,0.0,0.0,0.0,0.0,0.0,0.0,0.0,0.0,0.0,0.0,0.0,0.0,0.0,0.0,0.0,0.0,0.0,0.0,0.0,0.0,0.0,0.0,0.0,0.0,0.0,0.0,0.0,0.0,0.0,0.0,0.0,0.0,0.0,0.0,0.0,0.0,0.0,0.0,0.0,0.0,0.0,0.0,0.0,0.0,0.0,0.0,0.0,0.0,0.0,0.0,0.0,0.0,0.0,0.0,0.0,0.0,0.0,0.0,0.0,0.0,0.0,0.0,0.0,0.0,0.0,0.0,0.0,0.0,0.0,0.0,0.0,0.0,0.0,0.0,0.0,0.0,0.0,0.0,0.0,0.0,1.4243,1.3793,1.3065,1.2036,1.1717,1.1257,0.0,0.0,0.0,0.0,0.0,0.0,0.0,0.0,0.0,0.0,0.0,0.0,0.0,0.0,0.0,0.0,0.0,0.0,0.0,0.0,0.0,0.0,0.0,0.0,0.0,0.0,0.0,0.0,0.0,0.0,0.0,0.0,0.0,0.0,0.0,0.0,0.0,0.0,0.0,0.0,0.0,0.0,0.0,0.0,0.0,0.0,0.0,0.0,0.0,0.0,0.0,0.0,0.0,0.0,0.0,0.0,0.0,0.0,0.0,0.0,0.0,0.0,0.0,0.0,0.0,0.0,0.0,0.0,0.0,0.0,0.0,0.0,0.0,0.0,0.0,0.0,0.0,0.0,0.0,0.0,0.0,0.0,0.0,0.0,0.0,0.0,0.0,0.0,0.0,0.0,0.0,0.0,0.0,0.0,0.0,0.0,0.0,0.0,0.0,0.0,0.0,0.0,0.0,0.0,0.0,0.0,0.0,0.0,1.4183,1.4447,1.4142,1.3589,1.2805,1.2112,1.1497,0.0,0.0,0.0,0.0,0.0,0.0,0.0,0.0,0.0,0.0,0.0,0.0,0.0,0.0,0.0,0.0,0.0,0.0,0.0,0.0,0.0,0.0,0.0,0.0,0.0,0.0,0.0,0.0,0.0,0.0,0.0,0.0,0.0,0.0,0.0,0.0,0.0,0.0,0.0,0.0,0.0,0.0,0.0,0.0,0.0,0.0,0.0,0.0,0.0,0.0,0.0,0.0,0.0,0.0,0.0,0.0,0.0,0.0,0.0,0.0,0.0,0.0,0.0,0.0,0.0,0.0,0.0,0.0,0.0,0.0,0.0,0.0,0.0,0.0,0.0,0.0,0.0,0.0,0.0,0.0,0.0,0.0,0.0,0.0,0.0,0.0,0.0,0.0,0.0,0.0,0.0,0.0,0.0,0.0,0.0,0.0,0.0,0.0,0.0,0.0,0.0,0.0,0.0,0.0,0.0,0.0,0.0,0.0,1.443,1.4214,1.4188,1.4042,1.3735,1.259,1.1728,0.0,0.0,0.0,0.0,0.0,0.0,0.0,0.0,0.0,0.0,0.0,0.0,0.0,0.0,0.0,0.0,0.0,0.0,0.0,0.0,0.0,0.0,0.0,0.0,0.0,0.0,0.0,0.0,0.0,0.0,0.0,0.0,0.0,0.0,0.0,0.0,0.0,0.0,0.0,0.0,0.0,0.0,0.0,0.0,0.0,0.0,0.0,0.0,0.0,0.0,0.0,0.0,0.0,0.0,0.0,0.0,0.0,0.0,0.0,0.0,0.0,0.0,0.0,0.0,0.0,0.0,0.0,0.0,0.0,0.0,0.0,0.0,0.0,0.0,0.0,0.0,0.0,0.0,0.0,0.0,0.0,0.0,0.0,0.0,0.0,0.0,0.0,0.0,0.0,0.0,0.0,0.0,0.0,0.0,0.0,0.0,0.0,0.0,0.0,0.0,0.0,0.0,0.0,0.0,0.0,0.0,0.0,0.0,1.4763,1.4955,1.4764,1.4454,1.4012,1.3004,1.2285,0.0,0.0,0.0,0.0,0.0,0.0,0.0,0.0,0.0,0.0,0.0,0.0,0.0,0.0,0.0,0.0,0.0,0.0,0.0,0.0,0.0,0.0,0.0,0.0,0.0,0.0,0.0,0.0,0.0,0.0,0.0,0.0,0.0,0.0,0.0,0.0,0.0,0.0,0.0,0.0,0.0,0.0,0.0,0.0,0.0,0.0,0.0,0.0,1.4741,0.0,0.0,0.0,0.0,0.0,0.0,0.0,0.0,0.0,0.0,0.0,0.0,0.0,0.0,0.0,0.0,0.0,0.0,0.0,0.0,0.0,0.0,0.0,0.0,0.0,0.0,0.0,0.0,0.0,0.0,0.0,0.0,0.0,0.0,0.0,0.0,0.0,0.0,0.0,0.0,0.0,0.0,0.0,0.0,0.0,0.0,0.0,0.0,0.0,0.0,0.0,0.0,0.0,0.0,0.0,0.0,0.0,0.0,0.0,1.4989,1.5093,1.5037,1.4802,1.4375,1.3501,1.2681,0.0,0.0,0.0,0.0,0.0,0.0,0.0,0.0,0.0,0.0,0.0,0.0,0.0,0.0,0.0,0.0,0.0,0.0,0.0,0.0,0.0,0.0,0.0,0.0,0.0,0.0,0.0,0.0,0.0,0.0,0.0,0.0,0.0,0.0,0.0,0.0,0.0,0.0,0.0,0.0,0.0,0.0,0.0,0.0,0.0,0.0,0.0,0.0,0.0,0.0,0.0,0.0,0.0,0.0,0.0,0.0,0.0,0.0,0.0,0.0,0.0,0.0,0.0,0.0,0.0,0.0,0.0,0.0,0.0,0.0,0.0,0.0,0.0,0.0,0.0,0.0,0.0,0.0,0.0,0.0,0.0,0.0,0.0,0.0,0.0,0.0,0.0,0.0,0.0,0.0,0.0,0.0,0.0,0.0,0.0,0.0,0.0,0.0,0.0,0.0,0.0,0.0,0.0,0.0,0.0,0.0,0.0,1.4596,1.5059,1.497,1.5103,1.5029,1.4642,1.3893,1.2976,1.1884,0.0,0.0,0.0,0.0,0.0,0.0,0.0,0.0,0.0,0.0,0.0,0.0,0.0,0.0,0.0,0.0,0.0,0.0,0.0,0.0,0.0,0.0,0.0,0.0,0.0,0.0,0.0,0.0,0.0,0.0,0.0,0.0,0.0,0.0,0.0,0.0,0.0,0.0,1.4309,1.5078,0.0,0.0,0.0,0.0,0.0,0.0,0.0,0.0,1.7879,0.0,0.0,0.0,0.0,0.0,0.0,0.0,0.0,0.0,0.0,0.0,0.0,0.0,0.0,0.0,0.0,0.0,0.0,0.0,0.0,0.0,0.0,0.0,0.0,0.0,0.0,0.0,0.0,0.0,0.0,0.0,0.0,0.0,0.0,0.0,0.0,0.0,0.0,0.0,0.0,0.0,0.0,0.0,0.0,0.0,0.0,0.0,0.0,0.0,0.0,0.0,0.0,0.0,0.0,0.0,0.0,1.4002,1.4517,1.4775,1.4745,1.5044,1.4911,1.4309,1.3776,1.3023,1.2031,0.0,0.0,0.0,0.0,0.0,0.0,0.0,0.0,0.0,0.0,0.0,0.0,0.0,0.0,0.0,0.0,0.0,0.0,0.0,0.0,0.0,0.0,0.0,0.0,0.0,0.0,0.0,0.0,0.0,0.0,0.0,0.0,0.0,0.0,0.0,0.0,0.0,0.0,0.0,1.6292,1.6867,0.0,0.0,0.0,0.0,0.0,0.0,0.0,0.0,1.7829,0.0,0.0,0.0,0.0,0.0,0.0,0.0,0.0,0.0,0.0,0.0,0.0,0.0,0.0,0.0,0.0,0.0,0.0,0.0,0.0,0.0,0.0,0.0,0.0,0.0,0.0,0.0,0.0,0.0,0.0,0.0,0.0,0.0,0.0,0.0,0.0,0.0,0.0,0.0,0.0,0.0,0.0,0.0,0.0,0.0,0.0,0.0,0.0,0.0,0.0,0.0,0.0,0.0,0.0,0.0,1.3859,1.4606,1.5011,1.5011,1.5157,1.5036,1.4556,1.388,1.3012,0.0,0.0,0.0,0.0,0.0,0.0,0.0,0.0,0.0,0.0,0.0,0.0,0.0,0.0,0.0,0.0,0.0,0.0,0.0,0.0,0.0,0.0,0.0,0.0,0.0,0.0,0.0,0.0,0.0,0.0,0.0,0.0,0.0,0.0,0.0,0.0,0.0,0.0,0.0,0.0,1.6865,1.7302,1.7569,0.0,0.0,0.0,0.0,0.0,0.0,1.9242,1.9311,0.0,0.0,0.0,0.0,0.0,0.0,0.0,0.0,0.0,0.0,0.0,0.0,0.0,0.0,0.0,0.0,0.0,0.0,0.0,0.0,0.0,0.0,0.0,0.0,0.0,0.0,0.0,0.0,0.0,0.0,0.0,0.0,0.0,0.0,0.0,0.0,0.0,0.0,0.0,0.0,0.0,0.0,0.0,0.0,0.0,0.0,0.0,0.0,0.0,0.0,0.0,0.0,0.0,0.0,0.0,1.3885,1.4778,1.5303,1.5368,1.5408,1.5247,1.4844,1.4031,1.3089,0.0,0.0,0.0,0.0,0.0,0.0,0.0,0.0,0.0,0.0,0.0,0.0,0.0,0.0,0.0,0.0,0.0,0.0,0.0,0.0,0.0,0.0,0.0,0.0,0.0,0.0,0.0,0.0,0.0,0.0,0.0,0.0,0.0,0.0,0.0,0.0,0.0,0.0,0.0,0.0,0.0,1.7796,1.805,1.8149,0.0,0.0,0.0,0.0,1.9847,2.0493,0.0,0.0,0.0,0.0,0.0,0.0,0.0,0.0,0.0,0.0,0.0,0.0,0.0,0.0,0.0,0.0,0.0,0.0,0.0,0.0,0.0,0.0,0.0,0.0,0.0,0.0,0.0,0.0,0.0,0.0,0.0,0.0,0.0,0.0,0.0,0.0,0.0,0.0,0.0,0.0,0.0,0.0,0.0,0.0,0.0,0.0,0.0,0.0,0.0,0.0,0.0,0.0,0.0,0.0,0.0,0.0,1.471,1.5001,1.5292,1.5629,1.5759,1.545,1.4658,1.412,1.3268,0.0,0.0,0.0,0.0,0.0,0.0,0.0,0.0,0.0,0.0,0.0,0.0,0.0,0.0,0.0,0.0,0.0,0.0,0.0,0.0,0.0,0.0,0.0,0.0,0.0,0.0,0.0,0.0,0.0,0.0,0.0,0.0,0.0,0.0,0.0,0.0,0.0,0.0,0.0,0.0,0.0,1.8914,1.97,2.0001,2.0171,0.0,0.0,2.0818,2.0832,2.0842,0.0,0.0,0.0,0.0,0.0,0.0,0.0,0.0,0.0,0.0,0.0,0.0,0.0,0.0,0.0,0.0,0.0,0.0,0.0,0.0,0.0,0.0,0.0,0.0,0.0,0.0,0.0,0.0,0.0,0.0,0.0,0.0,0.0,0.0,0.0,0.0,0.0,0.0,0.0,0.0,0.0,0.0,0.0,0.0,0.0,0.0,0.0,0.0,0.0,0.0,0.0,0.0,0.0,0.0,0.0,1.39,1.4724,1.5423,1.5872,1.6037,1.6096,1.5756,1.4964,1.4347,1.3425,0.0,0.0,0.0,0.0,0.0,0.0,0.0,0.0,0.0,0.0,0.0,0.0,0.0,0.0,0.0,0.0,0.0,0.0,0.0,0.0,0.0,0.0,0.0,0.0,0.0,0.0,0.0,0.0,0.0,0.0,0.0,0.0,0.0,0.0,0.0,0.0,0.0,0.0,0.0,0.0,0.0,0.0,2.0017,2.0314,0.0,0.0,0.0,2.1541,2.1304,0.0,0.0,0.0,0.0,0.0,0.0,0.0,0.0,0.0,0.0,0.0,0.0,0.0,0.0,0.0,0.0,0.0,0.0,0.0,0.0,0.0,0.0,0.0,0.0,0.0,0.0,0.0,0.0,0.0,0.0,0.0,0.0,0.0,0.0,0.0,0.0,0.0,0.0,0.0,0.0,0.0,0.0,0.0,0.0,0.0,0.0,0.0,0.0,0.0,0.0,0.0,0.0,0.0,0.0,0.0,0.0,0.0,1.4751,1.5732,1.6308,1.6451,1.6434,1.6071,1.5296,1.4689,0.0,0.0,0.0,0.0,0.0,0.0,0.0,0.0,0.0,0.0,0.0,0.0,0.0,0.0,0.0,0.0,0.0,0.0,0.0,0.0,0.0,0.0,0.0,0.0,0.0,0.0,0.0,1.2956,0.0,0.0,0.0,0.0,0.0,0.0,0.0,0.0,0.0,0.0,0.0,0.0,0.0,0.0,2.0161,2.0684,2.1008,2.125,0.0,0.0,2.2343,2.1922,2.2122,2.2084,0.0,0.0,0.0,0.0,0.0,0.0,0.0,0.0,0.0,0.0,0.0,0.0,0.0,0.0,0.0,0.0,0.0,0.0,0.0,0.0,0.0,0.0,0.0,0.0,0.0,0.0,0.0,0.0,0.0,0.0,0.0,0.0,0.0,0.0,0.0,0.0,0.0,0.0,0.0,0.0,0.0,0.0,0.0,0.0,0.0,0.0,0.0,0.0,0.0,0.0,0.0,0.0,0.0,0.0,0.0,1.5126,1.5736,1.63,1.6844,1.6854,1.6428,1.5506,1.5235,1.4325,0.0,0.0,0.0,0.0,0.0,0.0,0.0,0.0,0.0,0.0,0.0,0.0,0.0,0.0,0.0,0.0,0.0,0.0,0.0,0.0,0.0,0.0,0.0,0.0,0.0,0.0,0.0,0.0,0.0,0.0,0.0,0.0,0.0,0.0,0.0,0.0,0.0,0.0,0.0,0.0,0.0,2.1584,2.2424,2.2914,2.3029,0.0,0.0,2.3352,2.2865,2.2468,2.2117,2.1868,0.0,0.0,0.0,0.0,0.0,0.0,0.0,0.0,0.0,0.0,0.0,0.0,0.0,0.0,0.0,0.0,0.0,0.0,0.0,0.0,0.0,0.0,0.0,0.0,0.0,0.0,0.0,0.0,0.0,0.0,0.0,0.0,0.0,0.0,0.0,0.0,0.0,0.0,0.0,0.0,0.0,0.0,0.0,0.0,0.0,0.0,0.0,0.0,0.0,0.0,0.0,0.0,0.0,1.4528,1.5559,1.6086,1.6528,1.6882,1.702,1.6743,1.5999,1.5615,1.4768,0.0,0.0,0.0,0.0,0.0,0.0,0.0,0.0,0.0,0.0,0.0,0.0,0.0,0.0,0.0,0.0,0.0,0.0,0.0,0.0,0.0,0.0,0.0,0.0,0.0,0.0,0.0,0.0,1.4534,1.4888,1.4987,0.0,0.0,0.0,0.0,0.0,0.0,0.0,0.0,0.0,0.0,2.1777,2.2805,2.3278,0.0,0.0,2.3686,2.3685,2.3208,2.2829,2.236,2.1693,2.1383,0.0,0.0,0.0,0.0,0.0,0.0,0.0,0.0,0.0,0.0,0.0,0.0,0.0,0.0,0.0,0.0,0.0,0.0,0.0,0.0,0.0,0.0,0.0,0.0,0.0,0.0,0.0,0.0,0.0,0.0,0.0,0.0,0.0,0.0,0.0,0.0,0.0,0.0,0.0,0.0,0.0,0.0,0.0,0.0,0.0,0.0,0.0,0.0,0.0,0.0,0.0,0.0,1.476,1.5706,1.6375,1.6808,1.6995,1.7245,1.7093,1.6522,1.6117,1.5382,0.0,0.0,0.0,0.0,0.0,0.0,0.0,0.0,0.0,0.0,0.0,0.0,0.0,0.0,0.0,0.0,0.0,0.0,0.0,0.0,0.0,0.0,0.0,0.0,0.0,0.0,0.0,0.0,1.52,1.5544,1.5672,0.0,0.0,0.0,0.0,0.0,0.0,0.0,0.0,0.0,0.0,2.2177,2.3117,2.3705,2.4022,2.3924,2.3969,2.3873,2.3484,2.3036,2.2506,2.1854,0.0,0.0,0.0,0.0,0.0,0.0,0.0,0.0,0.0,0.0,0.0,0.0,0.0,0.0,0.0,0.0,0.0,0.0,0.0,0.0,0.0,0.0,0.0,0.0,0.0,0.0,0.0,0.0,0.0,0.0,1.3434,0.0,0.0,0.0,0.0,0.0,0.0,0.0,0.0,0.0,0.0,0.0,0.0,0.0,0.0,0.0,0.0,0.0,0.0,0.0,0.0,0.0,0.0,1.4609,1.5512,1.6502,1.7071,1.7213,1.7577,1.7496,1.6921,1.6871,1.6281,1.5014,0.0,0.0,0.0,0.0,0.0,0.0,0.0,0.0,0.0,0.0,0.0,0.0,0.0,0.0,0.0,0.0,0.0,0.0,0.0,0.0,0.0,0.0,0.0,0.0,0.0,0.0,1.5585,1.6083,1.6405,0.0,0.0,0.0,0.0,0.0,0.0,0.0,0.0,0.0,0.0,2.2284,2.2963,2.3526,2.4434,2.4674,2.3845,2.3941,2.3993,2.373,2.3036,2.2532,0.0,0.0,0.0,0.0,0.0,0.0,0.0,0.0,0.0,0.0,0.0,0.0,0.0,0.0,0.0,0.0,0.0,0.0,0.0,0.0,0.0,0.0,0.0,0.0,0.0,0.0,0.0,1.419,1.424,0.0,0.0,0.0,0.0,0.0,0.0,0.0,0.0,0.0,0.0,0.0,1.4266,1.4416,0.0,0.0,0.0,0.0,0.0,0.0,0.0,0.0,0.0,0.0,0.0,0.0,1.5575,1.6306,1.6978,1.7476,1.7788,1.7919,1.79,1.7696,1.7264,1.6424,1.518,0.0,0.0,0.0,0.0,0.0,0.0,0.0,0.0,0.0,0.0,0.0,0.0,0.0,0.0,0.0,0.0,0.0,0.0,0.0,0.0,0.0,0.0,0.0,0.0,0.0,1.5835,0.0,0.0,0.0,0.0,0.0,0.0,0.0,0.0,0.0,0.0,0.0,2.123,2.2267,2.2932,2.3593,2.4234,2.4219,2.4124,0.0,0.0,0.0,0.0,0.0,0.0,0.0,0.0,0.0,0.0,0.0,0.0,0.0,0.0,2.2242,2.1536,2.139,2.1451,2.1572,0.0,0.0,0.0,0.0,0.0,0.0,0.0,0.0,0.0,0.0,0.0,0.0,0.0,0.0,0.0,0.0,1.5148,0.0,0.0,0.0,0.0,0.0,0.0,0.0,0.0,1.5171,1.5316,1.5368,1.5523,1.554,0.0,1.5708,1.5296,0.0,0.0,0.0,0.0,0.0,0.0,0.0,0.0,1.6117,1.6764,1.739,1.7843,1.8091,1.8386,1.8406,1.8183,1.7543,1.6834,1.6066,1.5693,1.5365,0.0,0.0,0.0,0.0,0.0,0.0,0.0,0.0,0.0,0.0,0.0,0.0,0.0,0.0,0.0,0.0,0.0,0.0,0.0,0.0,0.0,0.0,0.0,1.6558,0.0,0.0,0.0,0.0,0.0,0.0,0.0,0.0,0.0,1.9829,2.0592,2.1492,2.2506,2.2988,2.3474,2.3938,0.0,0.0,0.0,0.0,0.0,0.0,0.0,2.3448,2.3233,2.3237,2.3143,2.2874,2.3115,2.3392,2.3528,0.0,0.0,2.2369,2.2155,2.2246,2.2548,2.3029,2.3482,2.3807,2.4294,2.4664,0.0,0.0,0.0,0.0,0.0,0.0,0.0,0.0,1.7173,1.7138,0.0,1.6967,0.0,0.0,0.0,0.0,0.0,0.0,0.0,0.0,1.6431,1.6788,1.6638,1.68,1.6806,1.6617,1.6627,1.6517,1.6289,1.5732,0.0,0.0,0.0,0.0,0.0,0.0,1.6216,1.6918,1.7709,1.8121,1.8164,1.8901,1.8984,1.8336,1.776,1.7484,1.7559,1.6901,1.6416,1.6116,1.5855,0.0,0.0,0.0,0.0,0.0,0.0,0.0,0.0,0.0,0.0,0.0,0.0,0.0,0.0,0.0,0.0,0.0,0.0,0.0,0.0,1.6545,0.0,0.0,0.0,0.0,0.0,0.0,0.0,0.0,0.0,0.0,2.0461,2.0516,2.093,2.2142,0.0,0.0,0.0,0.0,2.3486,2.3507,2.3346,2.3472,2.4064,2.3974,2.3879,2.4068,0.0,0.0,2.4635,2.4675,2.4787,2.5275,2.5273,2.4952,2.353,2.33,2.3457,2.388,2.4378,2.4888,2.5406,2.5791,2.6179,1.7388,0.0,0.0,0.0,0.0,1.7369,1.7393,1.7477,1.7393,1.7246,1.7041,1.6901,0.0,0.0,0.0,0.0,0.0,0.0,1.618,1.649,1.6646,1.6807,1.7025,1.7071,1.7094,1.7046,1.7185,1.7142,1.6946,1.6781,1.6324,1.561,0.0,0.0,0.0,0.0,1.6904,1.7163,1.8053,1.8608,1.8737,1.9114,1.9068,1.8539,1.8356,1.8056,1.7635,1.7548,1.7223,1.6634,1.6354,0.0,0.0,0.0,0.0,0.0,0.0,0.0,0.0,0.0,0.0,0.0,0.0,0.0,0.0,0.0,0.0,0.0,0.0,0.0,1.7227,1.7656,1.7949,0.0,0.0,0.0,0.0,0.0,0.0,0.0,0.0,0.0,2.1422,2.1839,2.2118,0.0,0.0,2.3118,2.3429,2.3213,2.3119,2.3465,0.0,0.0,0.0,2.4156,2.4328,2.4369,2.4445,2.4526,2.4555,2.464,2.4745,2.4904,2.501,2.5002,2.4872,2.4869,2.5045,2.535,2.5527,2.5711,2.5991,2.6224,2.6318,1.8403,1.834,1.8093,1.8014,1.8033,1.8014,1.8014,1.8024,1.7953,1.7811,1.7636,1.747,1.7268,1.7018,1.6743,0.0,0.0,0.0,1.7119,1.7567,1.7621,1.776,1.7999,1.8008,1.7999,1.8008,1.8118,1.8067,1.784,1.7666,1.7287,1.6665,0.0,0.0,1.6135,1.673,1.7158,1.74,1.8089,1.8571,1.8862,1.909,1.9051,1.8765,1.8571,1.8303,1.7876,1.7878,1.7708,1.7349,1.6885,1.6494,0.0,0.0,0.0,0.0,0.0,0.0,0.0,0.0,0.0,0.0,0.0,1.5521,0.0,0.0,0.0,0.0,1.6982,1.7651,1.8235,1.8497,0.0,0.0,0.0,0.0,0.0,0.0,0.0,2.0539,2.0909,2.1382,2.2072,2.2665,2.293,2.2711,2.3016,2.336,2.3645,0.0,2.3135,2.3595,2.3794,2.396,2.4136,2.4483,2.4838,2.5035,2.5056,2.5065,2.5054,2.5123,2.5202,2.5282,2.5383,2.5554,2.5825,2.5995,2.6074,2.6177,2.6209,2.6286,2.6577,2.6655,2.6636,1.929,1.9674,1.9129,1.8835,1.8807,1.8909,1.8909,1.8798,1.8798,1.8732,1.863,1.8453,1.8257,1.8003,1.7532,0.0,1.7581,1.7883,1.8215,1.8598,1.8986,1.9149,1.917,1.917,1.917,1.9162,1.9179,1.905,1.8758,1.8393,1.8177,1.8064,1.7156,1.6854,1.718,1.6971,1.7128,1.7702,1.7918,1.8256,1.8752,1.8932,1.9023,1.8977,1.8548,1.8311,1.8272,1.8035,1.7958,1.8071,1.7457,1.708,1.7022,0.0,0.0,0.0,0.0,0.0,0.0,0.0,0.0,0.0,0.0,0.0,0.0,0.0,0.0,0.0,1.7635,0.0,1.9171,1.9148,0.0,0.0,0.0,1.975,1.975,2.061,2.1155,2.1058,0.0,0.0,2.2519,0.0,2.3442,2.3188,2.3345,2.3497,2.3519,2.3398,2.3422,2.3877,2.395,2.4084,2.4415,2.4829,2.5253,2.5642,2.5833,2.5757,2.5757,2.5757,2.5894,2.6064,2.618,2.6307,2.6579,2.6653,2.6663,2.6651,2.6548,2.6648,2.6975,2.7058,2.7005,1.8753,1.9037,1.8881,1.9108,1.953,1.9563,1.9563,1.9551,1.953,1.9351,1.9055,1.9006,1.8753,1.8386,1.8243,1.8194,1.8204,1.8265,1.8357,1.8461,1.8544,1.8689,1.8899,1.8899,1.8891,1.8878,1.8891,1.8762,1.85,1.8395,1.8266,1.8089,1.7659,1.7411,1.7363,1.727,1.7402,1.7704,1.7999,1.8486,1.9112,1.9346,1.9238,1.8794,1.867,1.8432,1.8098,1.8012,1.8012,1.8096,1.7946,1.7743,1.7539,1.7337,0.0,0.0,0.0,0.0,0.0,0.0,0.0,0.0,0.0,1.7106,1.7464,0.0,1.8068,0.0,1.8511,1.8931,1.9452,1.9856,0.0,0.0,2.0935,2.1108,2.1119,2.1638,2.2077,2.2255,2.2708,2.3064,2.3228,2.3573,2.3774,2.37,2.3441,2.3389,2.3732,2.3784,2.3898,2.4249,2.4343,2.4405,2.4529,2.4764,2.5094,2.5306,2.538,2.5348,2.5348,2.5348,2.5487,2.5862,2.6141,2.6476,2.702,2.7292,2.7487,2.7555,2.7087,2.6601,2.6725,2.6759,2.6738,1.8907,1.9162,1.9154,1.9375,1.9715,1.9652,1.9602,1.9623,1.9623,1.9445,1.9131,1.8933,1.8689,1.8465,1.8473,1.8529,1.8644,1.866,1.8773,1.8938,1.9094,1.9236,1.9365,1.9531,1.9606,1.9606,1.9614,1.9461,1.9195,1.904,1.8876,1.8667,1.8253,1.7987,1.7867,1.7461,1.7328,1.7561,1.7983,1.8506,1.9102,1.9272,1.9003,1.8323,1.8471,1.8303,1.7817,1.7906,1.8059,1.8194,1.8123,1.8038,1.7872,1.7765,1.7812,0.0,0.0,0.0,0.0,0.0,0.0,0.0,0.0,0.0,0.0,0.0,1.8908,0.0,1.9717,2.0101,2.0658,2.0908,2.1223,2.1715,2.2048,2.2302,2.2502,2.2868,2.3164,2.3317,2.3475,2.3702,2.4042,2.4199,2.4378,2.4574,2.4292,2.4067,2.4146,2.4178,2.4249,2.4477,2.4507,2.4644,2.4928,2.5111,2.5357,2.5742,2.5828,2.5828,2.5806,2.5806,2.5923,2.6158,2.6342,2.6538,2.6907,2.7105,2.7249,2.7261,2.6976,2.6808,2.7159,2.7222,2.7201,1.9307,1.9561,1.9512,1.9496,1.9492,1.9448,1.9432,1.9411,1.9441,1.9333,1.9134,1.8727,1.854,1.851,1.8559,1.8742,1.9068,1.9095,1.9292,1.9644,1.9939,2.0071,2.0087,2.0375,2.0507,2.0499,2.0499,2.0386,2.0135,1.9877,1.9637,1.9399,1.8855,1.8543,1.8474,1.7597,1.729,1.7514,1.8006,1.8472,1.8887,1.8967,1.8614,1.7866,1.8202,1.8132,1.7542,1.7803,1.8076,1.831,1.8217,1.8167,1.8232,1.8017,1.7973,0.0,1.8342,0.0,0.0,0.0,0.0,0.0,0.0,0.0,0.0,1.9026,1.9471,2.0456,2.093,2.1462,2.2144,2.2061,2.2187,2.2731,2.3002,2.3286,2.3661,2.3942,2.4115,2.4139,2.4239,2.442,2.4761,2.4838,2.5015,2.5289,2.5151,2.4868,2.4652,2.4607,2.4659,2.4619,2.4651,2.4977,2.5465,2.5604,2.5806,2.6353,2.6407,2.6503,2.6428,2.6438,2.6492,2.6567,2.6598,2.6665,2.6707,2.6794,2.6817,2.6905,2.6895,2.7056,2.7525,2.7645,2.7767,1.9154,1.9413,1.9094,1.8951,1.8974,1.9442,1.9606,1.9576,1.9576,1.9554,1.9509,1.9395,1.9251,1.9078,1.9316,1.9401,1.9326,1.959,1.9774,1.9846,1.991,1.9934,1.9942,2.0006,2.0038,2.0038,2.003,2.0014,1.9941,1.9902,1.9716,1.9474,1.909,1.8783,1.8578,0.0,0.0,0.0,1.8499,1.8774,1.8896,1.8967,1.8614,1.7839,1.8193,0.0,1.7544,1.7674,1.7971,1.8421,1.8452,0.0,0.0,0.0,0.0,0.0,0.0,0.0,0.0,0.0,0.0,0.0,2.1107,2.0888,2.0533,2.0834,2.114,2.1349,2.1448,2.187,2.2761,2.2802,2.304,2.3746,2.3863,2.3871,2.38,2.3983,2.4189,2.4409,2.4567,2.4768,2.4996,2.5055,2.5068,2.5201,2.5136,2.5075,2.4992,2.5145,2.529,2.5323,2.543,2.5649,2.582,2.5863,2.5927,2.6033,2.6043,2.6087,2.6107,2.6085,2.621,2.6535,2.68,2.7018,2.7321,2.7579,2.7609,2.7721,2.7698,2.7555,2.6998,2.6871,2.6849,1.9108,0.0,1.905,1.894,0.0,1.9271,1.9375,1.9383,1.9738,1.9848,1.9754,1.9754,1.9675,1.9557,1.9734,1.9758,1.9646,1.9813,1.9909,1.99,2.0067,2.0155,2.0155,2.033,2.0384,2.0384,2.0409,2.0409,2.0401,2.0226,2.0073,1.9933,1.9603,1.9438,1.9446,1.9186,1.8976,1.8762,1.8838,1.8941,1.9035,1.9088,1.8674,1.7859,0.0,0.0,0.0,0.0,0.0,0.0,0.0,0.0,0.0,0.0,0.0,2.0026,2.0142,2.0386,2.0839,2.1268,2.1654,2.1962,2.2415,2.228,2.133,2.1788,2.2147,2.2158,2.2459,2.2878,2.333,2.3395,2.3636,2.4214,2.4189,2.4215,2.4556,2.4523,2.4597,2.491,2.4954,2.5055,2.5417,2.5318,2.5348,2.5551,2.546,2.5379,2.5383,2.5314,2.5328,2.5475,2.5727,2.598,2.621,2.6273,2.6343,2.6532,2.6581,2.6604,2.6581,2.6476,2.6475,2.6714,2.6766,2.6814,2.6989,2.718,2.7241,2.7251,2.7251,2.7138,2.6674,2.6938,2.7306,1.9136,1.9185,1.9124,1.9109,1.9109,1.9163,1.9216,1.9311,0.0,0.0,0.0,1.9868,1.9909,1.9892,1.9956,1.998,1.9988,2.0044,2.0067,2.0091,2.0353,2.0488,2.0496,2.0782,2.0899,2.0899,2.0899,2.0899,2.0883,2.0623,2.048,2.0456,2.018,2.0159,2.0362,2.0307,2.0026,1.9536,1.922,1.9172,1.9338,1.9309,1.8883,1.8055,1.8554,1.8653,1.823,1.8234,1.8412,1.876,1.9088,1.9352,1.9554,1.9872,2.0078,2.0167,2.0411,2.0591,2.0702,2.1447,2.2064,2.2493,2.3233,2.3207,2.2049,2.2546,2.2894,2.2886,2.3449,2.3809,2.3854,2.3864,2.4057,2.4503,2.4347,2.4565,2.5249,2.5072,2.4946,2.5371,2.5246,2.5288,2.5671,2.5589,2.5579,2.5895,2.58,2.5708,2.5669,2.5482,2.5457,2.5698,2.6005,2.6207,2.6486,2.6623,2.6801,2.6975,2.7067,2.7143,2.7119,2.6986,2.6853,2.6768,2.6651,2.6544,2.6496,2.6568,2.6496,2.6496,2.6496,2.6496,2.6568,2.7146,2.7626,1.9328,1.9514,1.9224,1.9109,1.91,1.9414,1.9689,1.9913,1.9685,1.9576,1.9576,1.9787,1.9909,1.9933,2.0178,2.0321,2.0337,2.0631,2.0748,0.0,2.0796,2.0845,2.082,2.0867,2.0899,2.0899,2.0899,2.0899,2.0891,2.0843,2.082,2.0823,2.0738,2.0671,2.0661,2.0852,2.0913,2.0822,1.984,1.9547,1.9965,1.9806,1.9442,1.8886,1.9246,1.9199,1.8646,1.8782,1.9045,1.9446,1.9518,1.9607,1.9759,1.9829,2.001,2.042,2.084,2.1299,2.184,2.2357,2.2744,2.2987,2.3131,2.326,2.3486,2.358,2.3635,2.3626,2.3745,2.3866,2.4021,2.4064,2.4263,2.4675,2.4731,2.4825,2.5133,2.4977,2.4953,2.5391,2.523,2.5265,2.5628,2.5678,2.5673,2.5737,2.5732,2.5708,2.5703,2.5867,2.6066,2.6339,2.6588,2.669,2.6584,2.674,2.6775,2.662,2.664,2.6664,2.6688,2.6616,2.6544,2.6544,2.6496,2.6458,2.6448,2.6496,2.6448,2.6424,2.6424,2.6448,2.6424,2.6654,2.6832,1.9309,1.9397,1.9281,1.9213,1.9228,1.9378,1.9519,1.9683,1.9646,1.9679,1.9855,1.9955,1.9998,2.0039,2.0169,2.0323,2.0466,2.0623,2.0763,2.0899,2.0899,2.0899,2.0899,2.0899,2.0899,2.0899,2.0899,2.0899,2.0899,2.0899,2.0899,2.0909,2.1156,2.1345,2.1453,2.1564,2.1593,2.1576,2.1011,2.0606,2.0424,2.0589,2.0356,1.9678,2.0082,2.018,1.9907,1.9774,1.983,2.0085,2.0217,2.0387,2.0564,2.091,2.1192,2.1411,2.163,2.185,2.214,2.2695,2.3051,2.3134,2.3347,2.3574,2.3783,2.3701,2.3649,2.3628,2.3732,2.3947,2.4282,2.4302,2.4512,2.4931,2.4857,2.4924,2.5166,2.5079,2.5116,2.5485,2.5502,2.5508,2.5689,2.5708,2.5708,2.5708,2.5708,2.5684,2.5684,2.5805,2.5955,2.6245,2.652,2.6616,2.653,2.6578,2.6626,2.6496,2.6496,2.6496,2.6472,2.639,2.6294,2.6269,2.6193,2.6072,2.6072,2.6072,2.6072,2.6062,2.6072,2.6072,2.6072,2.6183,2.6366,1.9298,1.9298,1.9298,1.9298,1.9298,1.9298,1.9298,1.9324,1.9524,1.9732,1.9905,2.0053,2.0112,2.0112,2.0112,2.0215,2.0385,2.0411,2.0557,2.0796,2.0822,2.0887,2.0984,2.0992,2.105,2.1147,2.1155,2.1121,2.1163,2.1155,2.1207,2.1346,2.1745,2.2045,2.2316,2.2204,2.2173,2.2222,2.2181,2.1801,2.1079,2.1463,2.1319,2.0729,2.0967,2.1137,2.1036,2.0728,2.0642,2.08,2.1017,2.1194,2.1371,2.1848,2.2122,2.2132,2.2221,2.2289,2.2356,2.2767,2.3019,2.3029,2.3384,2.3632,2.3612,2.3619,2.3643,2.372,2.3898,2.4141,2.4478,2.4556,2.4724,2.5032,2.4964,2.5036,2.5388,2.5334,2.5356,2.565,2.5708,2.5698,2.5708,2.5708,2.5708,2.5708,2.5669,2.5611,2.5611,2.5611,2.5698,2.5917,2.6183,2.6352,2.6328,2.6376,2.6376,2.6352,2.6304,2.6255,2.6241,2.611,2.598,2.5917,2.5747,2.5611,2.5538,2.5513,2.5513,2.5504,2.5504,2.5528,2.5625,2.5771,2.6028,1.9298,1.9298,1.9298,1.9298,1.9298,1.9298,1.9298,1.9298,1.9324,1.9331,1.9428,1.9879,2.0078,2.0112,2.0086,2.0119,2.0153,2.0145,2.029,2.0545,2.0547,2.0841,2.1307,2.1375,2.1534,2.1833,2.1876,2.1825,2.1825,2.1876,2.214,2.256,2.2629,2.273,2.2937,2.2714,2.2677,2.2894,2.3158,2.2859,2.2123,2.2329,2.2299,2.1946,2.1963,2.1807,2.1535,2.1417,2.1512,2.1747,2.1799,2.1809,2.1829,2.1917,2.1936,2.1965,2.2267,2.2553,2.2717,2.2585,2.2517,2.2501,2.2898,2.3136,2.3136,2.3627,2.4075,2.4304,2.4402,2.4501,2.4719,2.4765,2.4875,2.5116,2.5104,2.5209,2.5571,2.565,2.5669,2.5689,2.5708,2.5708,2.5708,2.5708,2.5693,2.5669,2.5489,2.5367,2.5333,2.5333,2.5367,2.5479,2.5795,2.5989,2.5893,2.5989,2.6038,2.5868,2.5805,2.583,2.5805,2.5781,2.5684,2.5479,2.5372,2.526,2.5088,2.499,2.5015,2.5088,2.5088,2.5054,2.526,2.5382,2.5577,1.9298,1.9298,1.9298,1.9298,1.9298,1.9298,1.9298,1.9298,1.9298,1.9298,1.9324,1.9532,1.9628,1.9628,1.9628,1.9803,2.0148,2.0181,2.0393,2.0833,2.1007,2.1244,2.1442,2.1663,2.1857,2.1968,2.2011,2.2011,2.2011,2.2146,2.2432,2.279,2.2949,2.3215,2.3443,2.3471,2.3418,2.3295,2.3752,2.3578,2.2861,2.3003,2.3039,2.2856,2.2965,2.3083,2.2996,2.2674,2.2501,2.2565,2.2393,2.2202,2.2076,2.2308,2.2358,2.2239,2.2342,2.2585,2.2885,2.2824,2.2892,2.3148,2.3304,2.3413,2.3422,2.3666,2.3957,2.4313,2.4418,2.4565,2.4923,2.4968,2.5098,2.5385,2.5469,2.5513,2.5679,2.5708,2.5708,2.5708,2.5708,2.5708,2.5708,2.5708,2.5635,2.5513,2.5333,2.5235,2.5113,2.5064,2.5137,2.5284,2.5504,2.5635,2.5684,2.5781,2.5795,2.5732,2.5708,2.5684,2.5489,2.5465,2.5367,2.5113,2.5079,2.503,2.4956,2.4917,2.4892,2.4892,2.4883,2.4932,2.503,2.5054,2.5177,1.9437,1.9422,1.9342,1.9298,1.9298,1.9298,1.9298,1.9298,1.9298,1.9298,1.9298,1.9298,1.9298,1.9298,1.9298,1.9534,1.9918,1.9959,2.0298,2.0925,2.1171,2.1418,2.1752,2.2019,2.2183,2.2263,2.2294,2.2279,2.2333,2.2651,2.2922,2.3122,2.3389,2.365,2.3828,2.3999,2.4001,2.3825,2.4192,2.413,2.3637,2.3584,2.356,2.3448,2.3772,2.4039,2.416,2.3715,2.341,2.3334,2.3062,2.2783,2.2447,2.2693,2.2767,2.2599,2.2614,2.277,2.3071,2.3021,2.3116,2.3439,2.3561,2.3645,2.3688,2.3819,2.4055,2.4296,2.4488,2.4705,2.4952,2.5053,2.5208,2.5548,2.5586,2.562,2.5693,2.5708,2.5708,2.5708,2.5708,2.5708,2.5684,2.5635,2.5489,2.5357,2.5152,2.5039,2.4858,2.4809,2.4867,2.5064,2.5186,2.5416,2.5635,2.5708,2.5693,2.5596,2.5562,2.5455,2.5235,2.5186,2.5088,2.4858,2.4809,2.4735,2.4612,2.4671,2.472,2.4711,2.4711,2.4735,2.4784,2.4784,2.4833,1.9767,1.9723,1.9437,1.932,1.9305,1.9298,1.9298,1.9298,1.9298,1.9298,1.9298,1.9298,1.9298,1.9298,1.9298,1.9338,1.9368,1.9397,1.9863,2.0598,2.0685,2.1286,2.2407,2.2466,2.2617,2.2815,2.2807,2.2871,2.2939,2.3495,2.3835,2.3858,2.4048,2.415,2.4197,2.4216,2.4254,2.4438,2.4508,2.4494,2.4576,2.4153,2.3855,2.3781,2.4283,2.4485,2.437,2.4342,2.4188,2.3967,2.3848,2.357,2.3028,2.2987,2.2951,2.2966,2.3121,2.3238,2.3219,2.3064,2.2984,2.3057,2.3393,2.3534,2.3634,2.4063,2.4355,2.4458,2.4662,2.4818,2.4871,2.4891,2.5036,2.5265,2.5308,2.5416,2.5635,2.5659,2.5684,2.5693,2.5659,2.5659,2.5669,2.5489,2.5333,2.5152,2.4849,2.4554,2.4563,2.4529,2.4563,2.4661,2.4966,2.5357,2.5611,2.5635,2.5538,2.544,2.5367,2.5226,2.5054,2.4883,2.4726,2.4603,2.4563,2.4464,2.4301,2.4251,2.4301,2.4325,2.4325,2.4375,2.4514,2.4538,2.4587,2.0062,2.004,1.9745,1.9613,1.9617,1.9393,1.9298,1.9298,1.9298,1.9298,1.9298,1.9298,1.9298,1.9298,1.9298,1.9415,1.9605,1.9613,1.9994,2.0592,2.0803,2.1256,2.181,2.2067,2.2358,2.2633,2.268,2.2911,2.3316,2.3725,2.4005,2.422,2.4463,2.4653,2.4838,2.5025,2.5147,2.5147,2.5329,2.517,2.4708,2.4824,2.4668,2.4136,2.4192,2.4241,2.4216,2.3909,2.3756,2.3816,2.3532,2.3308,2.32,2.3033,2.2931,2.295,2.3018,2.3165,2.3386,2.3327,2.3431,2.3703,2.3865,2.3923,2.3975,2.4168,2.4316,2.4316,2.4399,2.4474,2.4514,2.4711,2.4932,2.5005,2.5039,2.5162,2.5367,2.543,2.5513,2.5635,2.5562,2.544,2.5391,2.522,2.499,2.4809,2.4603,2.4455,2.4341,2.4301,2.4365,2.448,2.4661,2.4892,2.5162,2.5357,2.5382,2.5294,2.5186,2.4932,2.476,2.4652,2.4529,2.4415,2.435,2.4325,2.4202,2.4202,2.4211,2.4211,2.4211,2.4236,2.4301,2.435,2.439,2.0298,2.0181,2.0003,1.9884,1.9793,1.9554,1.9393,1.9312,1.9298,1.9298,1.9298,1.9298,1.9298,1.9298,1.9298,1.946,1.9745,1.9786,2.0062,2.0595,2.0925,2.1283,2.1645,2.1904,2.2104,2.231,2.2432,2.2705,2.3127,2.3519,2.3853,2.421,2.4467,2.4831,2.5176,2.5505,2.5682,2.573,2.5889,2.5632,2.5082,2.5095,2.492,2.4404,2.407,2.4067,2.4321,2.4048,2.3903,2.39,2.3641,2.3448,2.3371,2.32,2.3096,2.3081,2.3233,2.3422,2.3669,2.3739,2.3859,2.4165,2.4202,2.4211,2.4211,2.4211,2.4211,2.4211,2.4211,2.4211,2.4251,2.4498,2.4686,2.4735,2.4784,2.4883,2.5113,2.5152,2.5269,2.5357,2.526,2.5162,2.5137,2.4932,2.4735,2.4504,2.443,2.4341,2.4226,2.4202,2.4251,2.439,2.4455,2.4603,2.4784,2.4932,2.5005,2.4932,2.4917,2.4686,2.4538,2.4464,2.439,2.4251,2.4211,2.4211,2.4211,2.4211,2.4211,2.4211,2.4211,2.4211,2.4226,2.4211,2.4288,2.0517,2.0276,2.021,2.0084,1.9891,1.9818,1.9632,1.9371,1.9334,1.9316,1.9312,1.9298,1.9298,1.9298,1.9331,1.9461,1.9673,1.9784,2.0072,2.0601,2.0846,2.1293,2.1819,2.1865,2.1932,2.2038,2.2285,2.2444,2.2581,2.3071,2.3464,2.3808,2.4164,2.4635,2.5203,2.5542,2.5844,2.6037,2.608,2.5993,2.5891,2.5154,2.4693,2.4498,2.4069,2.4122,2.4788,2.4741,2.4515,2.4389,2.4365,2.4149,2.3608,2.3523,2.3499,2.3569,2.3895,2.4146,2.4174,2.4156,2.4122,2.4211,2.4211,2.4177,2.4161,2.4177,2.4177,2.4152,2.4186,2.4211,2.4211,2.4226,2.4325,2.4464,2.4504,2.4637,2.4833,2.4917,2.4917,2.4966,2.4932,2.4917,2.4858,2.4686,2.4504,2.4464,2.4341,2.4226,2.4202,2.4211,2.4211,2.426,2.435,2.4455,2.448,2.4504,2.4504,2.4504,2.4538,2.444,2.435,2.4276,2.4301,2.4211,2.4211,2.4211,2.4211,2.4211,2.4211,2.4211,2.4211,2.4211,2.422,2.4238,2.4312,2.097,2.0846,2.0634,2.0495,2.0391,2.0159,1.9908,1.9676,1.9642,1.9518,1.9334,1.9298,1.9298,1.935,1.948,1.9628,1.9724,2.005,2.0369,2.054,2.0625,2.0888,2.1182,2.125,2.1474,2.1915,2.2253,2.2599,2.2895,2.3108,2.3387,2.3755,2.4272,2.4724,2.5144,2.5673,2.6127,2.64,2.6436,2.6369,2.6251,2.5698,2.523,2.4895,2.4485,2.433,2.4378,2.4016,2.3819,2.3861,2.3803,2.3868,2.3947,2.3984,2.3984,2.4002,2.4094,2.4211,2.4211,2.4211,2.4177,2.4211,2.4211,2.4102,2.3978,2.4102,2.4093,2.3994,2.4078,2.4211,2.4211,2.4211,2.4226,2.4301,2.4291,2.439,2.4612,2.4784,2.4892,2.4883,2.4735,2.4637,2.4587,2.4415,2.4325,2.4325,2.4251,2.4211,2.4211,2.4211,2.4211,2.4211,2.4301,2.4316,2.4341,2.4365,2.4341,2.4365,2.4341,2.4341,2.4251,2.4211,2.4211,2.4211,2.4211,2.4211,2.4211,2.4211,2.4211,2.4211,2.4211,2.422,2.4238,2.433,2.4459,2.1211,2.1189,2.0991,2.0823,2.0685,2.0466,2.021,1.9938,1.984,1.9671,1.9488,1.9349,1.9376,1.9454,1.9628,1.9809,2.0016,2.0367,2.0573,2.0617,2.0642,2.0745,2.0899,2.1019,2.1303,2.1787,2.2155,2.2453,2.2785,2.2924,2.3201,2.3651,2.4052,2.4597,2.5192,2.5676,2.61,2.6527,2.6609,2.6544,2.6383,2.5945,2.5502,2.5187,2.4687,2.4369,2.4156,2.373,2.3583,2.3721,2.3767,2.3871,2.4035,2.4019,2.4003,2.392,2.3904,2.3904,2.3895,2.3978,2.4053,2.4053,2.4152,2.4078,2.3904,2.4053,2.4078,2.3895,2.4053,2.4211,2.4211,2.4211,2.4211,2.4211,2.4202,2.4251,2.439,2.4538,2.4612,2.4597,2.4474,2.4415,2.4341,2.4291,2.4202,2.4211,2.4211,2.4211,2.4211,2.4211,2.4211,2.4211,2.4226,2.4226,2.4202,2.4211,2.4211,2.4226,2.4226,2.4251,2.4211,2.4211,2.4211,2.4211,2.4211,2.4211,2.4211,2.4211,2.4211,2.4211,2.4229,2.4296,2.4379,2.4572,2.4737,2.1211,2.1211,2.1203,2.0992,2.0758,2.0729,2.0539,2.0225,1.9989,1.9855,1.9723,1.9533,1.9476,1.9661,1.9757,2.0065,2.0449,2.0592,2.0794,2.099,2.1034,2.107,2.1009,2.1198,2.1503,2.1783,2.2029,2.2139,2.2333,2.2545,2.2901,2.3401,2.3634,2.4148,2.512,2.5469,2.591,2.6417,2.6582,2.6591,2.6563,2.5866,2.5433,2.5359,2.4689,2.4257,2.4109,2.3887,2.3881,2.4118,2.4072,2.3982,2.3845,2.3795,2.368,2.3472,2.3431,2.3456,2.3472,2.3721,2.3854,2.3879,2.4019,2.4069,2.382,2.3954,2.4003,2.3795,2.4028,2.4211,2.4211,2.4211,2.4211,2.4211,2.4211,2.4226,2.4211,2.4236,2.4276,2.4251,2.4211,2.4211,2.4226,2.4202,2.4202,2.4211,2.4211,2.4211,2.4211,2.4211,2.4211,2.4211,2.4211,2.4211,2.4211,2.4211,2.4211,2.4211,2.4211,2.4211,2.4211,2.4211,2.4211,2.4211,2.4211,2.4211,2.4211,2.4211,2.4211,2.4211,2.4269,2.4425,2.4627,2.4838,2.5141,2.1211,2.1211,2.1211,2.1152,2.1079,2.1079,2.0889,2.0575,2.0481,2.0186,1.9915,1.9939,1.9852,1.9754,2.0142,2.0509,2.0844,2.1071,2.1368,2.1709,2.1918,2.1675,2.1338,2.1479,2.1742,2.1996,2.2139,2.2241,2.2468,2.2569,2.2805,2.3153,2.3646,2.4107,2.4694,2.5454,2.5906,2.616,2.6481,2.6618,2.6536,2.6114,2.5718,2.5361,2.4893,2.4379,2.3974,2.3854,2.382,2.387,2.3895,2.387,2.3746,2.3596,2.3447,2.3381,2.3381,2.3406,2.3447,2.3621,2.3771,2.3795,2.3879,2.3771,2.3546,2.3746,2.3755,2.3646,2.3904,2.4211,2.4211,2.4211,2.4211,2.4211,2.4211,2.4211,2.4211,2.4211,2.4211,2.4211,2.4211,2.4211,2.4211,2.4211,2.4211,2.4211,2.4211,2.4211,2.4211,2.4211,2.4211,2.4211,2.4211,2.4211,2.4211,2.4211,2.4211,2.4211,2.4211,2.4211,2.4211,2.4211,2.4211,2.4211,2.4211,2.4211,2.4211,2.4211,2.4211,2.4248,2.4443,2.4663,2.4939,2.5186,2.5563,2.1211,2.1211,2.1211,2.1211,2.1211,2.1211,2.1072,2.089,2.0764,2.0621,2.0409,2.0217,2.0227,2.0274,2.0568,2.0877,2.117,2.1513,2.182,2.2205,2.2568,2.2506,2.2262,2.2343,2.2423,2.2494,2.2511,2.2554,2.262,2.2695,2.2921,2.3216,2.3653,2.4121,2.4645,2.531,2.5838,2.6031,2.6398,2.6618,2.6582,2.6205,2.5801,2.5398,2.5012,2.4457,2.3768,2.3746,2.3721,2.3571,2.3655,2.3705,2.3472,2.3331,2.3172,2.3097,2.3071,2.3105,2.3272,2.3472,2.3671,2.3771,2.3795,2.3721,2.3621,2.373,2.3696,2.3671,2.3978,2.4152,2.4211,2.4211,2.4211,2.4211,2.4211,2.4211,2.4211,2.4211,2.4211,2.4211,2.4211,2.4211,2.4211,2.4211,2.4211,2.4211,2.4211,2.4211,2.4211,2.4211,2.4211,2.4211,2.4211,2.4211,2.4211,2.4211,2.4211,2.4211,2.4211,2.4211,2.4211,2.4211,2.4211,2.4211,2.4211,2.4211,2.4211,2.4248,2.4324,2.4434,2.4672,2.4975,2.5287,2.5544,2.593,2.1211,2.1211,2.1211,2.1211,2.1211,2.1211,2.1196,2.1152,2.0974,2.0946,2.099,2.0605,2.0716,2.1078,2.112,2.1283,2.1555,2.1902,2.228,2.27,2.3137,2.3401,2.3394,2.3218,2.3181,2.3108,2.3117,2.2946,2.2833,2.2931,2.3147,2.3415,2.3698,2.4104,2.458,2.5131,2.5535,2.5893,2.627,2.6527,2.6545,2.6279,2.5902,2.5398,2.4731,2.4157,2.3636,2.3546,2.353,2.2971,2.3472,2.3472,2.3097,2.2996,2.2871,2.2745,2.2745,2.2846,2.3021,2.3322,2.358,2.3746,2.3771,2.378,2.3755,2.3746,2.373,2.3746,2.4053,2.4186,2.4211,2.4211,2.4211,2.4211,2.4211,2.4211,2.4211,2.4211,2.4211,2.4211,2.4211,2.4211,2.4211,2.4211,2.4211,2.4211,2.4211,2.4211,2.4211,2.4211,2.4211,2.4211,2.4211,2.4211,2.4211,2.4211,2.4211,2.4211,2.4211,2.4211,2.4211,2.4211,2.4211,2.4211,2.4211,2.4211,2.4211,2.4293,2.4379,2.4636,2.4856,2.5297,2.5754,2.593,2.6242,2.1211,2.1211,2.1211,2.1211,2.1211,2.1211,2.1211,2.1225,2.1394,2.1342,2.1294,2.1464,2.1523,2.1479,2.169,2.1962,2.2196,2.2421,2.2781,2.359,2.3966,2.427,2.4255,2.3944,2.3621,2.3502,2.3246,2.3178,2.3228,2.3137,2.3247,2.3646,2.378,2.399,2.4345,2.4783,2.5131,2.5526,2.5912,2.6279,2.6509,2.6462,2.6077,2.5373,2.4347,2.3598,2.3257,2.3322,2.3197,2.2946,2.3138,2.3347,2.3021,2.2795,2.2703,2.2695,2.282,2.2946,2.308,2.3422,2.373,2.3795,2.3646,2.3571,2.3755,2.3621,2.3655,2.378,2.4028,2.4186,2.4211,2.4211,2.4211,2.4211,2.4211,2.4211,2.4211,2.4211,2.4211,2.4211,2.4211,2.4211,2.4211,2.4211,2.4211,2.4211,2.4211,2.4211,2.4211,2.4211,2.4211,2.4211,2.4211,2.4211,2.4211,2.4211,2.4211,2.4211,2.4211,2.4211,2.4211,2.4211,2.4211,2.4211,2.4211,2.4211,2.4211,2.4238,2.433,2.4663,2.5067,2.5508,2.5902,2.6187,2.6398,2.1211,2.1211,2.1211,2.1211,2.1211,2.1211,2.1211,2.1268,2.1554,2.1684,2.1739,2.2094,2.2178,2.2045,2.2316,2.2498,2.2604,2.3005,2.35,2.4103,2.4443,2.4646,2.4731,2.4444,2.4145,2.3939,2.3751,2.3625,2.3479,2.3474,2.3567,2.378,2.3895,2.4062,2.4241,2.4581,2.4867,2.515,2.5508,2.5912,2.6251,2.6306,2.5987,2.5226,2.4231,2.3493,2.3098,2.3256,2.3097,2.2871,2.3097,2.3222,2.2904,2.2695,2.2644,2.2795,2.2896,2.3172,2.3397,2.3621,2.3854,2.3969,2.3721,2.3771,2.3845,2.3721,2.3755,2.3954,2.4112,2.4211,2.4211,2.4211,2.4211,2.4211,2.4211,2.4211,2.4211,2.4211,2.4211,2.4211,2.4211,2.4211,2.4211,2.4211,2.4211,2.4211,2.4211,2.4211,2.4211,2.4211,2.4211,2.4211,2.4211,2.4211,2.4211,2.4211,2.4211,2.4211,2.4211,2.4211,2.4211,2.4211,2.4211,2.4211,2.4211,2.4211,2.4211,2.4238,2.4422,2.492,2.5361,2.5719,2.6049,2.6371,2.6517,2.1211,2.1211,2.1211,2.1211,2.1211,2.1211,2.1239,2.1354,2.1611,2.1976,2.2278,2.2591,2.2757,2.2819,2.2966,2.2879,2.2958,2.3417,2.4016,2.434,2.4627,2.4765,2.4768,2.4699,2.4554,2.4306,2.4233,2.4032,2.3861,2.3864,2.3937,2.3918,2.4078,2.4177,2.4278,2.4489,2.4737,2.4876,2.5159,2.5499,2.5829,2.5884,2.5541,2.4784,2.419,2.3563,2.3183,2.3222,2.318,2.2745,2.3172,2.3122,2.282,2.2669,2.2745,2.298,2.3097,2.3347,2.3655,2.3829,2.3978,2.4186,2.3954,2.3954,2.4053,2.3954,2.3929,2.4053,2.4211,2.4211,2.4211,2.4211,2.4211,2.4211,2.4211,2.4211,2.4211,2.4211,2.4211,2.4211,2.4211,2.4211,2.4211,2.4211,2.4211,2.4211,2.4211,2.4211,2.4211,2.4211,2.4211,2.4211,2.4211,2.4211,2.4211,2.4211,2.4211,2.4211,2.4211,2.4211,2.4211,2.4211,2.4211,2.4211,2.4211,2.4211,2.4211,2.422,2.456,2.5159,2.5508,2.5719,2.6095,2.6536,2.6618,2.1211,2.1211,2.1211,2.1211,2.1211,2.1211,2.1354,2.1639,2.1932,2.2398,2.2917,2.3237,2.3515,2.3649,2.3506,2.339,2.346,2.3781,2.4089,2.4404,2.4682,2.4793,2.4821,2.4821,2.4733,2.4713,2.4663,2.4534,2.4306,2.4341,2.4247,2.4178,2.4177,2.4211,2.422,2.4303,2.4489,2.4691,2.4856,2.5104,2.5398,2.5465,2.5127,2.4333,2.3849,2.344,2.3174,2.3247,2.3272,2.3046,2.3447,2.3372,2.308,2.2946,2.2996,2.3097,2.3406,2.3671,2.3829,2.4028,2.4127,2.4118,2.3978,2.3954,2.4044,2.4003,2.3994,2.4102,2.4211,2.4211,2.4211,2.4211,2.4211,2.4211,2.4211,2.4211,2.4211,2.4211,2.4211,2.4211,2.4211,2.4211,2.4211,2.4211,2.4211,2.4211,2.4211,2.4211,2.4211,2.4211,2.4211,2.4211,2.4211,2.4211,2.4211,2.4211,2.4211,2.4211,2.4211,2.4211,2.4211,2.4211,2.4211,2.4211,2.4211,2.4211,2.4211,2.4211,2.4608,2.5186,2.5443,2.5655,2.6159,2.6618,2.6618,2.1211,2.1211,2.1211,2.1211,2.1239,2.1375,2.1554,2.1783,2.2356,2.2784,2.3212,2.3749,2.4047,2.41,2.4148,2.4033,2.4,2.3875,2.4189,2.4543,2.4738,2.4821,2.4821,2.4821,2.4896,2.501,2.5111,2.4933,2.4544,2.4644,2.4501,2.4256,2.4211,2.4211,2.4211,2.422,2.4312,2.4505,2.4516,2.4691,2.5051,2.5121,2.472,2.4165,2.378,2.3502,2.3164,2.3422,2.3472,2.3322,2.358,2.3555,2.3381,2.3331,2.3422,2.3456,2.3655,2.387,2.3978,2.4152,2.4177,2.4177,2.4078,2.4078,2.4127,2.4102,2.4078,2.4152,2.4211,2.4211,2.4211,2.4211,2.4211,2.4211,2.4211,2.4211,2.4211,2.4211,2.4211,2.4211,2.4211,2.4211,2.4211,2.4211,2.4211,2.4211,2.4211,2.4211,2.4211,2.4211,2.4211,2.4211,2.4211,2.4211,2.4211,2.4211,2.4211,2.4211,2.4211,2.4211,2.4211,2.4211,2.4211,2.4211,2.4211,2.4211,2.4211,2.422,2.4709,2.5159,2.537,2.5664,2.6251,2.6618,2.6618,2.1146,2.1211,2.1268,2.1296,2.1354,2.1639,2.181,2.2042,2.2727,2.3152,2.3417,2.4134,2.4474,2.4394,2.447,2.4547,2.4478,2.4239,2.4507,2.4827,2.4939,2.4932,2.4802,2.4849,2.4923,2.5174,2.5451,2.5298,2.4799,2.4874,2.4698,2.4338,2.4211,2.4211,2.4211,2.4211,2.4211,2.4211,2.422,2.4404,2.4631,2.4692,2.4524,2.4006,2.392,2.3623,2.3316,2.3555,2.3655,2.3605,2.3705,2.3771,2.3571,2.3721,2.3879,2.3904,2.3879,2.3994,2.4102,2.4177,2.4211,2.4177,2.4211,2.4211,2.4211,2.4186,2.4186,2.4211,2.4211,2.4211,2.4211,2.4211,2.4211,2.4211,2.4211,2.4211,2.4211,2.4211,2.4211,2.4211,2.4211,2.4211,2.4211,2.4211,2.4211,2.4211,2.4211,2.4211,2.4211,2.4211,2.4211,2.4211,2.4211,2.4211,2.4211,2.4211,2.4211,2.4211,2.4211,2.4211,2.4211,2.4211,2.4211,2.4211,2.4211,2.4211,2.4211,2.4293,2.4672,2.5021,2.5269,2.571,2.6334,2.66,2.6618,2.0931,2.1211,2.1489,2.1639,2.1668,2.1945,2.223,2.2511,2.2959,2.3438,2.3916,2.4412,2.4746,2.4833,2.4665,2.4706,2.4827,2.4833,2.4959,2.5278,2.53,2.5146,2.4853,2.483,2.5024,2.5284,2.5542,2.5361,2.5055,2.518,2.4889,2.4367,2.4211,2.4211,2.4211,2.4211,2.4211,2.4211,2.4211,2.4214,2.4237,2.411,2.3951,2.3815,2.3638,2.357,2.3589,2.3771,2.378,2.3805,2.4003,2.4003,2.3845,2.4003,2.4127,2.4152,2.4152,2.4177,2.4211,2.4211,2.4211,2.4211,2.4211,2.4211,2.4211,2.4211,2.4211,2.4211,2.4211,2.4211,2.4211,2.4211,2.4211,2.4211,2.4211,2.4211,2.4211,2.4211,2.4211,2.4211,2.4211,2.4211,2.4211,2.4211,2.4211,2.4211,2.4211,2.4211,2.4211,2.4211,2.4211,2.4211,2.4211,2.4211,2.4211,2.4211,2.4211,2.4211,2.4211,2.4211,2.4211,2.4211,2.4211,2.4211,2.4211,2.4211,2.4211,2.4358,2.4636,2.4966,2.5306,2.5838,2.6444,2.6572,2.6609,2.1017,2.1497,2.1647,2.1782,2.1938,2.2258,2.2456,2.2715,2.337,2.3824,2.418,2.4681,2.4976,2.5016,2.4738,2.4867,2.5156,2.5118,2.5256,2.5613,2.566,2.548,2.5271,2.528,2.5444,2.5432,2.5512,2.5478,2.53,2.5202,2.4985,2.4321,2.4211,2.4211,2.4211,2.4211,2.4211,2.4211,2.4186,2.4127,2.3954,2.3755,2.358,2.358,2.3472,2.358,2.378,2.3969,2.4028,2.4028,2.4152,2.4152,2.4078,2.4127,2.4202,2.4202,2.4211,2.4211,2.4211,2.4211,2.4211,2.4211,2.4211,2.4211,2.4211,2.4211,2.4211,2.4211,2.4211,2.4211,2.4211,2.4211,2.4211,2.4211,2.4211,2.4211,2.4211,2.4211,2.4211,2.4211,2.4211,2.4211,2.4211,2.4211,2.4211,2.4211,2.4211,2.4211,2.4211,2.4211,2.4211,2.4211,2.4211,2.4211,2.4211,2.4211,2.4211,2.4211,2.4211,2.4211,2.4211,2.4211,2.4211,2.4211,2.4211,2.4211,2.4211,2.433,2.4532,2.4939,2.5388,2.5902,2.6398,2.6582,2.6618,2.1131,2.1782,2.181,2.1974,2.2258,2.257,2.2711,2.2818,2.3547,2.3989,2.4259,2.4754,2.5065,2.5094,2.4987,2.5192,2.5624,2.5471,2.5658,2.593,2.5999,2.582,2.5652,2.5713,2.5707,2.5679,2.5541,2.5367,2.524,2.5159,2.4838,2.4238,2.4211,2.4211,2.4211,2.4177,2.4177,2.4053,2.4078,2.3954,2.3721,2.3522,2.3481,2.3481,2.3522,2.3621,2.3879,2.4053,2.4177,2.4177,2.4177,2.4177,2.4186,2.4186,2.4211,2.4211,2.4211,2.4211,2.4211,2.4211,2.4211,2.4211,2.4211,2.4211,2.4211,2.4211,2.4211,2.4211,2.4211,2.4211,2.4211,2.4211,2.4211,2.4211,2.4211,2.4211,2.4211,2.4211,2.4211,2.4211,2.4211,2.4211,2.4211,2.4211,2.4211,2.4211,2.4211,2.4211,2.4211,2.4211,2.4211,2.4211,2.4211,2.4211,2.4211,2.4211,2.4211,2.4211,2.4211,2.4211,2.4211,2.4211,2.4211,2.4211,2.4211,2.4211,2.4211,2.4293,2.4431,2.4957,2.548,2.5875,2.6251,2.6472,2.6618,2.1246,2.208,2.2059,2.2258,2.2598,2.2853,2.2958,2.2961,2.337,2.38,2.4203,2.4784,2.5072,2.5149,2.537,2.5635,2.6048,2.6352,2.6431,2.6436,2.6422,2.6217,2.6016,2.5854,2.5753,2.5625,2.5451,2.5192,2.4944,2.4856,2.4572,2.4266,2.4211,2.4211,2.4186,2.4152,2.4003,2.3879,2.3829,2.3721,2.3555,2.3456,2.3506,2.3705,2.3771,2.3895,2.4152,2.4177,2.4211,2.4211,2.4211,2.4211,2.4211,2.4211,2.4211,2.4211,2.4211,2.4211,2.4211,2.4211,2.4211,2.4211,2.4211,2.4211,2.4211,2.4211,2.4211,2.4211,2.4211,2.4211,2.4211,2.4211,2.4211,2.4211,2.4211,2.4211,2.4211,2.4211,2.4211,2.4211,2.4211,2.4211,2.4211,2.4211,2.4211,2.4211,2.4211,2.4211,2.4211,2.4211,2.4211,2.4211,2.4211,2.4211,2.4211,2.4211,2.4211,2.4211,2.4211,2.4211,2.4211,2.4211,2.4211,2.4211,2.4211,2.4211,2.4211,2.4257,2.4486,2.5067,2.5544,2.5857,2.6224,2.6536,2.6618,2.1453,2.208,2.208,2.2392,2.2853,2.2958,2.3014,2.3049,2.3367,2.3872,2.441,2.4873,2.5072,2.5195,2.5449,2.5786,2.6114,2.6449,2.6673,2.6841,2.6837,2.661,2.6354,2.6052,2.5912,2.5573,2.5279,2.5041,2.4831,2.459,2.4379,2.4229,2.4177,2.4211,2.4186,2.4028,2.3805,2.363,2.3555,2.3472,2.3456,2.3431,2.3522,2.378,2.3795,2.3954,2.4152,2.4186,2.4211,2.4211,2.4211,2.4211,2.4211,2.4211,2.4211,2.4211,2.4211,2.4211,2.4211,2.4211,2.4211,2.4211,2.4211,2.4211,2.4211,2.4211,2.4211,2.4211,2.4211,2.4211,2.4211,2.4211,2.4211,2.4211,2.4211,2.4211,2.4211,2.4211,2.4211,2.4211,2.4211,2.4211,2.4211,2.4211,2.4211,2.4211,2.4211,2.4211,2.4211,2.4211,2.4211,2.4211,2.4211,2.4211,2.4211,2.4211,2.4211,2.4211,2.4211,2.4211,2.4211,2.4211,2.4211,2.4211,2.4211,2.4211,2.4211,2.4211,2.456,2.5159,2.5508,2.5746,2.6132,2.6572,2.6618,2.1546,2.208,2.208,2.2449,2.2958,2.3014,2.3014,2.3025,2.324,2.3676,2.4309,2.4722,2.5013,2.519,2.557,2.5961,2.6297,2.664,2.6882,2.6966,2.6914,2.6769,2.6482,2.6101,2.5729,2.5378,2.506,2.4792,2.4562,2.433,2.4164,2.4087,2.4069,2.4053,2.4003,2.3795,2.3546,2.3347,2.3272,2.3272,2.3281,2.3372,2.3522,2.3771,2.3879,2.4028,2.4161,2.4211,2.4211,2.4211,2.4211,2.4211,2.4211,2.4211,2.4211,2.4211,2.4211,2.4211,2.4211,2.4211,2.4211,2.4211,2.4211,2.4211,2.4211,2.4211,2.4211,2.4211,2.4211,2.4211,2.4211,2.4211,2.4211,2.4211,2.4211,2.4211,2.4211,2.4211,2.4211,2.4211,2.4211,2.4211,2.4211,2.4211,2.4211,2.4211,2.4211,2.4211,2.4211,2.4211,2.4211,2.4211,2.4211,2.4211,2.4211,2.4211,2.4211,2.4211,2.4211,2.4211,2.4211,2.4211,2.4211,2.4211,2.4211,2.4211,2.4266,2.4349,2.4762,2.526,2.5636,2.6049,2.6215,2.6618,2.6618,2.1546,2.208,2.208,2.2449,2.2986,2.3014,2.3014,2.3022,2.3073,2.3287,2.3708,2.4309,2.4775,2.5103,2.5591,2.5976,2.6334,2.6716,2.6936,2.6833,2.6619,2.6491,2.6229,2.5865,2.5355,2.5049,2.4694,2.4391,2.4201,2.4089,2.3978,2.3845,2.3771,2.3755,2.3771,2.3555,2.3281,2.3046,2.303,2.3046,2.3147,2.3347,2.3596,2.3845,2.4028,2.4161,2.4186,2.4211,2.4211,2.4211,2.4211,2.4211,2.4211,2.4211,2.4211,2.4211,2.4211,2.4211,2.4211,2.4211,2.4211,2.4211,2.4211,2.4211,2.4211,2.4211,2.4211,2.4211,2.4211,2.4211,2.4211,2.4211,2.4211,2.4211,2.4211,2.4211,2.4211,2.4211,2.4211,2.4211,2.4211,2.4211,2.4211,2.4211,2.4211,2.4211,2.4211,2.4211,2.4211,2.4211,2.4211,2.4211,2.4211,2.4211,2.4211,2.4211,2.4211,2.4211,2.4211,2.4211,2.4211,2.4211,2.4211,2.4211,2.4211,2.4211,2.4367,2.4532,2.5038,2.5526,2.6104,2.6454,2.6591,2.6618,2.6618,2.1554,2.208,2.208,2.2449,2.2958,2.3014,2.3014,2.3062,2.3224,2.3406,2.3581,2.4084,2.4437,2.4782,2.5181,2.5585,2.5873,2.6134,2.629,2.6319,2.6182,2.6119,2.5887,2.5396,2.4911,2.4597,2.4257,2.3919,2.3664,2.373,2.3671,2.3522,2.3397,2.3263,2.3247,2.3155,2.2996,2.2829,2.2904,2.3071,2.3272,2.3497,2.3746,2.4028,2.4152,2.4211,2.4211,2.4211,2.4211,2.4211,2.4211,2.4211,2.4211,2.4211,2.4211,2.4211,2.4211,2.4211,2.4211,2.4211,2.4211,2.4211,2.4211,2.4211,2.4211,2.4211,2.4211,2.4211,2.4211,2.4211,2.4211,2.4211,2.4211,2.4211,2.4211,2.4211,2.4211,2.4211,2.4211,2.4211,2.4211,2.4211,2.4211,2.4211,2.4211,2.4211,2.4211,2.4211,2.4211,2.4211,2.4211,2.4211,2.4211,2.4211,2.4211,2.4211,2.4211,2.4211,2.4211,2.4211,2.4211,2.4211,2.4211,2.4211,2.4211,2.4229,2.4514,2.481,2.5313,2.5811,2.6315,2.6573,2.6609,2.6618,2.6618,2.1546,2.2088,2.208,2.2449,2.2958,2.3014,2.3014,2.3025,2.3232,2.3335,2.3406,2.3742,2.4135,2.4517,2.4849,2.5257,2.5585,2.5789,2.5914,2.5888,2.578,2.5754,2.5463,2.4887,2.4541,2.4219,2.3831,2.3431,2.3447,2.3431,2.3347,2.3222,2.2996,2.2896,2.2871,2.2846,2.2795,2.2703,2.277,2.2955,2.3197,2.3472,2.3755,2.3978,2.4136,2.4211,2.4211,2.4211,2.4211,2.4211,2.4211,2.4211,2.4211,2.4211,2.4211,2.4211,2.4211,2.4211,2.4211,2.4211,2.4211,2.4211,2.4211,2.4211,2.4211,2.4211,2.4211,2.4211,2.4211,2.4211,2.4211,2.4211,2.4211,2.4211,2.4211,2.4211,2.4211,2.4211,2.4211,2.4211,2.4211,2.4211,2.4211,2.4211,2.4211,2.4211,2.4211,2.4211,2.4211,2.4211,2.4211,2.4211,2.4211,2.4211,2.4211,2.4211,2.4211,2.4211,2.4211,2.4211,2.4211,2.4211,2.4211,2.4211,2.422,2.4349,2.4718,2.5122,2.5627,2.6022,2.6362,2.6545,2.6609,2.6618,2.6618,2.1554,2.2051,2.208,2.2449,2.2958,2.3014,2.3014,2.3014,2.3002,2.3038,2.3062,2.3375,2.3802,2.4392,2.4771,2.5161,2.5578,2.5702,2.5743,2.5691,2.5472,2.5423,2.5093,2.4543,2.4208,2.3939,2.3578,2.3206,2.3331,2.3147,2.3046,2.2946,2.2695,2.2585,2.2569,2.2644,2.2628,2.2644,2.272,2.2896,2.3097,2.3381,2.3655,2.3879,2.4053,2.4186,2.4211,2.4211,2.4211,2.4211,2.4211,2.4211,2.4211,2.4211,2.4211,2.4211,2.4211,2.4211,2.4211,2.4211,2.4211,2.4211,2.4211,2.4211,2.4211,2.4211,2.4211,2.4211,2.4211,2.4211,2.4211,2.4211,2.4211,2.4211,2.4211,2.4211,2.4211,2.4211,2.4211,2.4211,2.4211,2.4211,2.4211,2.4211,2.4211,2.4211,2.4211,2.4211,2.4211,2.4211,2.4211,2.4211,2.4211,2.4211,2.4211,2.4211,2.4211,2.4211,2.4211,2.4211,2.4211,2.4211,2.4211,2.422,2.4248,2.4514,2.5095,2.5572,2.5994,2.6334,2.6509,2.6572,2.6618,2.6618,2.6618,2.1554,2.2088,2.208,2.2449,2.2958,2.3014,2.3014,2.3014,2.3014,2.3014,2.3022,2.3089,2.346,2.3812,2.4108,2.4478,2.4797,2.4997,2.5073,2.5067,2.5056,2.4998,2.4703,2.4234,2.3909,2.3591,2.322,2.2829,2.2745,2.2669,2.251,2.2358,2.2333,2.2283,2.2358,2.2493,2.2569,2.2653,2.2745,2.2846,2.3071,2.3397,2.3621,2.3795,2.4053,2.4177,2.4211,2.4211,2.4211,2.4211,2.4211,2.4211,2.4211,2.4211,2.4211,2.4211,2.4211,2.4211,2.4211,2.4211,2.4211,2.4211,2.4211,2.4211,2.4211,2.4211,2.4211,2.4211,2.4211,2.4211,2.4211,2.4211,2.4211,2.4211,2.4211,2.4211,2.4211,2.4211,2.4211,2.4211,2.4211,2.4211,2.4211,2.4211,2.4211,2.4211,2.4211,2.4211,2.4211,2.4211,2.4211,2.4211,2.4211,2.4211,2.4211,2.4211,2.4211,2.4211,2.4211,2.4211,2.4211,2.4211,2.4211,2.4339,2.4551,2.5056,2.5655,2.6031,2.6251,2.6416,2.66,2.6609,2.6618,2.6618,2.6618,2.1575,2.2059,2.208,2.2449,2.2929,2.3014,2.3014,2.3014,2.3014,2.3014,2.3014,2.3022,2.3191,2.3517,2.371,2.3934,2.4242,2.4387,2.4527,2.4675,2.4627,2.4599,2.4345,2.3882,2.3481,2.3132,2.2706,2.2241,2.2207,2.2106,2.1979,2.1979,2.2004,2.2072,2.2198,2.2417,2.2603,2.2644,2.2745,2.2829,2.3046,2.3347,2.3546,2.3721,2.3978,2.4152,2.4211,2.4211,2.4211,2.4211,2.4211,2.4211,2.4211,2.4211,2.4211,2.4211,2.4211,2.4211,2.4211,2.4211,2.4211,2.4211,2.4211,2.4211,2.4211,2.4211,2.4211,2.4211,2.4211,2.4211,2.4211,2.4211,2.4211,2.4211,2.4211,2.4211,2.4211,2.4211,2.4211,2.4211,2.4211,2.4211,2.4211,2.4211,2.4211,2.4211,2.4211,2.4211,2.4211,2.4211,2.4211,2.4211,2.4211,2.4211,2.4211,2.4211,2.4211,2.4211,2.4211,2.4211,2.4211,2.4266,2.4312,2.459,2.4957,2.5471,2.5958,2.6178,2.6389,2.6536,2.6618,2.6618,2.6618,2.6618,2.6618,2.1518,2.208,2.2144,2.2477,2.2958,2.3014,2.3014,2.3014,2.3014,2.3014,2.3014,2.3014,2.3163,2.3388,2.3528,2.3669,2.3865,2.4005,2.4172,2.4348,2.4348,2.428,2.3955,2.3533,2.3106,2.2573,2.2162,2.1878,2.1776,2.17,2.1674,2.1708,2.1928,2.2021,2.2055,2.2417,2.2603,2.2628,2.2653,2.2678,2.2795,2.3071,2.3431,2.353,2.3854,2.4211,2.4211,2.4211,2.4211,2.4211,2.4211,2.4211,2.4211,2.4211,2.4211,2.4211,2.4211,2.4211,2.4211,2.4211,2.4211,2.4211,2.4211,2.4211,2.4211,2.4211,2.4211,2.4211,2.4211,2.4211,2.4211,2.4211,2.4211,2.4211,2.4211,2.4211,2.4211,2.4211,2.4211,2.4211,2.4211,2.4211,2.4211,2.4211,2.4211,2.4211,2.4211,2.4211,2.4211,2.4211,2.4211,2.4211,2.4211,2.4211,2.4211,2.4211,2.4211,2.4211,2.4211,2.4211,2.4211,2.4312,2.444,2.4902,2.5425,2.5728,2.6123,2.6334,2.6481,2.6554,2.6618,2.6618,2.6618,2.6618,2.6618,2.1439,2.1831,2.2286,2.2711,2.2986,2.3014,2.3014,2.3014,2.3014,2.3014,2.3014,2.3014,2.3042,2.3163,2.3388,2.3528,2.3585,2.3717,2.3921,2.3988,2.4016,2.3825,2.3545,2.311,2.2698,2.2348,2.1965,2.1623,2.1598,2.1496,2.1394,2.1428,2.1674,2.1852,2.1878,2.2316,2.2603,2.2628,2.2628,2.2619,2.272,2.3071,2.3431,2.3571,2.387,2.4152,2.4211,2.4211,2.4211,2.4211,2.4211,2.4211,2.4211,2.4211,2.4211,2.4211,2.4211,2.4211,2.4211,2.4211,2.4211,2.4211,2.4211,2.4211,2.4211,2.4211,2.4211,2.4211,2.4211,2.4211,2.4211,2.4211,2.4211,2.4211,2.4211,2.4211,2.4211,2.4211,2.4211,2.4211,2.4211,2.4211,2.4211,2.4211,2.4211,2.4211,2.4211,2.4211,2.4211,2.4211,2.4211,2.4211,2.4211,2.4211,2.4211,2.4211,2.4211,2.4211,2.4211,2.4211,2.4229,2.4572,2.4939,2.5434,2.5902,2.6123,2.6306,2.6472,2.6591,2.6618,2.6618,2.6618,2.6618,2.6618,2.6618,2.1411,2.1753,2.2351,2.2768,2.2994,2.3014,2.3014,2.3014,2.3014,2.3014,2.3014,2.3014,2.3014,2.3014,2.3219,2.3304,2.3332,2.3408,2.3576,2.3652,2.3548,2.3327,2.3023,2.264,2.2186,2.1841,2.1549,2.1326,2.1351,2.1249,2.1147,2.1198,2.1445,2.17,2.1784,2.2266,2.2603,2.2628,2.2628,2.2669,2.277,2.3147,2.3481,2.3671,2.3929,2.4161,2.4211,2.4211,2.4211,2.4211,2.4211,2.4211,2.4211,2.4211,2.4211,2.4211,2.4211,2.4211,2.4211,2.4211,2.4211,2.4211,2.4211,2.4211,2.4211,2.4211,2.4211,2.4211,2.4211,2.4211,2.4211,2.4211,2.4211,2.4211,2.4211,2.4211,2.4211,2.4211,2.4211,2.4211,2.4211,2.4211,2.4211,2.4211,2.4211,2.4211,2.4211,2.4211,2.4211,2.4211,2.4211,2.4202,2.4226,2.4211,2.4211,2.4211,2.4211,2.4211,2.422,2.4395,2.4544,2.5049,2.5517,2.5857,2.6141,2.6361,2.6536,2.66,2.6618,2.6618,2.6618,2.6618,2.6618,2.6618,2.6618,2.1359,2.1803,2.2315,2.2711,2.2986,2.3014,2.3014,2.3014,2.3014,2.3014,2.3014,2.3014,2.3014,2.3014,2.3014,2.3014,2.3042,2.3155,2.3275,2.3255,2.3044,2.2843,2.254,2.2116,2.1713,2.1383,2.1102,2.1027,2.0994,2.0942,2.0994,2.1019,2.13,2.1683,2.1852,2.2182,2.2518,2.2603,2.2653,2.2795,2.3021,2.3272,2.3522,2.378,2.4053,2.4186,2.4211,2.4211,2.4211,2.4211,2.4211,2.4211,2.4211,2.4211,2.4211,2.4211,2.4211,2.4211,2.4211,2.4211,2.4211,2.4211,2.4211,2.4211,2.4211,2.4211,2.4211,2.4211,2.4211,2.4211,2.4211,2.4211,2.4211,2.4211,2.4211,2.4211,2.4211,2.4211,2.4211,2.4211,2.4211,2.4211,2.4211,2.4211,2.4211,2.4211,2.4211,2.4211,2.4211,2.4211,2.4211,2.4251,2.4276,2.4251,2.4211,2.4236,2.426,2.4275,2.4339,2.4562,2.4893,2.5388,2.5792,2.6068,2.6343,2.6508,2.6572,2.6609,2.6618,2.6618,2.6618,2.6618,2.6618,2.6618,2.6618,2.128,2.2031,2.2144,2.2498,2.2942,2.2998,2.3014,2.3014,2.2998,2.3014,2.2998,2.3006,2.3014,2.3014,2.3014,2.3014,2.3014,2.3014,2.3014,2.3043,2.2751,2.2458,2.214,2.1774,2.1328,2.1078,2.095,2.0925,2.0899,2.0899,2.0925,2.095,2.1198,2.1504,2.1751,2.208,2.2367,2.2493,2.2678,2.2795,2.3147,2.3372,2.3522,2.3795,2.4053,2.4152,2.4211,2.4211,2.4211,2.4211,2.4211,2.4211,2.4211,2.4211,2.4211,2.4211,2.4211,2.4211,2.4211,2.4211,2.4211,2.4211,2.4211,2.4211,2.4211,2.4211,2.4211,2.4211,2.4211,2.4211,2.4211,2.4211,2.4211,2.4211,2.4211,2.4211,2.4211,2.4211,2.4211,2.4211,2.4211,2.4211,2.4211,2.4211,2.4211,2.4211,2.4211,2.4211,2.4211,2.4211,2.4211,2.4276,2.4341,2.4301,2.426,2.431,2.4319,2.4362,2.456,2.5043,2.5448,2.5754,2.6077,2.6315,2.6435,2.6572,2.6609,2.6618,2.6618,2.6618,2.6618,2.6618,2.6618,2.6618,2.6618]},{"header":{"parameterUnit":"m.s-1","parameterCategory":1,"la1":31.0,"la2":29.5877,"lo1":-88.7671,"lo2":-86.6584,"dy":0.0162,"dx":0.0185,"nx":115,"ny":88,"refTime":"2024-02-13T06:00:00:Z","depth":0,"parameterNumber":3,"parameterNumberName":"V-component_of_WINDS"},"data":[0.0,0.0,0.0,0.0,0.0,0.0,0.0,0.0,0.0,0.0,0.0,0.0,0.0,0.0,0.0,0.0,0.0,0.0,0.0,0.0,0.0,0.0,0.0,0.0,0.0,0.0,0.0,0.0,0.0,0.0,0.0,0.0,0.0,0.0,0.0,0.0,0.0,0.0,0.0,0.0,0.0,0.0,0.0,0.0,0.0,0.0,0.0,0.0,0.0,0.0,0.0,0.0,0.0,0.0,0.0,0.0,0.0,0.0,0.0,0.0,0.0,0.0,0.0,0.0,0.0,0.0,0.0,0.0,0.0,0.0,0.0,0.0,0.0,0.0,0.0,0.0,0.0,0.0,0.0,0.0,0.0,0.0,0.0,0.0,0.0,0.0,0.0,0.0,0.0,0.0,0.0,0.0,0.0,0.0,0.0,0.0,0.0,0.0,0.0,0.0,0.0,0.0,0.0,0.0,0.0,0.0,0.0,0.0,0.0,0.0,0.0,0.0,0.0,0.0,0.0,0.0,0.0,0.0,0.0,0.0,0.0,0.0,0.0,0.0,0.0,0.0,0.0,0.0,0.0,0.0,0.0,0.0,0.0,0.0,0.0,0.0,0.0,0.0,0.0,0.0,0.0,0.0,0.0,0.0,0.0,0.0,0.0,0.0,0.0,0.0,0.0,0.0,0.0,0.0,0.0,0.0,0.0,0.0,0.0,0.0,0.0,0.0,0.0,0.0,0.0,0.0,0.0,0.0,0.0,0.0,0.0,0.0,0.0,0.0,0.0,0.0,0.0,0.0,0.0,0.0,0.0,0.0,0.0,0.0,0.0,0.0,0.0,0.0,0.0,0.0,0.0,0.0,0.0,0.0,0.0,0.0,0.0,0.0,0.0,0.0,0.0,0.0,0.0,0.0,0.0,0.0,0.0,0.0,0.0,0.0,0.0,0.0,0.0,0.0,0.0,0.0,0.0,0.0,0.0,0.0,0.0,0.0,0.0,0.0,0.0,0.0,0.0,0.0,0.0,0.0,0.0,0.0,0.0,0.0,0.0,0.0,0.0,0.0,0.0,0.0,0.0,0.0,0.0,0.0,0.0,0.0,0.0,0.0,0.0,0.0,0.0,0.0,0.0,0.0,0.0,0.0,0.0,0.0,0.0,0.0,0.0,0.0,0.0,0.0,0.0,0.0,0.0,0.0,0.0,0.0,0.0,0.0,0.0,0.0,0.0,0.0,0.0,0.0,0.0,0.0,0.0,0.0,0.0,0.0,0.0,0.0,0.0,0.0,0.0,0.0,0.0,0.0,0.0,0.0,0.0,0.0,0.0,0.0,0.0,0.0,0.0,0.0,0.0,0.0,0.0,0.0,0.0,0.0,0.0,0.0,0.0,0.0,0.0,0.0,0.0,0.0,0.0,0.0,0.0,0.0,0.0,0.0,0.0,0.0,0.0,0.0,0.0,0.0,0.0,0.0,0.0,0.0,0.0,0.0,0.0,0.0,0.0,0.0,0.0,0.0,0.0,0.0,0.0,0.0,0.0,0.0,0.0,0.0,0.0,0.0,0.0,0.0,0.0,0.0,0.0,0.0,0.0,0.0,0.0,0.0,0.0,0.0,0.0,0.0,0.0,0.0,0.0,0.0,0.0,0.0,0.0,0.0,0.0,0.0,0.0,0.0,0.0,0.0,0.0,0.0,0.0,0.0,0.0,0.0,0.0,0.0,0.0,0.0,0.0,0.0,0.0,0.0,0.0,0.0,0.0,0.0,0.0,0.0,0.0,0.0,0.0,0.0,0.0,0.0,0.0,0.0,0.0,0.0,0.0,0.0,0.0,0.0,0.0,0.0,0.0,0.0,0.0,0.0,0.0,0.0,0.0,0.0,0.0,0.0,0.0,0.0,0.0,0.0,0.0,0.0,0.0,0.0,0.0,0.0,0.0,0.0,0.0,0.0,0.0,0.0,0.0,0.0,0.0,0.0,0.0,0.0,0.0,0.0,0.0,0.0,0.0,0.0,0.0,0.0,0.0,0.0,0.0,0.0,0.0,0.0,0.0,0.0,0.0,0.0,0.0,0.0,0.0,0.0,0.0,0.0,0.0,0.0,0.0,0.0,0.0,0.0,0.0,0.0,0.0,0.0,0.0,0.0,0.0,0.0,0.0,0.0,0.0,0.0,0.0,0.0,0.0,0.0,0.0,0.0,0.0,0.0,0.0,0.0,0.0,0.0,0.0,0.0,0.0,0.0,0.0,0.0,0.0,0.0,0.0,0.0,0.0,0.0,0.0,0.0,0.0,0.0,0.0,0.0,0.0,0.0,0.0,0.0,0.0,0.0,0.0,0.0,0.0,0.0,0.0,0.0,0.0,0.0,0.0,0.0,0.0,0.0,0.0,0.0,0.0,0.0,0.0,0.0,0.0,0.0,0.0,0.0,0.0,0.0,0.0,0.0,0.0,0.0,0.0,0.0,0.0,0.0,0.0,0.0,0.0,0.0,0.0,0.0,0.0,0.0,0.0,0.0,0.0,0.0,0.0,0.0,0.0,0.0,0.0,0.0,0.0,0.0,0.0,0.0,0.0,0.0,0.0,0.0,0.0,0.0,0.0,0.0,0.0,0.0,0.0,0.0,0.0,0.0,0.0,0.0,0.0,0.0,0.0,0.0,0.0,0.0,0.0,0.0,0.0,0.0,0.0,0.0,0.0,0.0,0.0,0.0,0.0,0.0,0.0,0.0,0.0,0.0,0.0,0.0,0.0,0.0,0.0,0.0,0.0,0.0,0.0,0.0,0.0,0.0,0.0,0.0,0.0,0.0,0.0,0.0,0.0,0.0,0.0,0.0,0.0,0.0,0.0,0.0,0.0,0.0,0.0,0.0,0.0,0.0,0.0,0.0,0.0,0.0,0.0,0.0,0.0,0.0,0.0,0.0,0.0,0.0,0.0,0.0,0.0,0.0,0.0,0.0,0.0,0.0,0.0,0.0,0.0,0.0,0.0,0.0,0.0,0.0,0.0,0.0,0.0,0.0,0.0,0.0,0.0,0.0,0.0,0.0,0.0,0.0,0.0,0.0,0.0,0.0,0.0,0.0,0.0,0.0,0.0,0.0,0.0,0.0,0.0,0.0,0.0,0.0,0.0,0.0,0.0,0.0,0.0,0.0,0.0,0.0,0.0,0.0,0.0,0.0,0.0,0.0,0.0,0.0,0.0,0.0,0.0,0.0,0.0,0.0,0.0,0.0,0.0,0.0,0.0,0.0,0.0,0.0,0.0,0.0,0.0,0.0,0.0,0.0,0.0,0.0,0.0,0.0,0.0,0.0,0.0,0.0,0.0,0.0,0.0,0.0,0.0,0.0,0.0,0.0,0.0,0.0,0.0,0.0,0.0,0.0,0.0,0.0,0.0,0.0,0.0,0.0,0.0,0.0,0.0,0.0,0.0,0.0,0.0,0.0,0.0,0.0,0.0,0.0,0.0,0.0,0.0,0.0,0.0,0.0,0.0,0.0,0.0,0.0,0.0,0.0,0.0,0.0,0.0,0.0,0.0,0.0,0.0,0.0,0.0,0.0,0.0,0.0,0.0,0.0,0.0,0.0,0.0,0.0,0.0,0.0,0.0,0.0,0.0,0.0,0.0,0.0,0.0,0.0,0.0,0.0,0.0,0.0,0.0,0.0,0.0,0.0,0.0,0.0,0.0,0.0,0.0,0.0,0.0,0.0,0.0,0.0,0.0,0.0,0.0,0.0,0.0,0.0,0.0,0.0,0.0,0.0,0.0,0.0,0.0,0.0,0.0,0.0,0.0,0.0,0.0,0.0,0.0,0.0,0.0,0.0,0.0,0.0,0.0,0.0,0.0,0.0,0.0,0.0,0.0,0.0,0.0,0.0,0.0,0.0,0.0,0.0,0.0,0.0,0.0,0.0,0.0,0.0,0.0,0.0,0.0,0.0,0.0,0.0,0.0,0.0,0.0,0.0,0.0,0.0,0.0,0.0,0.0,0.0,0.0,0.0,0.0,0.0,0.0,0.0,0.0,0.0,0.0,0.0,0.0,0.0,0.0,0.0,0.0,0.0,0.0,0.0,0.0,0.0,0.0,0.0,0.0,0.0,0.0,0.0,0.0,0.0,0.0,0.0,0.0,0.0,0.0,0.0,0.0,0.0,0.0,0.0,0.0,0.0,0.0,0.0,0.0,0.0,0.0,0.0,0.0,0.0,0.0,0.0,0.0,0.0,0.0,0.0,0.0,0.0,0.0,0.0,0.0,0.0,0.0,0.0,0.0,0.0,0.0,0.0,1.279,0.0,0.0,0.0,0.0,0.0,0.0,0.0,0.0,0.0,0.0,0.0,0.0,0.0,0.0,0.0,0.0,0.0,0.0,0.0,0.0,0.0,0.0,0.0,0.0,0.0,0.0,0.0,0.0,0.0,0.0,0.0,0.0,0.0,0.0,0.0,0.0,0.0,0.0,0.0,0.0,0.0,0.0,0.0,0.0,0.0,0.0,0.0,0.0,0.0,0.0,0.0,0.0,0.0,0.0,0.0,0.0,0.0,0.0,0.0,0.0,0.0,0.0,0.0,0.0,0.0,0.0,0.0,0.0,0.0,0.0,0.0,0.0,0.0,0.0,0.0,0.0,0.0,0.0,0.0,0.0,0.0,0.0,0.0,0.0,0.0,0.0,0.0,0.0,0.0,0.0,0.0,0.0,0.0,0.0,0.0,0.0,0.0,0.0,0.0,0.0,0.0,0.0,0.0,0.0,0.0,0.0,0.0,0.0,0.0,0.0,1.2328,1.2307,1.2487,1.2673,1.2806,0.0,0.0,0.0,0.0,0.0,0.0,0.0,0.0,0.0,0.0,0.0,0.0,0.0,0.0,0.0,0.0,0.0,0.0,0.0,0.0,0.0,0.0,0.0,0.0,0.0,0.0,0.0,0.0,0.0,0.0,0.0,0.0,0.0,0.0,0.0,0.0,0.0,0.0,0.0,0.0,0.0,0.0,0.0,0.0,0.0,0.0,0.0,0.0,0.0,0.0,0.0,0.0,0.0,0.0,0.0,0.0,0.0,0.0,0.0,0.0,0.0,0.0,0.0,0.0,0.0,0.0,0.0,0.0,0.0,0.0,0.0,0.0,0.0,0.0,0.0,0.0,0.0,0.0,0.0,0.0,0.0,0.0,0.0,0.0,0.0,0.0,0.0,0.0,0.0,0.0,0.0,0.0,0.0,0.0,0.0,0.0,0.0,0.0,0.0,0.0,0.0,0.0,0.0,0.0,0.0,0.0,0.0,0.0,0.0,0.0,0.0,0.0,1.267,1.3043,1.3394,0.0,0.0,0.0,0.0,0.0,0.0,0.0,0.0,0.0,0.0,0.0,0.0,0.0,0.0,0.0,0.0,0.0,0.0,0.0,0.0,0.0,0.0,0.0,0.0,0.0,0.0,0.0,0.0,0.0,0.0,0.0,0.0,0.0,0.0,0.0,0.0,0.0,0.0,0.0,0.0,0.0,0.0,0.0,0.0,0.0,0.0,0.0,0.0,0.0,0.0,0.0,0.0,0.0,0.0,0.0,0.0,0.0,0.0,0.0,0.0,0.0,0.0,0.0,0.0,0.0,0.0,0.0,0.0,0.0,0.0,0.0,0.0,0.0,0.0,0.0,0.0,0.0,0.0,0.0,0.0,0.0,0.0,0.0,0.0,0.0,0.0,0.0,0.0,0.0,0.0,0.0,0.0,0.0,0.0,0.0,0.0,0.0,0.0,0.0,0.0,0.0,0.0,0.0,0.0,0.0,0.0,0.0,0.0,0.0,0.0,1.2328,1.2399,1.3227,0.0,1.5091,0.0,0.0,0.0,0.0,0.0,0.0,0.0,0.0,0.0,0.0,0.0,0.0,0.0,0.0,0.0,0.0,0.0,0.0,0.0,0.0,0.0,0.0,0.0,0.0,0.0,0.0,0.0,0.0,0.0,0.0,0.0,0.0,0.0,0.0,0.0,0.0,0.0,0.0,0.0,0.0,0.0,0.0,0.0,0.0,0.0,0.0,0.0,0.0,0.0,0.0,0.0,0.0,0.0,0.0,0.0,0.0,0.0,0.0,0.0,0.0,0.0,0.0,0.0,0.0,0.0,0.0,0.0,0.0,0.0,0.0,0.0,0.0,0.0,0.0,0.0,0.0,0.0,0.0,0.0,0.0,0.0,0.0,0.0,0.0,0.0,0.0,0.0,0.0,0.0,0.0,0.0,0.0,0.0,0.0,0.0,0.0,0.0,0.0,0.0,0.0,0.0,0.0,0.0,0.0,0.0,0.0,0.0,0.0,0.0,0.0,1.2984,1.3052,1.3999,1.4791,0.0,0.0,0.0,0.0,0.0,0.0,0.0,0.0,0.0,0.0,0.0,0.0,0.0,0.0,0.0,0.0,0.0,0.0,0.0,0.0,0.0,0.0,0.0,0.0,0.0,0.0,0.0,0.0,0.0,0.0,0.0,0.0,0.0,0.0,0.0,0.0,0.0,0.0,0.0,0.0,0.0,0.0,0.0,0.0,0.0,0.0,0.0,0.0,0.0,0.0,0.0,0.0,0.0,0.0,0.0,0.0,0.0,0.0,0.0,0.0,0.0,0.0,0.0,0.0,0.0,0.0,0.0,0.0,0.0,0.0,0.0,0.0,0.0,0.0,0.0,0.0,0.0,0.0,0.0,0.0,0.0,0.0,0.0,0.0,0.0,0.0,0.0,0.0,0.0,0.0,0.0,0.0,0.0,0.0,0.0,0.0,0.0,0.0,0.0,0.0,0.0,0.0,0.0,0.0,0.0,0.0,0.0,0.0,0.0,0.0,1.3263,1.3839,1.4199,1.494,1.555,1.6007,0.0,0.0,0.0,0.0,0.0,0.0,0.0,0.0,0.0,0.0,0.0,0.0,0.0,0.0,0.0,0.0,0.0,0.0,0.0,0.0,0.0,0.0,0.0,0.0,0.0,0.0,0.0,0.0,0.0,0.0,0.0,0.0,0.0,0.0,0.0,0.0,0.0,0.0,0.0,0.0,0.0,0.0,0.0,0.0,0.0,0.0,0.0,0.0,0.0,0.0,0.0,0.0,0.0,0.0,0.0,0.0,0.0,0.0,0.0,0.0,0.0,0.0,0.0,0.0,0.0,0.0,0.0,0.0,0.0,0.0,0.0,0.0,0.0,0.0,0.0,0.0,0.0,0.0,0.0,0.0,0.0,0.0,0.0,0.0,0.0,0.0,0.0,0.0,0.0,0.0,0.0,0.0,0.0,0.0,0.0,0.0,0.0,0.0,0.0,0.0,0.0,0.0,0.0,0.0,0.0,0.0,0.0,0.0,1.3187,1.3951,1.4851,1.5836,1.6067,1.6601,0.0,0.0,0.0,0.0,0.0,0.0,0.0,0.0,0.0,0.0,0.0,0.0,0.0,0.0,0.0,0.0,0.0,0.0,0.0,0.0,0.0,0.0,0.0,0.0,0.0,0.0,0.0,0.0,0.0,0.0,0.0,0.0,0.0,0.0,0.0,0.0,0.0,0.0,0.0,0.0,0.0,0.0,0.0,0.0,0.0,0.0,0.0,0.0,0.0,0.0,0.0,0.0,0.0,0.0,0.0,0.0,0.0,0.0,0.0,0.0,0.0,0.0,0.0,0.0,0.0,0.0,0.0,0.0,0.0,0.0,0.0,0.0,0.0,0.0,0.0,0.0,0.0,0.0,0.0,0.0,0.0,0.0,0.0,0.0,0.0,0.0,0.0,0.0,0.0,0.0,0.0,0.0,0.0,0.0,0.0,0.0,0.0,0.0,0.0,0.0,0.0,0.0,0.0,0.0,0.0,0.0,0.0,0.0,0.0,1.3915,1.478,1.5729,1.6723,1.686,1.7154,0.0,0.0,0.0,0.0,0.0,0.0,0.0,0.0,0.0,0.0,0.0,0.0,0.0,0.0,0.0,0.0,0.0,0.0,0.0,0.0,0.0,0.0,0.0,0.0,0.0,0.0,0.0,0.0,0.0,0.0,0.0,0.0,0.0,0.0,0.0,0.0,0.0,0.0,0.0,0.0,0.0,0.0,0.0,0.0,0.0,0.0,0.0,0.0,0.0,0.0,0.0,0.0,0.0,0.0,0.0,0.0,0.0,0.0,0.0,0.0,0.0,0.0,0.0,0.0,0.0,0.0,0.0,0.0,0.0,0.0,0.0,0.0,0.0,0.0,0.0,0.0,0.0,0.0,0.0,0.0,0.0,0.0,0.0,0.0,0.0,0.0,0.0,0.0,0.0,0.0,0.0,0.0,0.0,0.0,0.0,0.0,0.0,0.0,0.0,0.0,0.0,0.0,0.0,0.0,0.0,0.0,0.0,0.0,0.0,1.5012,0.0,1.6429,1.7162,1.7293,1.7501,0.0,0.0,0.0,0.0,0.0,0.0,0.0,0.0,0.0,0.0,0.0,0.0,0.0,0.0,0.0,0.0,0.0,0.0,0.0,0.0,0.0,0.0,0.0,0.0,0.0,0.0,0.0,0.0,0.0,0.0,0.0,0.0,0.0,0.0,0.0,0.0,0.0,0.0,0.0,0.0,0.0,0.0,0.0,0.0,0.0,0.0,0.0,0.0,0.0,0.0,0.0,0.0,0.0,0.0,0.0,0.0,0.0,0.0,0.0,0.0,0.0,0.0,0.0,0.0,0.0,0.0,0.0,0.0,0.0,0.0,0.0,0.0,0.0,0.0,0.0,0.0,0.0,0.0,0.0,0.0,0.0,0.0,0.0,0.0,0.0,0.0,0.0,0.0,0.0,0.0,0.0,0.0,0.0,0.0,0.0,0.0,0.0,0.0,0.0,0.0,0.0,0.0,0.0,0.0,0.0,0.0,0.0,0.0,1.5768,1.6474,1.6696,1.6952,1.7214,1.7441,1.7658,0.0,0.0,0.0,0.0,0.0,0.0,0.0,0.0,0.0,0.0,0.0,0.0,0.0,0.0,0.0,0.0,0.0,0.0,0.0,0.0,0.0,0.0,0.0,0.0,0.0,0.0,0.0,0.0,0.0,0.0,0.0,0.0,0.0,0.0,0.0,0.0,0.0,0.0,0.0,0.0,0.0,0.0,0.0,0.0,0.0,0.0,0.0,0.0,0.0,0.0,0.0,0.0,0.0,0.0,0.0,0.0,0.0,0.0,0.0,0.0,0.0,0.0,0.0,0.0,0.0,0.0,0.0,0.0,0.0,0.0,0.0,0.0,0.0,0.0,0.0,0.0,0.0,0.0,0.0,0.0,0.0,0.0,0.0,0.0,0.0,0.0,0.0,0.0,0.0,0.0,0.0,0.0,0.0,0.0,0.0,0.0,0.0,0.0,0.0,0.0,0.0,0.0,0.0,0.0,0.0,0.0,0.0,0.0,0.0,1.7454,1.7618,1.7837,1.8147,1.8275,1.8202,0.0,0.0,0.0,0.0,0.0,0.0,0.0,0.0,0.0,0.0,0.0,0.0,0.0,0.0,0.0,0.0,0.0,0.0,0.0,0.0,0.0,0.0,0.0,0.0,0.0,0.0,0.0,0.0,0.0,0.0,0.0,0.0,0.0,0.0,0.0,0.0,0.0,0.0,0.0,0.0,0.0,0.0,0.0,0.0,0.0,0.0,0.0,0.0,0.0,0.0,0.0,0.0,0.0,0.0,0.0,0.0,0.0,0.0,0.0,0.0,0.0,0.0,0.0,0.0,0.0,0.0,0.0,0.0,0.0,0.0,0.0,0.0,0.0,0.0,0.0,0.0,0.0,0.0,0.0,0.0,0.0,0.0,0.0,0.0,0.0,0.0,0.0,0.0,0.0,0.0,0.0,0.0,0.0,0.0,0.0,0.0,0.0,0.0,0.0,0.0,0.0,0.0,0.0,0.0,0.0,0.0,0.0,0.0,0.0,1.8887,1.8682,1.8752,1.9123,1.9246,1.9054,1.851,0.0,0.0,0.0,0.0,0.0,0.0,0.0,0.0,0.0,0.0,0.0,0.0,0.0,0.0,0.0,0.0,0.0,0.0,0.0,0.0,0.0,0.0,0.0,0.0,0.0,0.0,0.0,0.0,0.0,0.0,0.0,0.0,0.0,0.0,0.0,0.0,0.0,0.0,0.0,0.0,0.0,0.0,0.0,0.0,0.0,0.0,0.0,0.0,0.0,0.0,0.0,0.0,0.0,0.0,0.0,0.0,0.0,0.0,0.0,0.0,0.0,0.0,0.0,0.0,0.0,0.0,0.0,0.0,0.0,0.0,0.0,0.0,0.0,0.0,0.0,0.0,0.0,0.0,0.0,0.0,0.0,0.0,0.0,0.0,0.0,0.0,0.0,0.0,0.0,0.0,0.0,0.0,0.0,0.0,0.0,0.0,0.0,0.0,0.0,0.0,0.0,0.0,0.0,0.0,0.0,0.0,0.0,0.0,2.0784,2.0022,1.977,2.0065,2.0254,2.0059,0.0,0.0,0.0,0.0,0.0,0.0,0.0,0.0,0.0,0.0,0.0,0.0,0.0,0.0,0.0,0.0,0.0,0.0,0.0,0.0,0.0,0.0,0.0,0.0,0.0,0.0,0.0,0.0,0.0,0.0,0.0,0.0,0.0,0.0,0.0,0.0,0.0,0.0,0.0,0.0,0.0,0.0,0.0,0.0,0.0,0.0,0.0,0.0,0.0,0.0,0.0,0.0,0.0,0.0,0.0,0.0,0.0,0.0,0.0,0.0,0.0,0.0,0.0,0.0,0.0,0.0,0.0,0.0,0.0,0.0,0.0,0.0,0.0,0.0,0.0,0.0,0.0,0.0,0.0,0.0,0.0,0.0,0.0,0.0,0.0,0.0,0.0,0.0,0.0,0.0,0.0,0.0,0.0,0.0,0.0,0.0,0.0,0.0,0.0,0.0,0.0,0.0,0.0,0.0,0.0,0.0,0.0,0.0,0.0,2.3158,2.2563,2.1771,2.0926,2.1084,2.0868,0.0,0.0,0.0,0.0,0.0,0.0,0.0,0.0,0.0,0.0,0.0,0.0,0.0,0.0,0.0,0.0,0.0,0.0,0.0,0.0,0.0,0.0,0.0,0.0,0.0,0.0,0.0,0.0,0.0,0.0,0.0,0.0,0.0,0.0,0.0,0.0,0.0,0.0,0.0,0.0,0.0,0.0,0.0,0.0,0.0,0.0,0.0,0.0,0.0,0.0,0.0,0.0,0.0,0.0,0.0,0.0,0.0,0.0,0.0,0.0,0.0,0.0,0.0,0.0,0.0,0.0,0.0,0.0,0.0,0.0,0.0,0.0,0.0,0.0,0.0,0.0,0.0,0.0,0.0,0.0,0.0,0.0,0.0,0.0,0.0,0.0,0.0,0.0,0.0,0.0,0.0,0.0,0.0,0.0,0.0,0.0,0.0,0.0,0.0,0.0,0.0,0.0,0.0,0.0,0.0,0.0,0.0,0.0,2.3286,2.4313,2.3949,2.339,2.2691,2.2249,2.1737,0.0,0.0,0.0,0.0,0.0,0.0,0.0,0.0,0.0,0.0,0.0,0.0,0.0,0.0,0.0,0.0,0.0,0.0,0.0,0.0,0.0,0.0,0.0,0.0,0.0,0.0,0.0,0.0,0.0,0.0,0.0,0.0,0.0,0.0,0.0,0.0,0.0,0.0,0.0,0.0,0.0,0.0,0.0,0.0,0.0,0.0,0.0,0.0,0.0,0.0,0.0,0.0,0.0,0.0,0.0,0.0,0.0,0.0,0.0,0.0,0.0,0.0,0.0,0.0,0.0,0.0,0.0,0.0,0.0,0.0,0.0,0.0,0.0,0.0,0.0,0.0,0.0,0.0,0.0,0.0,0.0,0.0,0.0,0.0,0.0,0.0,0.0,0.0,0.0,0.0,0.0,0.0,0.0,0.0,0.0,0.0,0.0,0.0,0.0,0.0,0.0,0.0,0.0,0.0,0.0,0.0,0.0,0.0,2.4527,2.4743,2.4668,2.4661,2.4811,2.3677,2.274,0.0,0.0,0.0,0.0,0.0,0.0,0.0,0.0,0.0,0.0,0.0,0.0,0.0,0.0,0.0,0.0,0.0,0.0,0.0,0.0,0.0,0.0,0.0,0.0,0.0,0.0,0.0,0.0,0.0,0.0,0.0,0.0,0.0,0.0,0.0,0.0,0.0,0.0,0.0,0.0,0.0,0.0,0.0,0.0,0.0,0.0,0.0,0.0,0.0,0.0,0.0,0.0,0.0,0.0,0.0,0.0,0.0,0.0,0.0,0.0,0.0,0.0,0.0,0.0,0.0,0.0,0.0,0.0,0.0,0.0,0.0,0.0,0.0,0.0,0.0,0.0,0.0,0.0,0.0,0.0,0.0,0.0,0.0,0.0,0.0,0.0,0.0,0.0,0.0,0.0,0.0,0.0,0.0,0.0,0.0,0.0,0.0,0.0,0.0,0.0,0.0,0.0,0.0,0.0,0.0,0.0,0.0,0.0,2.5667,2.6366,2.5734,2.5483,2.5706,2.5114,2.4407,0.0,0.0,0.0,0.0,0.0,0.0,0.0,0.0,0.0,0.0,0.0,0.0,0.0,0.0,0.0,0.0,0.0,0.0,0.0,0.0,0.0,0.0,0.0,0.0,0.0,0.0,0.0,0.0,0.0,0.0,0.0,0.0,0.0,0.0,0.0,0.0,0.0,0.0,0.0,0.0,0.0,0.0,0.0,0.0,0.0,0.0,0.0,0.0,1.7843,0.0,0.0,0.0,0.0,0.0,0.0,0.0,0.0,0.0,0.0,0.0,0.0,0.0,0.0,0.0,0.0,0.0,0.0,0.0,0.0,0.0,0.0,0.0,0.0,0.0,0.0,0.0,0.0,0.0,0.0,0.0,0.0,0.0,0.0,0.0,0.0,0.0,0.0,0.0,0.0,0.0,0.0,0.0,0.0,0.0,0.0,0.0,0.0,0.0,0.0,0.0,0.0,0.0,0.0,0.0,0.0,0.0,0.0,0.0,2.6459,2.6916,2.6477,2.6296,2.651,2.6462,2.5715,0.0,0.0,0.0,0.0,0.0,0.0,0.0,0.0,0.0,0.0,0.0,0.0,0.0,0.0,0.0,0.0,0.0,0.0,0.0,0.0,0.0,0.0,0.0,0.0,0.0,0.0,0.0,0.0,0.0,0.0,0.0,0.0,0.0,0.0,0.0,0.0,0.0,0.0,0.0,0.0,0.0,0.0,0.0,0.0,0.0,0.0,0.0,0.0,0.0,0.0,0.0,0.0,0.0,0.0,0.0,0.0,0.0,0.0,0.0,0.0,0.0,0.0,0.0,0.0,0.0,0.0,0.0,0.0,0.0,0.0,0.0,0.0,0.0,0.0,0.0,0.0,0.0,0.0,0.0,0.0,0.0,0.0,0.0,0.0,0.0,0.0,0.0,0.0,0.0,0.0,0.0,0.0,0.0,0.0,0.0,0.0,0.0,0.0,0.0,0.0,0.0,0.0,0.0,0.0,0.0,0.0,0.0,2.6299,2.6958,2.7007,2.6933,2.6975,2.7143,2.7489,2.668,2.4604,0.0,0.0,0.0,0.0,0.0,0.0,0.0,0.0,0.0,0.0,0.0,0.0,0.0,0.0,0.0,0.0,0.0,0.0,0.0,0.0,0.0,0.0,0.0,0.0,0.0,0.0,0.0,0.0,0.0,0.0,0.0,0.0,0.0,0.0,0.0,0.0,0.0,0.0,1.7262,1.8476,0.0,0.0,0.0,0.0,0.0,0.0,0.0,0.0,2.1355,0.0,0.0,0.0,0.0,0.0,0.0,0.0,0.0,0.0,0.0,0.0,0.0,0.0,0.0,0.0,0.0,0.0,0.0,0.0,0.0,0.0,0.0,0.0,0.0,0.0,0.0,0.0,0.0,0.0,0.0,0.0,0.0,0.0,0.0,0.0,0.0,0.0,0.0,0.0,0.0,0.0,0.0,0.0,0.0,0.0,0.0,0.0,0.0,0.0,0.0,0.0,0.0,0.0,0.0,0.0,0.0,2.5823,2.6633,2.707,2.7086,2.6966,2.704,2.7341,2.7592,2.6961,2.5508,0.0,0.0,0.0,0.0,0.0,0.0,0.0,0.0,0.0,0.0,0.0,0.0,0.0,0.0,0.0,0.0,0.0,0.0,0.0,0.0,0.0,0.0,0.0,0.0,0.0,0.0,0.0,0.0,0.0,0.0,0.0,0.0,0.0,0.0,0.0,0.0,0.0,0.0,0.0,2.0232,2.0923,0.0,0.0,0.0,0.0,0.0,0.0,0.0,0.0,2.1701,0.0,0.0,0.0,0.0,0.0,0.0,0.0,0.0,0.0,0.0,0.0,0.0,0.0,0.0,0.0,0.0,0.0,0.0,0.0,0.0,0.0,0.0,0.0,0.0,0.0,0.0,0.0,0.0,0.0,0.0,0.0,0.0,0.0,0.0,0.0,0.0,0.0,0.0,0.0,0.0,0.0,0.0,0.0,0.0,0.0,0.0,0.0,0.0,0.0,0.0,0.0,0.0,0.0,0.0,0.0,2.6099,2.7184,2.772,2.772,2.7663,2.7729,2.7962,2.7802,2.7053,0.0,0.0,0.0,0.0,0.0,0.0,0.0,0.0,0.0,0.0,0.0,0.0,0.0,0.0,0.0,0.0,0.0,0.0,0.0,0.0,0.0,0.0,0.0,0.0,0.0,0.0,0.0,0.0,0.0,0.0,0.0,0.0,0.0,0.0,0.0,0.0,0.0,0.0,0.0,0.0,2.125,2.18,2.2162,0.0,0.0,0.0,0.0,0.0,0.0,2.3473,2.3794,0.0,0.0,0.0,0.0,0.0,0.0,0.0,0.0,0.0,0.0,0.0,0.0,0.0,0.0,0.0,0.0,0.0,0.0,0.0,0.0,0.0,0.0,0.0,0.0,0.0,0.0,0.0,0.0,0.0,0.0,0.0,0.0,0.0,0.0,0.0,0.0,0.0,0.0,0.0,0.0,0.0,0.0,0.0,0.0,0.0,0.0,0.0,0.0,0.0,0.0,0.0,0.0,0.0,0.0,0.0,2.6637,2.7756,2.8406,2.8526,2.8527,2.8525,2.8516,2.8141,2.7211,0.0,0.0,0.0,0.0,0.0,0.0,0.0,0.0,0.0,0.0,0.0,0.0,0.0,0.0,0.0,0.0,0.0,0.0,0.0,0.0,0.0,0.0,0.0,0.0,0.0,0.0,0.0,0.0,0.0,0.0,0.0,0.0,0.0,0.0,0.0,0.0,0.0,0.0,0.0,0.0,0.0,2.2829,2.3076,2.3073,0.0,0.0,0.0,0.0,2.4265,2.525,0.0,0.0,0.0,0.0,0.0,0.0,0.0,0.0,0.0,0.0,0.0,0.0,0.0,0.0,0.0,0.0,0.0,0.0,0.0,0.0,0.0,0.0,0.0,0.0,0.0,0.0,0.0,0.0,0.0,0.0,0.0,0.0,0.0,0.0,0.0,0.0,0.0,0.0,0.0,0.0,0.0,0.0,0.0,0.0,0.0,0.0,0.0,0.0,0.0,0.0,0.0,0.0,0.0,0.0,0.0,0.0,2.8145,2.8324,2.8722,2.9317,2.9291,2.9058,2.8612,2.8751,2.7818,0.0,0.0,0.0,0.0,0.0,0.0,0.0,0.0,0.0,0.0,0.0,0.0,0.0,0.0,0.0,0.0,0.0,0.0,0.0,0.0,0.0,0.0,0.0,0.0,0.0,0.0,0.0,0.0,0.0,0.0,0.0,0.0,0.0,0.0,0.0,0.0,0.0,0.0,0.0,0.0,0.0,2.4704,2.5996,2.6036,2.5905,0.0,0.0,2.5766,2.5754,2.5997,0.0,0.0,0.0,0.0,0.0,0.0,0.0,0.0,0.0,0.0,0.0,0.0,0.0,0.0,0.0,0.0,0.0,0.0,0.0,0.0,0.0,0.0,0.0,0.0,0.0,0.0,0.0,0.0,0.0,0.0,0.0,0.0,0.0,0.0,0.0,0.0,0.0,0.0,0.0,0.0,0.0,0.0,0.0,0.0,0.0,0.0,0.0,0.0,0.0,0.0,0.0,0.0,0.0,0.0,0.0,2.663,2.8512,2.9315,2.9851,3.0162,3.0153,2.9868,2.9289,2.9053,2.7873,0.0,0.0,0.0,0.0,0.0,0.0,0.0,0.0,0.0,0.0,0.0,0.0,0.0,0.0,0.0,0.0,0.0,0.0,0.0,0.0,0.0,0.0,0.0,0.0,0.0,0.0,0.0,0.0,0.0,0.0,0.0,0.0,0.0,0.0,0.0,0.0,0.0,0.0,0.0,0.0,0.0,0.0,2.6564,2.705,0.0,0.0,0.0,2.8104,2.7671,0.0,0.0,0.0,0.0,0.0,0.0,0.0,0.0,0.0,0.0,0.0,0.0,0.0,0.0,0.0,0.0,0.0,0.0,0.0,0.0,0.0,0.0,0.0,0.0,0.0,0.0,0.0,0.0,0.0,0.0,0.0,0.0,0.0,0.0,0.0,0.0,0.0,0.0,0.0,0.0,0.0,0.0,0.0,0.0,0.0,0.0,0.0,0.0,0.0,0.0,0.0,0.0,0.0,0.0,0.0,0.0,0.0,2.8872,3.0101,3.0792,3.0981,3.099,3.0586,2.9778,2.9341,0.0,0.0,0.0,0.0,0.0,0.0,0.0,0.0,0.0,0.0,0.0,0.0,0.0,0.0,0.0,0.0,0.0,0.0,0.0,0.0,0.0,0.0,0.0,0.0,0.0,0.0,0.0,1.7771,0.0,0.0,0.0,0.0,0.0,0.0,0.0,0.0,0.0,0.0,0.0,0.0,0.0,0.0,2.6725,2.77,2.8553,2.8982,0.0,0.0,3.0263,2.9457,2.9624,2.9506,0.0,0.0,0.0,0.0,0.0,0.0,0.0,0.0,0.0,0.0,0.0,0.0,0.0,0.0,0.0,0.0,0.0,0.0,0.0,0.0,0.0,0.0,0.0,0.0,0.0,0.0,0.0,0.0,0.0,0.0,0.0,0.0,0.0,0.0,0.0,0.0,0.0,0.0,0.0,0.0,0.0,0.0,0.0,0.0,0.0,0.0,0.0,0.0,0.0,0.0,0.0,0.0,0.0,0.0,0.0,2.9645,3.043,3.1105,3.1679,3.174,3.106,2.9669,2.9699,2.8343,0.0,0.0,0.0,0.0,0.0,0.0,0.0,0.0,0.0,0.0,0.0,0.0,0.0,0.0,0.0,0.0,0.0,0.0,0.0,0.0,0.0,0.0,0.0,0.0,0.0,0.0,0.0,0.0,0.0,0.0,0.0,0.0,0.0,0.0,0.0,0.0,0.0,0.0,0.0,0.0,0.0,2.9269,3.0688,3.1539,3.177,0.0,0.0,3.1703,3.097,3.0364,2.9992,3.003,0.0,0.0,0.0,0.0,0.0,0.0,0.0,0.0,0.0,0.0,0.0,0.0,0.0,0.0,0.0,0.0,0.0,0.0,0.0,0.0,0.0,0.0,0.0,0.0,0.0,0.0,0.0,0.0,0.0,0.0,0.0,0.0,0.0,0.0,0.0,0.0,0.0,0.0,0.0,0.0,0.0,0.0,0.0,0.0,0.0,0.0,0.0,0.0,0.0,0.0,0.0,0.0,0.0,2.8744,3.0455,3.115,3.1581,3.1792,3.1718,3.1202,3.0248,2.9876,2.8445,0.0,0.0,0.0,0.0,0.0,0.0,0.0,0.0,0.0,0.0,0.0,0.0,0.0,0.0,0.0,0.0,0.0,0.0,0.0,0.0,0.0,0.0,0.0,0.0,0.0,0.0,0.0,0.0,2.0004,2.0374,2.0277,0.0,0.0,0.0,0.0,0.0,0.0,0.0,0.0,0.0,0.0,2.9734,3.1714,3.2673,0.0,0.0,3.3748,3.3629,3.2914,3.2153,3.1384,3.0589,2.9874,0.0,0.0,0.0,0.0,0.0,0.0,0.0,0.0,0.0,0.0,0.0,0.0,0.0,0.0,0.0,0.0,0.0,0.0,0.0,0.0,0.0,0.0,0.0,0.0,0.0,0.0,0.0,0.0,0.0,0.0,0.0,0.0,0.0,0.0,0.0,0.0,0.0,0.0,0.0,0.0,0.0,0.0,0.0,0.0,0.0,0.0,0.0,0.0,0.0,0.0,0.0,0.0,2.9524,3.095,3.1836,3.2117,3.1754,3.1885,3.1523,3.0589,3.0074,2.874,0.0,0.0,0.0,0.0,0.0,0.0,0.0,0.0,0.0,0.0,0.0,0.0,0.0,0.0,0.0,0.0,0.0,0.0,0.0,0.0,0.0,0.0,0.0,0.0,0.0,0.0,0.0,0.0,2.1065,2.1419,2.1374,0.0,0.0,0.0,0.0,0.0,0.0,0.0,0.0,0.0,0.0,3.0771,3.2596,3.3973,3.487,3.5055,3.5285,3.5185,3.441,3.3439,3.2404,3.143,0.0,0.0,0.0,0.0,0.0,0.0,0.0,0.0,0.0,0.0,0.0,0.0,0.0,0.0,0.0,0.0,0.0,0.0,0.0,0.0,0.0,0.0,0.0,0.0,0.0,0.0,0.0,0.0,0.0,0.0,2.4709,0.0,0.0,0.0,0.0,0.0,0.0,0.0,0.0,0.0,0.0,0.0,0.0,0.0,0.0,0.0,0.0,0.0,0.0,0.0,0.0,0.0,0.0,2.9664,3.1113,3.2474,3.2663,3.1703,3.2372,3.2015,3.0526,3.0397,2.9296,2.705,0.0,0.0,0.0,0.0,0.0,0.0,0.0,0.0,0.0,0.0,0.0,0.0,0.0,0.0,0.0,0.0,0.0,0.0,0.0,0.0,0.0,0.0,0.0,0.0,0.0,0.0,2.1799,2.2547,2.2893,0.0,0.0,0.0,0.0,0.0,0.0,0.0,0.0,0.0,0.0,3.1678,3.2871,3.3598,3.5677,3.6624,3.5393,3.5916,3.6163,3.5305,3.3912,3.2861,0.0,0.0,0.0,0.0,0.0,0.0,0.0,0.0,0.0,0.0,0.0,0.0,0.0,0.0,0.0,0.0,0.0,0.0,0.0,0.0,0.0,0.0,0.0,0.0,0.0,0.0,0.0,2.4486,2.448,0.0,0.0,0.0,0.0,0.0,0.0,0.0,0.0,0.0,0.0,0.0,2.9332,2.9193,0.0,0.0,0.0,0.0,0.0,0.0,0.0,0.0,0.0,0.0,0.0,0.0,3.167,3.2572,3.3502,3.3751,3.3279,3.2875,3.2418,3.1883,3.0827,2.9215,2.7002,0.0,0.0,0.0,0.0,0.0,0.0,0.0,0.0,0.0,0.0,0.0,0.0,0.0,0.0,0.0,0.0,0.0,0.0,0.0,0.0,0.0,0.0,0.0,0.0,0.0,2.2124,0.0,0.0,0.0,0.0,0.0,0.0,0.0,0.0,0.0,0.0,0.0,2.9935,3.169,3.275,3.3813,3.5056,3.5611,3.5934,0.0,0.0,0.0,0.0,0.0,0.0,0.0,0.0,0.0,0.0,0.0,0.0,0.0,0.0,2.8921,2.8034,2.7876,2.7829,2.7735,0.0,0.0,0.0,0.0,0.0,0.0,0.0,0.0,0.0,0.0,0.0,0.0,0.0,0.0,0.0,0.0,2.6008,0.0,0.0,0.0,0.0,0.0,0.0,0.0,0.0,3.1497,3.1753,3.1728,3.1609,3.1426,0.0,3.1037,2.9778,0.0,0.0,0.0,0.0,0.0,0.0,0.0,0.0,3.2862,3.3762,3.4454,3.4551,3.4113,3.3644,3.312,3.2551,3.1006,2.9454,2.8004,2.6843,2.5858,0.0,0.0,0.0,0.0,0.0,0.0,0.0,0.0,0.0,0.0,0.0,0.0,0.0,0.0,0.0,0.0,0.0,0.0,0.0,0.0,0.0,0.0,0.0,2.3456,0.0,0.0,0.0,0.0,0.0,0.0,0.0,0.0,0.0,2.796,2.9238,3.0801,3.2594,3.3448,3.4275,3.5282,0.0,0.0,0.0,0.0,0.0,0.0,0.0,3.568,3.5143,3.4531,3.391,3.336,3.3051,3.2832,3.2758,0.0,0.0,2.9854,2.9502,2.9555,2.9719,3.0285,3.0776,3.092,3.1482,3.1961,0.0,0.0,0.0,0.0,0.0,0.0,0.0,0.0,2.8759,2.8734,0.0,2.8768,0.0,0.0,0.0,0.0,0.0,0.0,0.0,0.0,3.3969,3.4708,3.4736,3.4637,3.4221,3.3465,3.3394,3.2947,3.2056,3.0586,0.0,0.0,0.0,0.0,0.0,0.0,3.3248,3.4688,3.5277,3.5089,3.4251,3.4631,3.4117,3.2532,3.0995,3.0094,2.9847,2.8443,2.7254,2.6363,2.556,0.0,0.0,0.0,0.0,0.0,0.0,0.0,0.0,0.0,0.0,0.0,0.0,0.0,0.0,0.0,0.0,0.0,0.0,0.0,0.0,2.3988,0.0,0.0,0.0,0.0,0.0,0.0,0.0,0.0,0.0,0.0,2.9805,2.9886,3.0667,3.2866,0.0,0.0,0.0,0.0,3.6865,3.6898,3.7046,3.7336,3.791,3.7272,3.6682,3.6535,0.0,0.0,3.6013,3.5986,3.5814,3.5639,3.5472,3.4621,3.1546,3.106,3.1235,3.187,3.2498,3.314,3.3753,3.4148,3.4662,3.1941,0.0,0.0,0.0,0.0,3.07,3.0664,3.0617,3.0664,3.0366,2.9854,2.9911,0.0,0.0,0.0,0.0,0.0,0.0,3.3591,3.4092,3.4559,3.4699,3.457,3.4569,3.4427,3.4189,3.4141,3.401,3.3803,3.3339,3.2607,3.1653,0.0,0.0,0.0,0.0,3.5194,3.5633,3.611,3.6178,3.5803,3.5204,3.4092,3.2395,3.1914,3.1117,2.9938,2.9422,2.8524,2.7145,2.6331,0.0,0.0,0.0,0.0,0.0,0.0,0.0,0.0,0.0,0.0,0.0,0.0,0.0,0.0,0.0,0.0,0.0,0.0,0.0,2.4632,2.5333,2.5724,0.0,0.0,0.0,0.0,0.0,0.0,0.0,0.0,0.0,3.1985,3.2646,3.3258,0.0,0.0,3.5429,3.5949,3.6089,3.6289,3.6832,0.0,0.0,0.0,3.7781,3.7462,3.7435,3.6801,3.6276,3.6233,3.6104,3.5961,3.5899,3.5801,3.5377,3.451,3.4151,3.4118,3.4258,3.4419,3.4549,3.4608,3.48,3.4925,3.5493,3.4357,3.2936,3.2332,3.2366,3.2332,3.2332,3.2349,3.2388,3.2132,3.1693,3.1762,3.1517,3.1141,3.1865,0.0,0.0,0.0,3.5393,3.6067,3.6431,3.6515,3.6398,3.6416,3.6398,3.6416,3.6339,3.6386,3.6476,3.617,3.579,3.5286,0.0,0.0,3.4801,3.5623,3.6176,3.6429,3.6681,3.6745,3.6575,3.5528,3.4281,3.2873,3.2534,3.1742,3.0385,2.9976,2.9326,2.831,2.7219,2.6428,0.0,0.0,0.0,0.0,0.0,0.0,0.0,0.0,0.0,0.0,0.0,2.2984,0.0,0.0,0.0,0.0,2.4565,2.5384,2.6072,2.6509,0.0,0.0,0.0,0.0,0.0,0.0,0.0,3.0059,3.1035,3.2152,3.3546,3.4652,3.5225,3.4972,3.5612,3.6273,3.6717,0.0,3.6579,3.7305,3.7849,3.8298,3.858,3.8384,3.8155,3.8049,3.7543,3.7161,3.7145,3.7028,3.6927,3.6872,3.6803,3.6708,3.6541,3.6444,3.622,3.5783,3.5663,3.5727,3.5876,3.594,3.5955,3.9224,3.877,3.5462,3.4155,3.4192,3.4069,3.4114,3.422,3.422,3.4189,3.4134,3.4163,3.429,3.4446,3.4688,0.0,3.6146,3.6869,3.7554,3.8237,3.8981,3.9315,3.9305,3.9305,3.9305,3.9287,3.9322,3.9385,3.9438,3.8725,3.887,3.9696,3.6739,3.5585,3.6274,3.6394,3.673,3.7323,3.7199,3.6968,3.6654,3.5701,3.4675,3.3628,3.2951,3.212,3.1059,3.0314,2.9814,2.9562,2.8244,2.7466,2.7341,0.0,0.0,0.0,0.0,0.0,0.0,0.0,0.0,0.0,0.0,0.0,0.0,0.0,0.0,0.0,2.587,0.0,2.7443,2.7602,0.0,0.0,0.0,2.8871,2.8871,3.0129,3.1034,3.1147,0.0,0.0,3.4677,0.0,3.6708,3.592,3.6469,3.6928,3.7006,3.7129,3.7437,3.8166,3.8282,3.8543,3.912,3.8974,3.8701,3.8467,3.8434,3.8367,3.8367,3.8367,3.8345,3.8325,3.8316,3.8277,3.8136,3.8108,3.7815,3.6936,3.6624,3.672,3.7256,3.7413,3.7427,3.9483,3.9304,3.8446,3.7962,3.7769,3.773,3.773,3.7758,3.7769,3.7422,3.6849,3.6853,3.7004,3.7231,3.7301,3.7824,3.8706,3.8893,3.9088,3.9254,3.9431,3.9514,3.9457,3.9457,3.944,3.9467,3.944,3.9501,3.956,3.9393,3.9453,3.9749,3.9087,3.8877,3.9112,3.9132,3.9201,3.9302,3.8435,3.7486,3.6423,3.61,3.5203,3.3731,3.3509,3.2702,3.1228,3.0962,3.0464,2.9639,2.925,2.8778,2.817,2.7812,0.0,0.0,0.0,0.0,0.0,0.0,0.0,0.0,0.0,2.5331,2.5891,0.0,2.6756,0.0,2.7187,2.761,2.827,2.8823,0.0,0.0,3.0711,3.1184,3.12,3.2004,3.2769,3.3425,3.4554,3.5558,3.6242,3.7226,3.7816,3.7608,3.7287,3.725,3.7796,3.7924,3.8199,3.8854,3.9004,3.9103,3.9255,3.9107,3.892,3.8736,3.8711,3.8708,3.8708,3.8708,3.8874,3.9352,3.9402,3.9484,3.9777,3.9803,3.9622,3.9217,3.8328,3.7596,3.7771,3.7819,3.7833,4.0663,4.063,4.0612,4.0507,4.0255,3.9415,3.9048,3.9037,3.9037,3.8842,3.8475,3.8551,3.8692,3.8821,3.8838,3.9287,4.0096,4.0131,4.0316,4.067,4.1007,4.1135,4.1117,4.1471,4.163,4.163,4.1647,4.1676,4.1756,4.1419,4.1301,4.1439,4.1239,4.1121,4.1152,4.0519,4.0151,4.0028,3.8896,3.789,3.7089,3.6582,3.5552,3.4011,3.3842,3.302,3.1412,3.1249,3.0889,3.0242,2.9828,2.94,2.8951,2.8604,2.8298,0.0,0.0,0.0,0.0,0.0,0.0,0.0,0.0,0.0,0.0,0.0,2.7933,0.0,2.8823,2.9247,2.9883,3.0351,3.0916,3.1669,3.2458,3.3064,3.34,3.4143,3.4791,3.5228,3.6106,3.6982,3.7784,3.8679,3.9395,3.9711,3.9448,3.9082,3.8735,3.8692,3.8854,3.9219,3.9315,3.9391,3.9605,3.9559,3.9564,3.9734,3.9771,3.9771,3.9785,3.9785,3.9919,4.0279,4.0322,4.0381,4.0652,4.0661,4.0588,4.0415,3.9853,3.9235,3.8922,3.8878,3.8892,4.2242,4.219,4.2083,4.2048,4.192,4.032,3.9568,3.9469,3.9476,3.9529,3.9669,3.982,3.9929,3.9921,4.0028,4.0481,4.1126,4.1243,4.1668,4.2367,4.3005,4.3288,4.3324,4.4008,4.4356,4.4338,4.4338,4.4412,4.4504,4.3807,4.3529,4.3636,4.2979,4.2647,4.2613,4.1268,4.0486,4.0219,3.9057,3.8297,3.7985,3.7026,3.5758,3.4275,3.4009,3.3137,3.1566,3.1308,3.1151,3.0968,3.0205,2.9756,2.9716,2.9045,2.8658,0.0,2.8516,0.0,0.0,0.0,0.0,0.0,0.0,0.0,0.0,2.8207,2.8731,2.9903,3.0525,3.1155,3.1847,3.2023,3.2434,3.3269,3.3982,3.4686,3.5328,3.6173,3.6738,3.6862,3.7728,3.8609,3.9387,4.0236,4.1021,4.1472,4.1601,4.1133,3.9984,3.9667,3.9704,3.9591,3.9594,3.9874,4.0213,4.0287,4.0459,4.092,4.0955,4.1056,4.0988,4.1005,4.1039,4.1154,4.1203,4.1207,4.1273,4.1309,4.1295,4.1331,4.1267,4.0975,4.0331,4.013,4.0259,4.3275,4.3159,4.251,4.2253,4.2243,4.2417,4.2104,4.1449,4.1449,4.146,4.1481,4.1534,4.158,4.1681,4.2324,4.2757,4.3027,4.3615,4.396,4.4121,4.4263,4.4317,4.4335,4.4477,4.4548,4.4548,4.453,4.4559,4.4592,4.4438,4.4414,4.4521,4.3772,4.3458,4.3504,0.0,0.0,0.0,3.9841,3.8867,3.8003,3.7026,3.5758,3.4268,3.3992,0.0,3.161,3.1358,3.1166,3.0925,3.0747,0.0,0.0,0.0,0.0,0.0,0.0,0.0,0.0,0.0,0.0,0.0,3.1255,3.0932,3.037,3.0851,3.1304,3.154,3.1685,3.2272,3.3508,3.3646,3.4239,3.5623,3.5968,3.615,3.643,3.7196,3.7969,3.8685,3.9554,4.0417,4.1193,4.1545,4.172,4.189,4.1884,4.1784,4.1492,4.1285,4.1219,4.1222,4.0995,4.0997,4.112,4.1139,4.1191,4.1309,4.1326,4.1345,4.1378,4.1392,4.159,4.2055,4.2118,4.2257,4.2782,4.2825,4.2667,4.2687,4.2702,4.2329,4.113,4.0839,4.0854,4.4275,0.0,4.3811,4.3624,0.0,4.3991,4.3903,4.3472,4.3312,4.324,4.3283,4.3283,4.3298,4.3351,4.3743,4.3989,4.4061,4.4435,4.4585,4.4631,4.5006,4.5202,4.5202,4.5595,4.5784,4.5784,4.5773,4.5773,4.5755,4.5363,4.5217,4.5301,4.4486,4.411,4.4128,4.3282,4.2434,4.1589,4.063,3.9654,3.8653,3.7666,3.6452,3.5004,0.0,0.0,0.0,0.0,0.0,0.0,0.0,0.0,0.0,0.0,0.0,3.2166,3.2117,3.2193,3.2437,3.2672,3.291,3.3221,3.3905,3.3502,3.1623,3.2492,3.3145,3.3161,3.3852,3.4606,3.529,3.5388,3.5837,3.6976,3.7203,3.7511,3.8268,3.8913,3.9604,4.0352,4.0921,4.1545,4.2353,4.2503,4.2713,4.3001,4.3168,4.3193,4.3146,4.2392,4.1791,4.1724,4.1524,4.1527,4.1844,4.1943,4.2106,4.2357,4.2487,4.2473,4.2487,4.2576,4.2783,4.3117,4.32,4.3331,4.3614,4.3656,4.3595,4.3611,4.3611,4.3429,4.2636,4.2285,4.2048,4.5219,4.5198,4.5054,4.5018,4.5018,4.5144,4.527,4.5357,0.0,0.0,0.0,4.4624,4.4585,4.4614,4.4756,4.481,4.4828,4.4953,4.5006,4.506,4.5713,4.6016,4.6034,4.6676,4.7009,4.7009,4.7009,4.7009,4.6973,4.632,4.5998,4.5945,4.5191,4.4687,4.4423,4.3674,4.3007,4.2438,4.1336,4.0366,3.9484,3.8517,3.731,3.5868,3.5547,3.4942,3.4061,3.3237,3.2668,3.2493,3.2324,3.2167,3.2067,3.2628,3.3006,3.3112,3.3145,3.3194,3.3332,3.3787,3.4343,3.4927,3.6076,3.5651,3.2999,3.3982,3.4712,3.4741,3.5936,3.6751,3.6908,3.6924,3.7311,3.8186,3.8401,3.898,4.0211,4.0665,4.1109,4.181,4.2068,4.2453,4.3202,4.3387,4.3642,4.4181,4.435,4.4584,4.4404,4.3314,4.242,4.2297,4.2178,4.2145,4.2593,4.2761,4.2995,4.3485,4.3634,4.3702,4.3717,4.3822,4.3927,4.3841,4.4027,4.4068,4.4097,4.4054,4.4097,4.4097,4.4097,4.4097,4.4054,4.3654,4.3259,4.6092,4.5971,4.5288,4.5018,4.5065,4.5737,4.6385,4.6841,4.5409,4.4754,4.4754,4.4639,4.4585,4.4638,4.532,4.5641,4.5677,4.6337,4.667,0.0,4.6777,4.6819,4.683,4.6938,4.7009,4.7009,4.7009,4.7009,4.6991,4.6884,4.683,4.6701,4.5904,4.5098,4.4371,4.4087,4.3907,4.3777,4.1713,4.0468,4.0154,3.9294,3.8055,3.6474,3.6197,3.5314,3.3813,3.3581,3.3365,3.3178,3.3136,3.3038,3.2925,3.3042,3.3343,3.3985,3.4599,3.5143,3.5683,3.635,3.6754,3.6742,3.6928,3.6731,3.6122,3.6224,3.6351,3.6381,3.6652,3.7016,3.7705,3.7863,3.85,3.9923,4.021,4.0611,4.1521,4.1774,4.2152,4.2891,4.31,4.3486,4.4111,4.4308,4.4356,4.4522,4.457,4.4584,4.4519,4.4243,4.3922,4.3781,4.3654,4.366,4.3702,4.3744,4.3746,4.3977,4.401,4.3996,4.3981,4.4025,4.4068,4.4068,4.4097,4.4143,4.4126,4.4097,4.4126,4.414,4.414,4.4126,4.414,4.3979,4.3894,4.7051,4.6973,4.6619,4.6457,4.6493,4.6854,4.7197,4.7446,4.6636,4.6219,4.6144,4.6101,4.6061,4.6086,4.6455,4.6601,4.6581,4.6939,4.7048,4.7009,4.7009,4.7009,4.7009,4.7009,4.7009,4.7009,4.7009,4.7009,4.7009,4.7009,4.7009,4.6962,4.6422,4.5905,4.5423,4.4894,4.4642,4.4607,4.3079,4.1842,4.0908,4.0408,3.9365,3.7802,3.7522,3.707,3.6285,3.5309,3.4739,3.4614,3.4537,3.4438,3.4309,3.5103,3.5754,3.6078,3.6402,3.6726,3.6985,3.7631,3.7987,3.7936,3.8287,3.8469,3.8339,3.7884,3.7617,3.763,3.8026,3.8651,3.9432,3.9511,4.0001,4.1186,4.1368,4.1738,4.2458,4.2735,4.3121,4.381,4.4004,4.4181,4.455,4.4584,4.4584,4.4584,4.4584,4.4598,4.4598,4.4528,4.4395,4.4224,4.4083,4.4025,4.4099,4.407,4.4041,4.4097,4.4097,4.4097,4.4112,4.4138,4.4196,4.421,4.4301,4.4372,4.4372,4.4372,4.4372,4.4355,4.4372,4.4372,4.4372,4.4284,4.4152,4.7689,4.7689,4.7689,4.7689,4.7689,4.7689,4.7689,4.7678,4.7575,4.749,4.7396,4.7313,4.7309,4.7309,4.7309,4.7265,4.7234,4.7223,4.7138,4.7054,4.7043,4.7121,4.727,4.7288,4.7348,4.7497,4.7515,4.7509,4.7533,4.7515,4.7492,4.7387,4.7033,4.6742,4.6591,4.5778,4.5337,4.5248,4.4549,4.3429,4.1934,4.1673,4.0845,3.9346,3.9021,3.8728,3.8294,3.7013,3.6254,3.6209,3.6083,3.598,3.5966,3.7045,3.7745,3.7761,3.7913,3.8077,3.8287,3.8748,3.903,3.9047,3.9699,4.012,4.0086,3.9651,3.9203,3.9089,3.9529,4.0226,4.0889,4.107,4.1402,4.2128,4.2327,4.2715,4.337,4.3604,4.3862,4.4482,4.4584,4.4567,4.4584,4.4584,4.4584,4.4584,4.4629,4.464,4.464,4.464,4.4567,4.444,4.4284,4.4184,4.4198,4.4169,4.4169,4.4184,4.4212,4.4241,4.4272,4.4327,4.4381,4.444,4.4539,4.464,4.4682,4.4696,4.4696,4.4679,4.4679,4.4665,4.4609,4.4525,4.4352,4.7689,4.7689,4.7689,4.7689,4.7689,4.7689,4.7689,4.7689,4.7678,4.7696,4.7636,4.7407,4.7302,4.7309,4.732,4.7327,4.7334,4.7316,4.7296,4.725,4.7185,4.7504,4.8067,4.808,4.8437,4.8966,4.899,4.8948,4.8948,4.899,4.8935,4.8657,4.7913,4.7454,4.7224,4.6507,4.6047,4.5918,4.5697,4.4863,4.3419,4.3181,4.2272,4.0578,4.0503,3.9698,3.8307,3.7903,3.7781,3.7714,3.7662,3.7679,3.7667,3.7819,3.7898,3.7949,3.8519,3.9211,3.9949,4.0226,4.0309,4.0385,4.0991,4.1418,4.1418,4.1814,4.1647,4.0902,4.0662,4.108,4.186,4.1991,4.2334,4.3121,4.3263,4.3609,4.4234,4.4482,4.4516,4.455,4.4584,4.4584,4.4584,4.4584,4.4615,4.4629,4.4709,4.4779,4.4776,4.4776,4.4779,4.4692,4.4511,4.4398,4.4454,4.4398,4.4369,4.4468,4.4528,4.4514,4.4528,4.4542,4.4598,4.4692,4.4731,4.4817,4.4913,4.4968,4.4954,4.4913,4.4913,4.491,4.4817,4.4748,4.4637,4.7689,4.7689,4.7689,4.7689,4.7689,4.7689,4.7689,4.7689,4.7689,4.7689,4.7678,4.7593,4.7533,4.7533,4.7533,4.7735,4.812,4.8127,4.8335,4.8636,4.8603,4.8713,4.8947,4.8871,4.902,4.9269,4.9293,4.9293,4.9293,4.9233,4.9081,4.8873,4.8453,4.8196,4.8064,4.7659,4.7227,4.6722,4.6491,4.5658,4.427,4.3954,4.3272,4.2151,4.1914,4.1536,4.0645,3.9772,3.9219,3.9182,3.8785,3.8601,3.8674,3.9081,3.9367,3.9457,3.9691,4.0226,4.1021,4.1122,4.1352,4.1813,4.2151,4.2292,4.2309,4.2531,4.2614,4.2592,4.2081,4.2018,4.2736,4.2868,4.3199,4.3913,4.4113,4.4245,4.4533,4.4584,4.4584,4.4584,4.4584,4.4584,4.4584,4.4584,4.4626,4.4696,4.4776,4.4831,4.4899,4.4927,4.4886,4.4803,4.4679,4.4626,4.4598,4.4542,4.4511,4.457,4.4584,4.4598,4.4709,4.4723,4.4779,4.4899,4.4896,4.4923,4.4964,4.5009,4.5022,4.5022,4.5005,4.4978,4.4923,4.491,4.4841,4.8033,4.7996,4.7797,4.7689,4.7689,4.7689,4.7689,4.7689,4.7689,4.7689,4.7689,4.7689,4.7689,4.7689,4.7689,4.7972,4.8385,4.841,4.8777,4.9297,4.9277,4.9405,4.9728,4.9674,4.9751,4.9929,5.0001,4.9965,4.9941,4.9776,4.9651,4.9516,4.9174,4.8962,4.8854,4.8531,4.8007,4.7461,4.7034,4.623,4.5165,4.4531,4.3791,4.2963,4.2941,4.2815,4.2432,4.1336,4.0701,4.0722,4.0248,3.9912,3.9878,4.0367,4.0706,4.0822,4.106,4.1397,4.1945,4.2017,4.2299,4.2834,4.3057,4.3211,4.3233,4.3361,4.3677,4.4057,4.3503,4.3335,4.3712,4.3834,4.4105,4.4586,4.4654,4.4657,4.4615,4.4584,4.4584,4.4584,4.4584,4.4584,4.4598,4.4626,4.4709,4.4762,4.4855,4.494,4.5019,4.5046,4.5036,4.4927,4.4858,4.4751,4.4626,4.4584,4.4615,4.4671,4.4668,4.4706,4.4831,4.4858,4.4913,4.5019,4.5046,4.5086,4.5154,4.5144,4.5117,4.51,4.51,4.5086,4.5059,4.5059,4.5032,4.8847,4.8739,4.8033,4.7743,4.7707,4.7689,4.7689,4.7689,4.7689,4.7689,4.7689,4.7689,4.7689,4.7689,4.7689,4.7714,4.7787,4.7859,4.8175,4.8673,4.8657,4.9249,5.04,5.0459,5.0798,5.1244,5.1226,5.1369,5.1446,5.1258,5.1187,5.1091,5.0136,4.9653,4.9543,4.8837,4.8251,4.8027,4.7332,4.6679,4.6282,4.4892,4.3764,4.2958,4.3305,4.3168,4.2424,4.2215,4.2213,4.2362,4.2205,4.198,4.1544,4.1523,4.1565,4.1646,4.2363,4.2855,4.2932,4.3037,4.3169,4.3307,4.388,4.4203,4.4217,4.4607,4.4915,4.5104,4.4837,4.4773,4.4811,4.4732,4.4763,4.4769,4.4789,4.4751,4.4626,4.4612,4.4598,4.4615,4.4612,4.4612,4.4629,4.4709,4.4776,4.4855,4.5002,4.5163,4.518,4.5177,4.518,4.5127,4.4981,4.4762,4.464,4.4626,4.4682,4.4737,4.4779,4.4814,4.491,4.5005,4.5069,4.5136,4.518,4.5234,4.5344,4.5371,4.5344,4.5331,4.5331,4.5304,4.5207,4.5194,4.5167,4.9655,4.9601,4.8793,4.8467,4.8402,4.7924,4.7689,4.7689,4.7689,4.7689,4.7689,4.7689,4.7689,4.7689,4.7689,4.7978,4.8449,4.8467,4.8797,4.9332,4.9307,4.9475,4.9788,4.9781,5.0143,5.0834,5.0941,5.1159,5.1533,5.1389,5.1259,5.1136,5.0717,5.0407,5.0229,4.9852,4.9353,4.8761,4.827,4.7338,4.5923,4.5483,4.4789,4.3543,4.3087,4.2791,4.2423,4.1991,4.1988,4.2581,4.2181,4.2104,4.2453,4.2588,4.2621,4.2656,4.2951,4.3338,4.3751,4.3871,4.4126,4.4578,4.4824,4.4992,4.5031,4.5216,4.5314,4.5314,4.5291,4.5251,4.5207,4.51,4.4978,4.4937,4.494,4.4872,4.4779,4.472,4.4696,4.4626,4.4668,4.4737,4.4765,4.4862,4.4968,4.5046,4.5136,4.5217,4.53,4.5344,4.5287,4.5203,4.5127,4.5022,4.4872,4.4762,4.4748,4.482,4.4858,4.4978,4.5073,4.511,4.5177,4.5261,4.5318,4.5331,4.5397,4.5397,4.5414,4.5414,4.5414,4.5401,4.5344,4.5318,4.5274,5.0318,5.0028,4.951,4.9137,4.8837,4.8322,4.7924,4.7725,4.7689,4.7689,4.7689,4.7689,4.7689,4.7689,4.7689,4.7939,4.8413,4.8439,4.8811,4.9415,4.9297,4.9314,4.9412,4.9341,4.9573,5.0036,5.0089,5.033,5.0675,5.0581,5.0575,5.0687,5.0585,5.056,5.0563,5.0464,5.0067,4.9492,4.9012,4.7954,4.6498,4.598,4.5364,4.431,4.32,4.2866,4.3261,4.2832,4.2846,4.3339,4.3036,4.2963,4.3382,4.3518,4.3552,4.3582,4.381,4.4108,4.4574,4.4647,4.4872,4.5328,4.5397,4.5414,4.5414,4.5414,4.5414,4.5414,4.5414,4.5414,4.5371,4.5238,4.5113,4.5086,4.5059,4.5005,4.4899,4.4855,4.4834,4.4762,4.4817,4.4872,4.4886,4.4978,4.5086,4.519,4.523,4.53,4.5384,4.5397,4.5371,4.5274,4.5217,4.5136,4.5059,4.4978,4.4937,4.4978,4.5009,4.5113,4.5194,4.5234,4.5274,4.5371,4.5414,4.5414,4.5414,4.5414,4.5414,4.5414,4.5414,4.5414,4.5384,4.5414,4.544,5.0861,5.0264,5.0101,4.9709,4.9155,4.8974,4.8438,4.787,4.7779,4.7808,4.7725,4.7689,4.7689,4.7689,4.7696,4.7643,4.7641,4.7616,4.794,4.8459,4.8375,4.8607,4.9079,4.9038,4.9115,4.9281,4.9256,4.9248,4.9336,4.9195,4.9333,4.9775,4.982,5.0024,5.055,5.0401,5.0313,4.9949,4.9309,4.8758,4.8502,4.657,4.5421,4.506,4.3759,4.3573,4.4834,4.4749,4.4628,4.4919,4.4932,4.4827,4.4341,4.4298,4.4311,4.4384,4.4941,4.5294,4.5345,4.5311,4.5307,4.5414,4.5414,4.541,4.5441,4.541,4.541,4.5423,4.5427,4.5414,4.5414,4.5384,4.5331,4.5234,4.519,4.514,4.5032,4.5009,4.5009,4.4981,4.4978,4.5009,4.5019,4.5113,4.519,4.5234,4.53,4.5384,4.5397,4.5414,4.5414,4.5388,4.5318,4.5217,4.5203,4.519,4.519,4.519,4.5194,4.5247,4.5318,4.5357,4.5344,4.5414,4.5414,4.5414,4.5414,4.5414,4.5414,4.5414,4.5414,4.5414,4.5432,4.5466,4.5604,5.1984,5.1676,5.1151,5.0807,5.047,4.9974,4.9275,4.8547,4.854,4.8232,4.7779,4.7689,4.7689,4.7668,4.7615,4.7533,4.7472,4.7377,4.7411,4.7593,4.7577,4.7612,4.7717,4.7729,4.795,4.8437,4.897,4.9091,4.8889,4.8789,4.8894,4.8976,4.9354,4.9588,4.9749,5.0049,5.0189,5.0046,4.9784,4.9332,4.8664,4.7453,4.6529,4.5911,4.4978,4.4751,4.5192,4.4233,4.3984,4.4582,4.4591,4.4712,4.4979,4.5048,4.5048,4.5083,4.5255,4.5414,4.5414,4.5414,4.541,4.5414,4.5414,4.545,4.5515,4.545,4.5432,4.5485,4.5463,4.5414,4.5414,4.5414,4.5384,4.5344,4.5327,4.5274,4.5154,4.5059,4.5022,4.5005,4.5086,4.514,4.5167,4.5261,4.5331,4.5331,4.5371,4.5414,4.5414,4.5414,4.5414,4.5414,4.5344,4.5314,4.53,4.5287,4.53,4.5287,4.53,4.53,4.5371,4.5414,4.5414,4.5414,4.5414,4.5414,4.5414,4.5414,4.5414,4.5414,4.5414,4.5432,4.5466,4.5638,4.588,5.2498,5.2444,5.1955,5.1538,5.1278,5.0735,5.0101,4.9347,4.9028,4.8612,4.8159,4.7815,4.7657,4.7625,4.7533,4.7457,4.737,4.7263,4.7174,4.7133,4.7122,4.7077,4.7009,4.6934,4.7085,4.7465,4.7919,4.8082,4.7904,4.7859,4.79,4.8092,4.8439,4.8866,4.9177,4.9587,4.9806,4.9956,4.9979,4.9726,4.9037,4.8097,4.7337,4.6753,4.5824,4.5352,4.5311,4.4453,4.4178,4.4613,4.4699,4.4954,4.5441,4.5472,4.5502,4.5524,4.5554,4.5554,4.5537,4.5515,4.5476,4.5476,4.5423,4.5463,4.5554,4.5476,4.5463,4.5537,4.5476,4.5414,4.5414,4.5414,4.5414,4.5414,4.5397,4.5371,4.5274,4.5194,4.5154,4.5184,4.5251,4.5261,4.53,4.5327,4.5397,4.5414,4.5414,4.5414,4.5414,4.5414,4.5414,4.5414,4.5384,4.5384,4.5397,4.5414,4.5414,4.5384,4.5384,4.5371,4.5414,4.5414,4.5414,4.5414,4.5414,4.5414,4.5414,4.5414,4.5414,4.5414,4.5449,4.5634,4.579,4.6152,4.6462,5.2498,5.2498,5.248,5.2039,5.1459,5.1387,5.0916,5.0137,4.9474,4.9065,4.8739,4.812,4.7679,4.754,4.7479,4.7413,4.7313,4.7357,4.7397,4.7353,4.7312,4.7254,4.6981,4.6853,4.6779,4.6714,4.6642,4.6546,4.6626,4.6546,4.6503,4.7127,4.7338,4.7779,4.8643,4.899,4.9377,4.9749,4.9927,4.9944,4.9826,4.8582,4.7707,4.7569,4.631,4.55,4.5402,4.5342,4.539,4.5419,4.5333,4.5403,4.5563,4.5589,4.5671,4.5757,4.58,4.5787,4.5757,4.5628,4.5581,4.5567,4.5472,4.5446,4.5576,4.5528,4.5502,4.5589,4.5489,4.5414,4.5414,4.5414,4.5414,4.5414,4.5414,4.5384,4.5414,4.5401,4.5357,4.5371,4.5414,4.5414,4.5384,4.5397,4.5397,4.5414,4.5414,4.5414,4.5414,4.5414,4.5414,4.5414,4.5414,4.5414,4.5414,4.5414,4.5414,4.5414,4.5414,4.5414,4.5414,4.5414,4.5414,4.5414,4.5414,4.5414,4.5414,4.5414,4.5414,4.5414,4.5583,4.5876,4.6255,4.6652,4.722,5.2498,5.2498,5.2498,5.2353,5.2172,5.2172,5.1701,5.1006,5.0771,4.9963,4.9061,4.8587,4.8074,4.7544,4.7381,4.7521,4.7866,4.7958,4.8275,4.8615,4.8586,4.7838,4.7026,4.6725,4.6625,4.6506,4.6481,4.6368,4.6258,4.6209,4.6245,4.6312,4.6786,4.7121,4.75,4.838,4.8915,4.92,4.9737,4.9996,4.9841,4.9048,4.8241,4.7634,4.6755,4.6032,4.5628,4.5581,4.5576,4.555,4.5537,4.555,4.5615,4.5693,4.577,4.5825,4.5825,4.5812,4.577,4.568,4.5602,4.5589,4.5567,4.5602,4.5718,4.5615,4.5632,4.5667,4.5554,4.5414,4.5414,4.5414,4.5414,4.5414,4.5414,4.5414,4.5414,4.5414,4.5414,4.5414,4.5414,4.5414,4.5414,4.5414,4.5414,4.5414,4.5414,4.5414,4.5414,4.5414,4.5414,4.5414,4.5414,4.5414,4.5414,4.5414,4.5414,4.5414,4.5414,4.5414,4.5414,4.5414,4.5414,4.5414,4.5414,4.5414,4.5414,4.5414,4.5414,4.5483,4.591,4.6324,4.6841,4.7307,4.8013,5.2498,5.2498,5.2498,5.2498,5.2498,5.2498,5.2238,5.1785,5.1393,5.0798,4.9809,4.8959,4.8383,4.7834,4.7729,4.7872,4.8256,4.8532,4.8865,4.9078,4.8954,4.8402,4.774,4.7508,4.7276,4.6831,4.6801,4.6564,4.6249,4.6147,4.6035,4.5997,4.6234,4.6521,4.6842,4.7727,4.8531,4.8893,4.9582,4.9996,4.9927,4.922,4.8462,4.7703,4.6979,4.6301,4.578,4.5615,4.5628,4.5705,4.5684,4.5658,4.5757,4.5851,4.5909,4.5947,4.596,4.5965,4.5859,4.5757,4.5654,4.5602,4.5589,4.5628,4.568,4.5645,4.5641,4.5654,4.5515,4.5423,4.5414,4.5414,4.5414,4.5414,4.5414,4.5414,4.5414,4.5414,4.5414,4.5414,4.5414,4.5414,4.5414,4.5414,4.5414,4.5414,4.5414,4.5414,4.5414,4.5414,4.5414,4.5414,4.5414,4.5414,4.5414,4.5414,4.5414,4.5414,4.5414,4.5414,4.5414,4.5414,4.5414,4.5414,4.5414,4.5414,4.5414,4.5483,4.5686,4.5893,4.6341,4.691,4.7496,4.7979,4.8703,5.2498,5.2498,5.2498,5.2498,5.2498,5.2498,5.2462,5.2353,5.1751,5.1278,5.0753,4.9516,4.8877,4.8403,4.8427,4.8441,4.8556,4.9192,4.9387,4.9453,4.9336,4.906,4.8977,4.8541,4.8126,4.7576,4.7463,4.6981,4.6493,4.6183,4.5922,4.583,4.5706,4.5935,4.6412,4.7203,4.7962,4.8634,4.9341,4.9824,4.9858,4.9358,4.8651,4.7703,4.6819,4.6282,4.5892,4.5718,4.5749,4.601,4.5757,4.5757,4.5947,4.5998,4.606,4.6122,4.6122,4.6073,4.5985,4.5833,4.5723,4.5615,4.5602,4.5619,4.5632,4.5615,4.5645,4.5615,4.5476,4.5427,4.5414,4.5414,4.5414,4.5414,4.5414,4.5414,4.5414,4.5414,4.5414,4.5414,4.5414,4.5414,4.5414,4.5414,4.5414,4.5414,4.5414,4.5414,4.5414,4.5414,4.5414,4.5414,4.5414,4.5414,4.5414,4.5414,4.5414,4.5414,4.5414,4.5414,4.5414,4.5414,4.5414,4.5414,4.5414,4.5414,4.5414,4.5569,4.579,4.6272,4.6686,4.7514,4.831,4.8703,4.9289,5.2498,5.2498,5.2498,5.2498,5.2498,5.2498,5.2498,5.245,5.2213,5.1685,5.1092,5.049,4.987,4.9251,4.9222,4.94,4.9852,5.0137,5.0425,5.0806,5.0673,5.0528,5.0145,4.9297,4.8564,4.8187,4.7661,4.7259,4.6908,4.6342,4.5871,4.5667,4.5619,4.5598,4.5786,4.6548,4.7203,4.7945,4.8669,4.9358,4.9855,4.9703,4.8979,4.7783,4.6645,4.6065,4.5954,4.5833,4.5897,4.6023,4.5905,4.5821,4.5985,4.6097,4.6165,4.6147,4.6085,4.6023,4.5977,4.5782,4.5645,4.5589,4.5667,4.5705,4.5632,4.568,4.5684,4.5619,4.5489,4.5427,4.5414,4.5414,4.5414,4.5414,4.5414,4.5414,4.5414,4.5414,4.5414,4.5414,4.5414,4.5414,4.5414,4.5414,4.5414,4.5414,4.5414,4.5414,4.5414,4.5414,4.5414,4.5414,4.5414,4.5414,4.5414,4.5414,4.5414,4.5414,4.5414,4.5414,4.5414,4.5414,4.5414,4.5414,4.5414,4.5414,4.5414,4.5466,4.5638,4.6324,4.7083,4.791,4.8651,4.9186,4.9582,5.2498,5.2498,5.2498,5.2498,5.2498,5.2498,5.2498,5.2475,5.2358,5.2029,5.1604,5.1347,5.0778,5.0026,5.0269,5.053,5.0547,5.0773,5.0977,5.1105,5.103,5.0954,5.0847,5.0118,4.9504,4.9082,4.8696,4.8105,4.7285,4.6698,4.6191,4.5619,4.5537,4.5493,4.5531,4.6169,4.6769,4.7238,4.791,4.8669,4.9306,4.941,4.9004,4.7883,4.6859,4.6294,4.6012,4.5889,4.5947,4.606,4.5947,4.5884,4.6065,4.6147,4.6172,4.6097,4.6048,4.5909,4.5795,4.568,4.5581,4.5498,4.5628,4.5602,4.5563,4.5628,4.5632,4.5528,4.5467,4.5414,4.5414,4.5414,4.5414,4.5414,4.5414,4.5414,4.5414,4.5414,4.5414,4.5414,4.5414,4.5414,4.5414,4.5414,4.5414,4.5414,4.5414,4.5414,4.5414,4.5414,4.5414,4.5414,4.5414,4.5414,4.5414,4.5414,4.5414,4.5414,4.5414,4.5414,4.5414,4.5414,4.5414,4.5414,4.5414,4.5414,4.5414,4.5466,4.5811,4.6807,4.7634,4.8307,4.8927,4.9531,4.9806,5.2498,5.2498,5.2498,5.2498,5.2498,5.2498,5.2486,5.244,5.2335,5.2246,5.2245,5.2111,5.1719,5.1328,5.1583,5.1387,5.0966,5.1015,5.1211,5.1101,5.0985,5.0918,5.0851,5.0711,5.0412,4.9903,4.9548,4.8732,4.7662,4.7026,4.6352,4.5702,4.5463,4.541,4.56,4.5996,4.6462,4.6786,4.7255,4.7893,4.8513,4.8617,4.829,4.7673,4.6968,4.6434,4.6057,4.5884,4.5927,4.6122,4.5909,4.5935,4.6085,4.6159,4.6122,4.6028,4.5947,4.5821,4.5684,4.5594,4.5515,4.5427,4.5528,4.5528,4.5476,4.5528,4.5541,4.5476,4.5414,4.5414,4.5414,4.5414,4.5414,4.5414,4.5414,4.5414,4.5414,4.5414,4.5414,4.5414,4.5414,4.5414,4.5414,4.5414,4.5414,4.5414,4.5414,4.5414,4.5414,4.5414,4.5414,4.5414,4.5414,4.5414,4.5414,4.5414,4.5414,4.5414,4.5414,4.5414,4.5414,4.5414,4.5414,4.5414,4.5414,4.5414,4.5414,4.5432,4.6069,4.7255,4.791,4.8307,4.9013,4.9841,4.9996,5.2498,5.2498,5.2498,5.2498,5.2498,5.2498,5.244,5.2323,5.2222,5.2449,5.2863,5.2809,5.3049,5.3118,5.2796,5.2228,5.1553,5.1363,5.122,5.1092,5.0958,5.0904,5.0891,5.0891,5.0781,5.053,5.0011,4.9006,4.7962,4.7198,4.6455,4.5653,4.541,4.5414,4.5432,4.5587,4.5996,4.6376,4.6686,4.7151,4.7703,4.7955,4.7758,4.7246,4.6617,4.619,4.6039,4.5871,4.5859,4.5972,4.577,4.5808,4.5977,4.6023,4.5998,4.5947,4.5812,4.5654,4.5594,4.5489,4.5437,4.5419,4.5515,4.5528,4.5459,4.5502,4.5485,4.545,4.5414,4.5414,4.5414,4.5414,4.5414,4.5414,4.5414,4.5414,4.5414,4.5414,4.5414,4.5414,4.5414,4.5414,4.5414,4.5414,4.5414,4.5414,4.5414,4.5414,4.5414,4.5414,4.5414,4.5414,4.5414,4.5414,4.5414,4.5414,4.5414,4.5414,4.5414,4.5414,4.5414,4.5414,4.5414,4.5414,4.5414,4.5414,4.5414,4.5414,4.6221,4.7307,4.7789,4.8186,4.9134,4.9996,4.9996,5.2498,5.2498,5.2498,5.2498,5.2486,5.241,5.2358,5.2348,5.2509,5.2793,5.3225,5.3736,5.401,5.405,5.4157,5.3352,5.2209,5.1492,5.1216,5.1025,5.0931,5.0891,5.0891,5.0891,5.0832,5.0646,5.0159,4.9265,4.817,4.7657,4.6631,4.5678,4.5414,4.5414,4.5414,4.5432,4.5604,4.5966,4.6048,4.6376,4.7113,4.7496,4.7486,4.6982,4.6608,4.6312,4.5957,4.5782,4.5757,4.5833,4.5723,4.5736,4.5825,4.5851,4.5782,4.5787,4.5684,4.555,4.5515,4.5423,4.541,4.541,4.5463,4.5463,4.5437,4.545,4.5463,4.5423,4.5414,4.5414,4.5414,4.5414,4.5414,4.5414,4.5414,4.5414,4.5414,4.5414,4.5414,4.5414,4.5414,4.5414,4.5414,4.5414,4.5414,4.5414,4.5414,4.5414,4.5414,4.5414,4.5414,4.5414,4.5414,4.5414,4.5414,4.5414,4.5414,4.5414,4.5414,4.5414,4.5414,4.5414,4.5414,4.5414,4.5414,4.5414,4.5414,4.5432,4.641,4.7255,4.7651,4.8203,4.9306,4.9996,4.9996,5.2503,5.2498,5.2475,5.2463,5.244,5.2323,5.2252,5.2324,5.2818,5.3166,5.3455,5.4526,5.4888,5.471,5.4719,5.4256,5.2719,5.2055,5.167,5.1257,5.1203,5.1119,5.0922,5.0877,5.0819,5.063,5.0425,4.9583,4.828,4.7846,4.688,4.5833,4.5414,4.5414,4.5414,4.5414,4.5414,4.5414,4.5432,4.5776,4.6385,4.6994,4.7236,4.6799,4.6756,4.6425,4.5946,4.5736,4.5684,4.571,4.5658,4.5602,4.5705,4.5628,4.5567,4.5554,4.5567,4.5485,4.545,4.541,4.5414,4.541,4.5414,4.5414,4.5414,4.5427,4.5427,4.5414,4.5414,4.5414,4.5414,4.5414,4.5414,4.5414,4.5414,4.5414,4.5414,4.5414,4.5414,4.5414,4.5414,4.5414,4.5414,4.5414,4.5414,4.5414,4.5414,4.5414,4.5414,4.5414,4.5414,4.5414,4.5414,4.5414,4.5414,4.5414,4.5414,4.5414,4.5414,4.5414,4.5414,4.5414,4.5414,4.5414,4.5414,4.5414,4.5414,4.5569,4.6341,4.6996,4.7462,4.8289,4.9462,4.9962,4.9996,5.2547,5.2498,5.2364,5.2323,5.2311,5.2174,5.2054,5.2082,5.2802,5.3425,5.3875,5.483,5.558,5.5776,5.5317,5.4527,5.3699,5.3179,5.2623,5.1971,5.1874,5.1558,5.1027,5.0908,5.0813,5.0575,5.0401,4.9441,4.8258,4.7796,4.6934,4.5707,4.5414,4.5414,4.5414,4.5414,4.5414,4.5414,4.5414,4.5479,4.5644,4.5887,4.5949,4.5931,4.5957,4.5948,4.574,4.5602,4.5619,4.5607,4.5502,4.5502,4.5563,4.5502,4.5437,4.5423,4.5423,4.541,4.5414,4.5414,4.5414,4.5414,4.5414,4.5414,4.5414,4.5414,4.5414,4.5414,4.5414,4.5414,4.5414,4.5414,4.5414,4.5414,4.5414,4.5414,4.5414,4.5414,4.5414,4.5414,4.5414,4.5414,4.5414,4.5414,4.5414,4.5414,4.5414,4.5414,4.5414,4.5414,4.5414,4.5414,4.5414,4.5414,4.5414,4.5414,4.5414,4.5414,4.5414,4.5414,4.5414,4.5414,4.5414,4.5414,4.5414,4.5414,4.5414,4.569,4.6272,4.6893,4.7531,4.8531,4.9669,4.991,4.9979,5.2513,5.2382,5.2341,5.2264,5.2156,5.2041,5.1956,5.2163,5.3113,5.3745,5.4228,5.5352,5.6097,5.6186,5.5562,5.4883,5.4256,5.3865,5.3325,5.2807,5.2611,5.2242,5.1671,5.1405,5.1172,5.0457,4.9868,4.9007,4.8087,4.7586,4.6927,4.5621,4.5414,4.5414,4.5414,4.5414,4.5414,4.5414,4.5427,4.5437,4.5528,4.5632,4.5723,4.5723,4.5757,4.5723,4.5619,4.5498,4.5489,4.5489,4.5423,4.5423,4.5463,4.5437,4.5397,4.5397,4.5414,4.5414,4.5414,4.5414,4.5414,4.5414,4.5414,4.5414,4.5414,4.5414,4.5414,4.5414,4.5414,4.5414,4.5414,4.5414,4.5414,4.5414,4.5414,4.5414,4.5414,4.5414,4.5414,4.5414,4.5414,4.5414,4.5414,4.5414,4.5414,4.5414,4.5414,4.5414,4.5414,4.5414,4.5414,4.5414,4.5414,4.5414,4.5414,4.5414,4.5414,4.5414,4.5414,4.5414,4.5414,4.5414,4.5414,4.5414,4.5414,4.5414,4.5414,4.5638,4.6017,4.6841,4.7686,4.8651,4.9582,4.9927,4.9996,5.2467,5.2264,5.2252,5.2162,5.2041,5.1907,5.1845,5.2012,5.312,5.38,5.4407,5.5598,5.6379,5.628,5.5793,5.5358,5.503,5.439,5.3869,5.3609,5.338,5.3011,5.2376,5.1997,5.128,5.0397,4.959,4.8536,4.772,4.7255,4.6652,4.5466,4.5414,4.5414,4.5414,4.541,4.541,4.5476,4.5463,4.5528,4.5628,4.5731,4.5774,4.5774,4.5731,4.568,4.5567,4.5476,4.541,4.541,4.541,4.541,4.5427,4.5427,4.5414,4.5414,4.5414,4.5414,4.5414,4.5414,4.5414,4.5414,4.5414,4.5414,4.5414,4.5414,4.5414,4.5414,4.5414,4.5414,4.5414,4.5414,4.5414,4.5414,4.5414,4.5414,4.5414,4.5414,4.5414,4.5414,4.5414,4.5414,4.5414,4.5414,4.5414,4.5414,4.5414,4.5414,4.5414,4.5414,4.5414,4.5414,4.5414,4.5414,4.5414,4.5414,4.5414,4.5414,4.5414,4.5414,4.5414,4.5414,4.5414,4.5414,4.5414,4.5414,4.5414,4.5569,4.5828,4.6876,4.7858,4.86,4.9306,4.972,4.9996,5.2421,5.2096,5.2126,5.2041,5.1895,5.1783,5.1715,5.1799,5.2643,5.3457,5.4282,5.5584,5.6396,5.632,5.6156,5.5928,5.578,5.5637,5.495,5.4427,5.4173,5.3752,5.3046,5.2211,5.1301,5.0359,4.9219,4.7945,4.7037,4.6686,4.6152,4.5518,4.5414,4.5414,4.5427,4.5423,4.5502,4.5567,4.5594,4.5628,4.5736,4.5787,4.5761,4.5658,4.5602,4.5537,4.5423,4.541,4.5414,4.5414,4.5414,4.5414,4.5414,4.5414,4.5414,4.5414,4.5414,4.5414,4.5414,4.5414,4.5414,4.5414,4.5414,4.5414,4.5414,4.5414,4.5414,4.5414,4.5414,4.5414,4.5414,4.5414,4.5414,4.5414,4.5414,4.5414,4.5414,4.5414,4.5414,4.5414,4.5414,4.5414,4.5414,4.5414,4.5414,4.5414,4.5414,4.5414,4.5414,4.5414,4.5414,4.5414,4.5414,4.5414,4.5414,4.5414,4.5414,4.5414,4.5414,4.5414,4.5414,4.5414,4.5414,4.5414,4.5414,4.5414,4.5414,4.55,4.5931,4.7083,4.7979,4.8565,4.9255,4.9841,4.9996,5.2357,5.2096,5.2096,5.1963,5.1783,5.1715,5.169,5.1845,5.2559,5.3617,5.4746,5.5865,5.6396,5.6342,5.6249,5.6095,5.5922,5.5764,5.5376,5.5186,5.4949,5.4559,5.3663,5.2396,5.1199,5.0122,4.8626,4.7406,4.67,4.6186,4.579,4.5449,4.541,4.5414,4.5427,4.5489,4.5607,4.5697,4.5736,4.5757,4.5787,4.58,4.5731,4.5619,4.5589,4.5528,4.5423,4.5427,4.5414,4.5414,4.5414,4.5414,4.5414,4.5414,4.5414,4.5414,4.5414,4.5414,4.5414,4.5414,4.5414,4.5414,4.5414,4.5414,4.5414,4.5414,4.5414,4.5414,4.5414,4.5414,4.5414,4.5414,4.5414,4.5414,4.5414,4.5414,4.5414,4.5414,4.5414,4.5414,4.5414,4.5414,4.5414,4.5414,4.5414,4.5414,4.5414,4.5414,4.5414,4.5414,4.5414,4.5414,4.5414,4.5414,4.5414,4.5414,4.5414,4.5414,4.5414,4.5414,4.5414,4.5414,4.5414,4.5414,4.5414,4.5414,4.5414,4.5414,4.6069,4.7255,4.791,4.8358,4.9082,4.991,4.9996,5.234,5.2096,5.2096,5.1938,5.1715,5.169,5.169,5.1792,5.2274,5.3255,5.4598,5.5526,5.6016,5.6002,5.6108,5.5993,5.5836,5.5695,5.5578,5.5364,5.5107,5.4808,5.3774,5.235,5.0701,4.9674,4.7948,4.6565,4.6134,4.5638,4.5506,4.548,4.5446,4.5476,4.5502,4.5589,4.5718,4.5821,4.5859,4.5859,4.5876,4.5808,4.5731,4.5602,4.5567,4.5489,4.5441,4.5414,4.5414,4.5414,4.5414,4.5414,4.5414,4.5414,4.5414,4.5414,4.5414,4.5414,4.5414,4.5414,4.5414,4.5414,4.5414,4.5414,4.5414,4.5414,4.5414,4.5414,4.5414,4.5414,4.5414,4.5414,4.5414,4.5414,4.5414,4.5414,4.5414,4.5414,4.5414,4.5414,4.5414,4.5414,4.5414,4.5414,4.5414,4.5414,4.5414,4.5414,4.5414,4.5414,4.5414,4.5414,4.5414,4.5414,4.5414,4.5414,4.5414,4.5414,4.5414,4.5414,4.5414,4.5414,4.5414,4.5414,4.5414,4.5414,4.5518,4.5673,4.6448,4.7445,4.8151,4.8927,4.9238,4.9996,4.9996,5.234,5.2096,5.2096,5.1938,5.1703,5.169,5.169,5.1708,5.1899,5.2381,5.3327,5.4598,5.516,5.5162,5.5432,5.5469,5.5365,5.5311,5.5227,5.5016,5.4577,5.4314,5.3333,5.1878,5.0167,4.9096,4.75,4.6115,4.5575,4.5545,4.5515,4.5563,4.5602,4.5632,4.5602,4.5736,4.5876,4.5972,4.6002,4.5972,4.5922,4.5821,4.5693,4.5563,4.5489,4.5441,4.5427,4.5414,4.5414,4.5414,4.5414,4.5414,4.5414,4.5414,4.5414,4.5414,4.5414,4.5414,4.5414,4.5414,4.5414,4.5414,4.5414,4.5414,4.5414,4.5414,4.5414,4.5414,4.5414,4.5414,4.5414,4.5414,4.5414,4.5414,4.5414,4.5414,4.5414,4.5414,4.5414,4.5414,4.5414,4.5414,4.5414,4.5414,4.5414,4.5414,4.5414,4.5414,4.5414,4.5414,4.5414,4.5414,4.5414,4.5414,4.5414,4.5414,4.5414,4.5414,4.5414,4.5414,4.5414,4.5414,4.5414,4.5414,4.5414,4.5414,4.5707,4.6017,4.6965,4.7945,4.9031,4.9752,4.9944,4.9996,4.9996,5.2358,5.2096,5.2096,5.1938,5.1715,5.169,5.169,5.1797,5.2238,5.2649,5.3041,5.4014,5.4327,5.43,5.4309,5.4401,5.4243,5.4031,5.3977,5.3963,5.3682,5.3626,5.2783,5.1217,4.9691,4.8866,4.7351,4.6009,4.5702,4.5645,4.5654,4.5731,4.5795,4.5841,4.5871,4.5939,4.5998,4.6102,4.6065,4.596,4.5859,4.5744,4.5615,4.5489,4.5423,4.5414,4.5414,4.5414,4.5414,4.5414,4.5414,4.5414,4.5414,4.5414,4.5414,4.5414,4.5414,4.5414,4.5414,4.5414,4.5414,4.5414,4.5414,4.5414,4.5414,4.5414,4.5414,4.5414,4.5414,4.5414,4.5414,4.5414,4.5414,4.5414,4.5414,4.5414,4.5414,4.5414,4.5414,4.5414,4.5414,4.5414,4.5414,4.5414,4.5414,4.5414,4.5414,4.5414,4.5414,4.5414,4.5414,4.5414,4.5414,4.5414,4.5414,4.5414,4.5414,4.5414,4.5414,4.5414,4.5414,4.5414,4.5414,4.5414,4.5414,4.5449,4.5983,4.66,4.7482,4.8479,4.9427,4.9976,4.9979,4.9996,4.9996,5.234,5.2114,5.2096,5.1938,5.1715,5.169,5.169,5.1792,5.2256,5.2488,5.2649,5.3247,5.3499,5.3411,5.3516,5.3476,5.3341,5.3243,5.3204,5.3152,5.2857,5.2804,5.199,5.0466,4.9221,4.8443,4.7152,4.58,4.577,4.58,4.5821,4.5884,4.5998,4.6048,4.606,4.6073,4.6097,4.6165,4.611,4.604,4.5897,4.5757,4.5632,4.5515,4.5454,4.5414,4.5414,4.5414,4.5414,4.5414,4.5414,4.5414,4.5414,4.5414,4.5414,4.5414,4.5414,4.5414,4.5414,4.5414,4.5414,4.5414,4.5414,4.5414,4.5414,4.5414,4.5414,4.5414,4.5414,4.5414,4.5414,4.5414,4.5414,4.5414,4.5414,4.5414,4.5414,4.5414,4.5414,4.5414,4.5414,4.5414,4.5414,4.5414,4.5414,4.5414,4.5414,4.5414,4.5414,4.5414,4.5414,4.5414,4.5414,4.5414,4.5414,4.5414,4.5414,4.5414,4.5414,4.5414,4.5414,4.5414,4.5414,4.5414,4.5432,4.5673,4.6427,4.7186,4.8134,4.8875,4.9579,4.9924,4.9979,4.9996,4.9996,5.2358,5.2108,5.2096,5.1938,5.1715,5.169,5.169,5.169,5.1738,5.1744,5.1797,5.2577,5.2685,5.2608,5.3122,5.3198,5.2955,5.2916,5.2853,5.2748,5.2225,5.2053,5.1236,4.97,4.882,4.7884,4.6842,4.5914,4.5851,4.5922,4.5972,4.6023,4.6147,4.6179,4.6209,4.6172,4.6202,4.6172,4.6135,4.6048,4.5947,4.5825,4.5684,4.5567,4.5476,4.5427,4.5414,4.5414,4.5414,4.5414,4.5414,4.5414,4.5414,4.5414,4.5414,4.5414,4.5414,4.5414,4.5414,4.5414,4.5414,4.5414,4.5414,4.5414,4.5414,4.5414,4.5414,4.5414,4.5414,4.5414,4.5414,4.5414,4.5414,4.5414,4.5414,4.5414,4.5414,4.5414,4.5414,4.5414,4.5414,4.5414,4.5414,4.5414,4.5414,4.5414,4.5414,4.5414,4.5414,4.5414,4.5414,4.5414,4.5414,4.5414,4.5414,4.5414,4.5414,4.5414,4.5414,4.5414,4.5414,4.5414,4.5414,4.5432,4.5483,4.5983,4.7134,4.8031,4.8824,4.9462,4.9855,4.991,4.9996,4.9996,4.9996,5.2358,5.2114,5.2096,5.1938,5.1715,5.169,5.169,5.169,5.169,5.169,5.1708,5.1935,5.2004,5.1801,5.1922,5.19,5.177,5.1608,5.155,5.1466,5.1515,5.1326,5.0579,4.9482,4.8684,4.7904,4.702,4.6102,4.6122,4.6159,4.6216,4.6289,4.6301,4.6326,4.6289,4.6246,4.6209,4.6189,4.6122,4.6073,4.596,4.5795,4.568,4.5589,4.5476,4.541,4.5414,4.5414,4.5414,4.5414,4.5414,4.5414,4.5414,4.5414,4.5414,4.5414,4.5414,4.5414,4.5414,4.5414,4.5414,4.5414,4.5414,4.5414,4.5414,4.5414,4.5414,4.5414,4.5414,4.5414,4.5414,4.5414,4.5414,4.5414,4.5414,4.5414,4.5414,4.5414,4.5414,4.5414,4.5414,4.5414,4.5414,4.5414,4.5414,4.5414,4.5414,4.5414,4.5414,4.5414,4.5414,4.5414,4.5414,4.5414,4.5414,4.5414,4.5414,4.5414,4.5414,4.5414,4.5414,4.5414,4.5414,4.5656,4.6052,4.7,4.8186,4.8893,4.9306,4.9617,4.9962,4.9979,4.9996,4.9996,4.9996,5.2328,5.2126,5.2096,5.1938,5.1728,5.169,5.169,5.169,5.169,5.169,5.169,5.1708,5.1632,5.1528,5.1504,5.14,5.1255,5.1273,5.1206,5.1157,5.0985,5.0716,5.0123,4.9306,4.8545,4.7824,4.7141,4.6368,4.6362,4.641,4.6471,4.6471,4.6459,4.6405,4.6345,4.6282,4.6214,4.6172,4.6122,4.6102,4.5972,4.5821,4.5718,4.5628,4.5515,4.5423,4.5414,4.5414,4.5414,4.5414,4.5414,4.5414,4.5414,4.5414,4.5414,4.5414,4.5414,4.5414,4.5414,4.5414,4.5414,4.5414,4.5414,4.5414,4.5414,4.5414,4.5414,4.5414,4.5414,4.5414,4.5414,4.5414,4.5414,4.5414,4.5414,4.5414,4.5414,4.5414,4.5414,4.5414,4.5414,4.5414,4.5414,4.5414,4.5414,4.5414,4.5414,4.5414,4.5414,4.5414,4.5414,4.5414,4.5414,4.5414,4.5414,4.5414,4.5414,4.5414,4.5414,4.5414,4.5414,4.5518,4.5604,4.6186,4.6876,4.7841,4.8755,4.9169,4.9565,4.9841,4.9996,4.9996,4.9996,4.9996,4.9996,5.2352,5.2096,5.209,5.1926,5.1715,5.169,5.169,5.169,5.169,5.169,5.169,5.169,5.1645,5.1543,5.1479,5.1415,5.1324,5.1259,5.118,5.1119,5.1119,5.0761,4.9943,4.9062,4.8443,4.7659,4.6989,4.6518,4.6566,4.6602,4.6613,4.6619,4.6495,4.6429,4.6435,4.6282,4.6214,4.6202,4.6189,4.6177,4.6097,4.596,4.58,4.5749,4.5581,4.5414,4.5414,4.5414,4.5414,4.5414,4.5414,4.5414,4.5414,4.5414,4.5414,4.5414,4.5414,4.5414,4.5414,4.5414,4.5414,4.5414,4.5414,4.5414,4.5414,4.5414,4.5414,4.5414,4.5414,4.5414,4.5414,4.5414,4.5414,4.5414,4.5414,4.5414,4.5414,4.5414,4.5414,4.5414,4.5414,4.5414,4.5414,4.5414,4.5414,4.5414,4.5414,4.5414,4.5414,4.5414,4.5414,4.5414,4.5414,4.5414,4.5414,4.5414,4.5414,4.5414,4.5414,4.5414,4.5414,4.5604,4.5845,4.6772,4.7755,4.8324,4.9065,4.9462,4.9737,4.9875,4.9996,4.9996,4.9996,4.9996,4.9996,5.2405,5.2222,5.2029,5.1845,5.1703,5.169,5.169,5.169,5.169,5.169,5.169,5.169,5.1678,5.1645,5.1543,5.1479,5.1454,5.1372,5.1298,5.1224,5.1211,5.0588,4.9922,4.9069,4.8399,4.7722,4.7103,4.6637,4.6649,4.6696,4.6743,4.6749,4.6613,4.653,4.6518,4.6331,4.6214,4.6202,4.6202,4.6184,4.6135,4.596,4.58,4.5705,4.555,4.5423,4.5414,4.5414,4.5414,4.5414,4.5414,4.5414,4.5414,4.5414,4.5414,4.5414,4.5414,4.5414,4.5414,4.5414,4.5414,4.5414,4.5414,4.5414,4.5414,4.5414,4.5414,4.5414,4.5414,4.5414,4.5414,4.5414,4.5414,4.5414,4.5414,4.5414,4.5414,4.5414,4.5414,4.5414,4.5414,4.5414,4.5414,4.5414,4.5414,4.5414,4.5414,4.5414,4.5414,4.5414,4.5414,4.5414,4.5414,4.5414,4.5414,4.5414,4.5414,4.5414,4.5414,4.5414,4.5449,4.6152,4.6841,4.7772,4.8651,4.9065,4.941,4.972,4.9944,4.9996,4.9996,4.9996,4.9996,4.9996,4.9996,5.2417,5.2275,5.2023,5.182,5.1721,5.169,5.169,5.169,5.169,5.169,5.169,5.169,5.169,5.169,5.162,5.1582,5.1569,5.1513,5.1436,5.138,5.0933,5.0239,4.9584,4.89,4.8056,4.7376,4.708,4.6795,4.6784,4.683,4.6876,4.6853,4.6719,4.6602,4.6584,4.6355,4.6214,4.6202,4.6202,4.6159,4.611,4.5922,4.5774,4.5654,4.5541,4.5441,4.5414,4.5414,4.5414,4.5414,4.5414,4.5414,4.5414,4.5414,4.5414,4.5414,4.5414,4.5414,4.5414,4.5414,4.5414,4.5414,4.5414,4.5414,4.5414,4.5414,4.5414,4.5414,4.5414,4.5414,4.5414,4.5414,4.5414,4.5414,4.5414,4.5414,4.5414,4.5414,4.5414,4.5414,4.5414,4.5414,4.5414,4.5414,4.5414,4.5414,4.5414,4.5414,4.5414,4.5414,4.5414,4.5397,4.5384,4.5414,4.5414,4.5414,4.5414,4.5414,4.5432,4.5759,4.61,4.7048,4.7927,4.8565,4.91,4.9513,4.9841,4.9962,4.9996,4.9996,4.9996,4.9996,4.9996,4.9996,4.9996,5.229,5.2234,5.2017,5.1845,5.1703,5.169,5.169,5.169,5.169,5.169,5.169,5.169,5.169,5.169,5.169,5.169,5.1678,5.1627,5.1594,5.1325,5.0713,5.0053,4.9247,4.8389,4.7714,4.7263,4.6982,4.6952,4.6945,4.6968,4.6945,4.6934,4.6807,4.6631,4.653,4.6374,4.6233,4.6214,4.6189,4.6097,4.5985,4.5859,4.5731,4.5619,4.5476,4.5427,4.5414,4.5414,4.5414,4.5414,4.5414,4.5414,4.5414,4.5414,4.5414,4.5414,4.5414,4.5414,4.5414,4.5414,4.5414,4.5414,4.5414,4.5414,4.5414,4.5414,4.5414,4.5414,4.5414,4.5414,4.5414,4.5414,4.5414,4.5414,4.5414,4.5414,4.5414,4.5414,4.5414,4.5414,4.5414,4.5414,4.5414,4.5414,4.5414,4.5414,4.5414,4.5414,4.5414,4.5414,4.5414,4.5371,4.5357,4.5371,4.5414,4.5401,4.5388,4.5535,4.5656,4.6134,4.6755,4.7686,4.8444,4.8962,4.9479,4.9789,4.991,4.9979,4.9996,4.9996,4.9996,4.9996,4.9996,4.9996,4.9996,5.1774,5.2138,5.209,5.1896,5.168,5.1654,5.169,5.169,5.1654,5.169,5.1654,5.1672,5.169,5.169,5.169,5.169,5.169,5.169,5.169,5.1528,5.0652,4.9928,4.915,4.8265,4.7694,4.7272,4.6986,4.6998,4.7009,4.7009,4.6998,4.6986,4.6853,4.6714,4.6578,4.6423,4.6307,4.6246,4.6177,4.6097,4.5922,4.5808,4.5731,4.5589,4.5476,4.5423,4.5414,4.5414,4.5414,4.5414,4.5414,4.5414,4.5414,4.5414,4.5414,4.5414,4.5414,4.5414,4.5414,4.5414,4.5414,4.5414,4.5414,4.5414,4.5414,4.5414,4.5414,4.5414,4.5414,4.5414,4.5414,4.5414,4.5414,4.5414,4.5414,4.5414,4.5414,4.5414,4.5414,4.5414,4.5414,4.5414,4.5414,4.5414,4.5414,4.5414,4.5414,4.5414,4.5414,4.5414,4.5414,4.5357,4.53,4.5344,4.5388,4.5361,4.5379,4.5577,4.6069,4.6852,4.761,4.831,4.8979,4.9427,4.9651,4.991,4.9979,4.9996,4.9996,4.9996,4.9996,4.9996,4.9996,4.9996,4.9996]}]]